<?xml version="1.0" encoding="UTF-8" standalone="no" ?>
<gpx xmlns="http://www.topografix.com/GPX/1/1" xmlns:xsi="http://www.w3.org/2001/XMLSchema-instance" xsi:schemaLocation="http://www.topografix.com/GPX/1/1 http://www.topografix.com/GPX/1/1/gpx.xsd" version="1.1" creator="VisuGPX - https://www.visugpx.com">
  <metadata>
    <name>2013-06-22 Bike ride-Amberieux-Anse then VTT Cannondale Circuit 1</name>
    <desc><![CDATA[2013-06-22 Bike ride-Amberieux-Anse then VTT Cannondale Circuit 1]]></desc>
  </metadata>
  <wpt lat="45.92448" lon="4.73696">
    <ele>174</ele>
    <name><![CDATA[(Start)]]></name>
  </wpt>
  <wpt lat="45.9246" lon="4.73709">
    <ele>174</ele>
    <name><![CDATA[(End)]]></name>
    <desc><![CDATA[Created by Google My Tracks on Android.  Name: - Activity type: - Description: - Total distance: 18.77 km (11.7 mi) Total time: 1:37:01 Moving time: 1:35:19 Average speed: 11.61 km/h (7.2 mi/h) Average moving speed: 11.82 km/h (7.3 mi/h) Max speed: 43.00 km/h (26.7 mi/h) Average pace: 5.17 min/km (8.3 min/mi) Average moving pace: 5.08 min/km (8.2 min/mi) Fastest pace: 1.40 min/km (2.2 min/mile) Max elevation: 352 m (1156 ft) Min elevation: 135 m (444 ft) Elevation gain: 433 m (1422 ft) Max grade: 17 % Min grade: -15 % Recorded: 22/06/2013 13:33]]></desc>
  </wpt>
  <trk>
    <name><![CDATA[2013-06-22 Bike ride-Amberieux-Anse then VTT Cannondale Circuit 1_1]]></name>
    <trkseg>
      <trkpt lat="45.92448" lon="4.73696">
        <ele>174</ele>
        <time>2013-06-22T11:33:05Z</time>
      </trkpt>
      <trkpt lat="45.92454" lon="4.73702">
        <ele>174</ele>
        <time>2013-06-22T11:33:08Z</time>
      </trkpt>
      <trkpt lat="45.92461" lon="4.73703">
        <ele>174</ele>
        <time>2013-06-22T11:33:11Z</time>
      </trkpt>
      <trkpt lat="45.92466" lon="4.73703">
        <ele>174</ele>
        <time>2013-06-22T11:33:14Z</time>
      </trkpt>
      <trkpt lat="45.92466" lon="4.73699">
        <ele>174</ele>
        <time>2013-06-22T11:33:18Z</time>
      </trkpt>
      <trkpt lat="45.92466" lon="4.73695">
        <ele>174</ele>
        <time>2013-06-22T11:33:21Z</time>
      </trkpt>
      <trkpt lat="45.92467" lon="4.73696">
        <ele>174</ele>
        <time>2013-06-22T11:33:24Z</time>
      </trkpt>
      <trkpt lat="45.92465" lon="4.73696">
        <ele>174</ele>
        <time>2013-06-22T11:33:28Z</time>
      </trkpt>
      <trkpt lat="45.92465" lon="4.73698">
        <ele>174</ele>
        <time>2013-06-22T11:33:31Z</time>
      </trkpt>
      <trkpt lat="45.92463" lon="4.737">
        <ele>174</ele>
        <time>2013-06-22T11:33:36Z</time>
      </trkpt>
      <trkpt lat="45.92463" lon="4.73698">
        <ele>174</ele>
        <time>2013-06-22T11:33:40Z</time>
      </trkpt>
      <trkpt lat="45.92464" lon="4.73696">
        <ele>174</ele>
        <time>2013-06-22T11:33:43Z</time>
      </trkpt>
      <trkpt lat="45.92463" lon="4.73696">
        <ele>174</ele>
        <time>2013-06-22T11:33:47Z</time>
      </trkpt>
      <trkpt lat="45.92466" lon="4.73695">
        <ele>174</ele>
        <time>2013-06-22T11:33:50Z</time>
      </trkpt>
      <trkpt lat="45.92463" lon="4.737">
        <ele>174</ele>
        <time>2013-06-22T11:33:54Z</time>
      </trkpt>
      <trkpt lat="45.92462" lon="4.73703">
        <ele>174</ele>
        <time>2013-06-22T11:33:57Z</time>
      </trkpt>
      <trkpt lat="45.92458" lon="4.73704">
        <ele>174</ele>
        <time>2013-06-22T11:34:00Z</time>
      </trkpt>
      <trkpt lat="45.92459" lon="4.73701">
        <ele>174</ele>
        <time>2013-06-22T11:34:03Z</time>
      </trkpt>
      <trkpt lat="45.92455" lon="4.73696">
        <ele>174</ele>
        <time>2013-06-22T11:34:06Z</time>
      </trkpt>
      <trkpt lat="45.92454" lon="4.737">
        <ele>174</ele>
        <time>2013-06-22T11:34:09Z</time>
      </trkpt>
      <trkpt lat="45.92454" lon="4.73703">
        <ele>174</ele>
        <time>2013-06-22T11:34:13Z</time>
      </trkpt>
      <trkpt lat="45.92453" lon="4.73706">
        <ele>174</ele>
        <time>2013-06-22T11:34:17Z</time>
      </trkpt>
      <trkpt lat="45.92452" lon="4.73708">
        <ele>174</ele>
        <time>2013-06-22T11:34:21Z</time>
      </trkpt>
      <trkpt lat="45.92456" lon="4.73708">
        <ele>174</ele>
        <time>2013-06-22T11:34:24Z</time>
      </trkpt>
      <trkpt lat="45.92455" lon="4.73707">
        <ele>174</ele>
        <time>2013-06-22T11:34:27Z</time>
      </trkpt>
      <trkpt lat="45.92457" lon="4.73707">
        <ele>174</ele>
        <time>2013-06-22T11:34:30Z</time>
      </trkpt>
      <trkpt lat="45.92457" lon="4.73702">
        <ele>174</ele>
        <time>2013-06-22T11:34:43Z</time>
      </trkpt>
      <trkpt lat="45.92456" lon="4.73704">
        <ele>174</ele>
        <time>2013-06-22T11:34:47Z</time>
      </trkpt>
      <trkpt lat="45.92457" lon="4.73709">
        <ele>174</ele>
        <time>2013-06-22T11:34:50Z</time>
      </trkpt>
      <trkpt lat="45.92458" lon="4.7371">
        <ele>174</ele>
        <time>2013-06-22T11:34:58Z</time>
      </trkpt>
      <trkpt lat="45.92461" lon="4.73711">
        <ele>174</ele>
        <time>2013-06-22T11:35:03Z</time>
      </trkpt>
      <trkpt lat="45.92463" lon="4.73704">
        <ele>174</ele>
        <time>2013-06-22T11:35:06Z</time>
      </trkpt>
      <trkpt lat="45.92464" lon="4.73693">
        <ele>174</ele>
        <time>2013-06-22T11:35:09Z</time>
      </trkpt>
      <trkpt lat="45.92466" lon="4.73682">
        <ele>174</ele>
        <time>2013-06-22T11:35:12Z</time>
      </trkpt>
      <trkpt lat="45.92468" lon="4.73667">
        <ele>174</ele>
        <time>2013-06-22T11:35:15Z</time>
      </trkpt>
      <trkpt lat="45.92471" lon="4.73653">
        <ele>174</ele>
        <time>2013-06-22T11:35:18Z</time>
      </trkpt>
      <trkpt lat="45.92479" lon="4.73643">
        <ele>174</ele>
        <time>2013-06-22T11:35:21Z</time>
      </trkpt>
      <trkpt lat="45.92491" lon="4.73643">
        <ele>174</ele>
        <time>2013-06-22T11:35:24Z</time>
      </trkpt>
      <trkpt lat="45.92503" lon="4.73642">
        <ele>174</ele>
        <time>2013-06-22T11:35:27Z</time>
      </trkpt>
      <trkpt lat="45.92514" lon="4.73643">
        <ele>174</ele>
        <time>2013-06-22T11:35:30Z</time>
      </trkpt>
      <trkpt lat="45.92526" lon="4.73643">
        <ele>173</ele>
        <time>2013-06-22T11:35:33Z</time>
      </trkpt>
      <trkpt lat="45.92536" lon="4.7364">
        <ele>173</ele>
        <time>2013-06-22T11:35:36Z</time>
      </trkpt>
      <trkpt lat="45.92545" lon="4.73637">
        <ele>173</ele>
        <time>2013-06-22T11:35:39Z</time>
      </trkpt>
      <trkpt lat="45.92555" lon="4.73637">
        <ele>173</ele>
        <time>2013-06-22T11:35:42Z</time>
      </trkpt>
      <trkpt lat="45.92564" lon="4.73632">
        <ele>173</ele>
        <time>2013-06-22T11:35:45Z</time>
      </trkpt>
      <trkpt lat="45.92573" lon="4.73628">
        <ele>173</ele>
        <time>2013-06-22T11:35:48Z</time>
      </trkpt>
      <trkpt lat="45.92584" lon="4.73628">
        <ele>172</ele>
        <time>2013-06-22T11:35:51Z</time>
      </trkpt>
      <trkpt lat="45.92594" lon="4.73626">
        <ele>173</ele>
        <time>2013-06-22T11:35:54Z</time>
      </trkpt>
      <trkpt lat="45.9261" lon="4.73631">
        <ele>173</ele>
        <time>2013-06-22T11:35:57Z</time>
      </trkpt>
      <trkpt lat="45.92621" lon="4.73652">
        <ele>173</ele>
        <time>2013-06-22T11:36:00Z</time>
      </trkpt>
      <trkpt lat="45.92632" lon="4.73671">
        <ele>173</ele>
        <time>2013-06-22T11:36:03Z</time>
      </trkpt>
      <trkpt lat="45.92643" lon="4.73688">
        <ele>173</ele>
        <time>2013-06-22T11:36:06Z</time>
      </trkpt>
      <trkpt lat="45.92655" lon="4.73703">
        <ele>173</ele>
        <time>2013-06-22T11:36:09Z</time>
      </trkpt>
      <trkpt lat="45.92669" lon="4.73712">
        <ele>174</ele>
        <time>2013-06-22T11:36:12Z</time>
      </trkpt>
      <trkpt lat="45.92686" lon="4.73716">
        <ele>173</ele>
        <time>2013-06-22T11:36:15Z</time>
      </trkpt>
      <trkpt lat="45.92704" lon="4.73718">
        <ele>173</ele>
        <time>2013-06-22T11:36:18Z</time>
      </trkpt>
      <trkpt lat="45.92721" lon="4.73721">
        <ele>173</ele>
        <time>2013-06-22T11:36:21Z</time>
      </trkpt>
      <trkpt lat="45.92738" lon="4.73722">
        <ele>173</ele>
        <time>2013-06-22T11:36:24Z</time>
      </trkpt>
      <trkpt lat="45.92752" lon="4.73726">
        <ele>172</ele>
        <time>2013-06-22T11:36:27Z</time>
      </trkpt>
      <trkpt lat="45.92764" lon="4.73731">
        <ele>172</ele>
        <time>2013-06-22T11:36:30Z</time>
      </trkpt>
      <trkpt lat="45.92778" lon="4.7373">
        <ele>172</ele>
        <time>2013-06-22T11:36:33Z</time>
      </trkpt>
      <trkpt lat="45.92787" lon="4.73709">
        <ele>172</ele>
        <time>2013-06-22T11:36:36Z</time>
      </trkpt>
      <trkpt lat="45.92793" lon="4.7369">
        <ele>172</ele>
        <time>2013-06-22T11:36:39Z</time>
      </trkpt>
      <trkpt lat="45.92798" lon="4.73669">
        <ele>172</ele>
        <time>2013-06-22T11:36:42Z</time>
      </trkpt>
      <trkpt lat="45.92802" lon="4.7365">
        <ele>172</ele>
        <time>2013-06-22T11:36:45Z</time>
      </trkpt>
      <trkpt lat="45.92808" lon="4.73638">
        <ele>172</ele>
        <time>2013-06-22T11:36:48Z</time>
      </trkpt>
      <trkpt lat="45.92816" lon="4.73631">
        <ele>172</ele>
        <time>2013-06-22T11:36:51Z</time>
      </trkpt>
      <trkpt lat="45.92823" lon="4.73623">
        <ele>172</ele>
        <time>2013-06-22T11:36:54Z</time>
      </trkpt>
      <trkpt lat="45.92824" lon="4.73611">
        <ele>171</ele>
        <time>2013-06-22T11:36:57Z</time>
      </trkpt>
      <trkpt lat="45.92823" lon="4.73599">
        <ele>171</ele>
        <time>2013-06-22T11:37:00Z</time>
      </trkpt>
      <trkpt lat="45.92823" lon="4.73588">
        <ele>171</ele>
        <time>2013-06-22T11:37:03Z</time>
      </trkpt>
      <trkpt lat="45.92822" lon="4.73582">
        <ele>171</ele>
        <time>2013-06-22T11:37:09Z</time>
      </trkpt>
      <trkpt lat="45.92822" lon="4.73577">
        <ele>171</ele>
        <time>2013-06-22T11:37:12Z</time>
      </trkpt>
      <trkpt lat="45.92822" lon="4.73563">
        <ele>171</ele>
        <time>2013-06-22T11:37:15Z</time>
      </trkpt>
      <trkpt lat="45.92822" lon="4.73546">
        <ele>171</ele>
        <time>2013-06-22T11:37:18Z</time>
      </trkpt>
      <trkpt lat="45.92823" lon="4.73526">
        <ele>172</ele>
        <time>2013-06-22T11:37:21Z</time>
      </trkpt>
      <trkpt lat="45.92826" lon="4.73507">
        <ele>172</ele>
        <time>2013-06-22T11:37:24Z</time>
      </trkpt>
      <trkpt lat="45.92829" lon="4.73487">
        <ele>172</ele>
        <time>2013-06-22T11:37:27Z</time>
      </trkpt>
      <trkpt lat="45.92831" lon="4.73466">
        <ele>172</ele>
        <time>2013-06-22T11:37:30Z</time>
      </trkpt>
      <trkpt lat="45.92834" lon="4.73446">
        <ele>172</ele>
        <time>2013-06-22T11:37:33Z</time>
      </trkpt>
      <trkpt lat="45.92835" lon="4.73429">
        <ele>172</ele>
        <time>2013-06-22T11:37:36Z</time>
      </trkpt>
      <trkpt lat="45.92837" lon="4.73412">
        <ele>172</ele>
        <time>2013-06-22T11:37:39Z</time>
      </trkpt>
      <trkpt lat="45.9284" lon="4.73402">
        <ele>172</ele>
        <time>2013-06-22T11:37:42Z</time>
      </trkpt>
      <trkpt lat="45.92841" lon="4.73398">
        <ele>172</ele>
        <time>2013-06-22T11:37:51Z</time>
      </trkpt>
      <trkpt lat="45.92842" lon="4.73391">
        <ele>172</ele>
        <time>2013-06-22T11:37:54Z</time>
      </trkpt>
      <trkpt lat="45.92843" lon="4.73378">
        <ele>172</ele>
        <time>2013-06-22T11:37:57Z</time>
      </trkpt>
      <trkpt lat="45.92845" lon="4.73361">
        <ele>171</ele>
        <time>2013-06-22T11:38:00Z</time>
      </trkpt>
      <trkpt lat="45.92847" lon="4.73343">
        <ele>171</ele>
        <time>2013-06-22T11:38:03Z</time>
      </trkpt>
      <trkpt lat="45.92848" lon="4.73325">
        <ele>171</ele>
        <time>2013-06-22T11:38:06Z</time>
      </trkpt>
      <trkpt lat="45.9285" lon="4.73303">
        <ele>171</ele>
        <time>2013-06-22T11:38:09Z</time>
      </trkpt>
      <trkpt lat="45.92853" lon="4.73279">
        <ele>171</ele>
        <time>2013-06-22T11:38:12Z</time>
      </trkpt>
      <trkpt lat="45.92857" lon="4.73255">
        <ele>171</ele>
        <time>2013-06-22T11:38:15Z</time>
      </trkpt>
      <trkpt lat="45.92861" lon="4.7323">
        <ele>171</ele>
        <time>2013-06-22T11:38:18Z</time>
      </trkpt>
      <trkpt lat="45.92863" lon="4.73205">
        <ele>171</ele>
        <time>2013-06-22T11:38:21Z</time>
      </trkpt>
      <trkpt lat="45.92866" lon="4.73182">
        <ele>171</ele>
        <time>2013-06-22T11:38:24Z</time>
      </trkpt>
      <trkpt lat="45.92869" lon="4.73158">
        <ele>171</ele>
        <time>2013-06-22T11:38:27Z</time>
      </trkpt>
      <trkpt lat="45.92871" lon="4.73135">
        <ele>171</ele>
        <time>2013-06-22T11:38:30Z</time>
      </trkpt>
      <trkpt lat="45.92875" lon="4.73108">
        <ele>172</ele>
        <time>2013-06-22T11:38:33Z</time>
      </trkpt>
      <trkpt lat="45.92882" lon="4.73083">
        <ele>172</ele>
        <time>2013-06-22T11:38:36Z</time>
      </trkpt>
      <trkpt lat="45.92893" lon="4.73063">
        <ele>172</ele>
        <time>2013-06-22T11:38:39Z</time>
      </trkpt>
      <trkpt lat="45.92904" lon="4.73045">
        <ele>172</ele>
        <time>2013-06-22T11:38:42Z</time>
      </trkpt>
      <trkpt lat="45.92919" lon="4.73031">
        <ele>172</ele>
        <time>2013-06-22T11:38:45Z</time>
      </trkpt>
      <trkpt lat="45.92933" lon="4.73015">
        <ele>171</ele>
        <time>2013-06-22T11:38:48Z</time>
      </trkpt>
      <trkpt lat="45.92951" lon="4.72991">
        <ele>171</ele>
        <time>2013-06-22T11:38:51Z</time>
      </trkpt>
      <trkpt lat="45.92968" lon="4.7297">
        <ele>171</ele>
        <time>2013-06-22T11:38:54Z</time>
      </trkpt>
      <trkpt lat="45.92981" lon="4.72956">
        <ele>171</ele>
        <time>2013-06-22T11:38:57Z</time>
      </trkpt>
      <trkpt lat="45.92993" lon="4.72942">
        <ele>171</ele>
        <time>2013-06-22T11:39:00Z</time>
      </trkpt>
      <trkpt lat="45.93006" lon="4.72926">
        <ele>170</ele>
        <time>2013-06-22T11:39:03Z</time>
      </trkpt>
      <trkpt lat="45.9302" lon="4.72911">
        <ele>171</ele>
        <time>2013-06-22T11:39:06Z</time>
      </trkpt>
      <trkpt lat="45.93032" lon="4.72894">
        <ele>172</ele>
        <time>2013-06-22T11:39:09Z</time>
      </trkpt>
      <trkpt lat="45.93045" lon="4.72878">
        <ele>172</ele>
        <time>2013-06-22T11:39:12Z</time>
      </trkpt>
      <trkpt lat="45.93056" lon="4.72864">
        <ele>172</ele>
        <time>2013-06-22T11:39:15Z</time>
      </trkpt>
      <trkpt lat="45.93066" lon="4.72852">
        <ele>172</ele>
        <time>2013-06-22T11:39:18Z</time>
      </trkpt>
      <trkpt lat="45.93078" lon="4.7284">
        <ele>173</ele>
        <time>2013-06-22T11:39:21Z</time>
      </trkpt>
      <trkpt lat="45.93091" lon="4.72822">
        <ele>172</ele>
        <time>2013-06-22T11:39:24Z</time>
      </trkpt>
      <trkpt lat="45.93106" lon="4.72805">
        <ele>171</ele>
        <time>2013-06-22T11:39:27Z</time>
      </trkpt>
      <trkpt lat="45.9312" lon="4.72788">
        <ele>171</ele>
        <time>2013-06-22T11:39:30Z</time>
      </trkpt>
      <trkpt lat="45.93134" lon="4.72771">
        <ele>171</ele>
        <time>2013-06-22T11:39:33Z</time>
      </trkpt>
      <trkpt lat="45.93146" lon="4.72755">
        <ele>170</ele>
        <time>2013-06-22T11:39:36Z</time>
      </trkpt>
      <trkpt lat="45.9316" lon="4.72739">
        <ele>170</ele>
        <time>2013-06-22T11:39:39Z</time>
      </trkpt>
      <trkpt lat="45.93173" lon="4.72723">
        <ele>170</ele>
        <time>2013-06-22T11:39:42Z</time>
      </trkpt>
      <trkpt lat="45.93187" lon="4.72707">
        <ele>169</ele>
        <time>2013-06-22T11:39:45Z</time>
      </trkpt>
      <trkpt lat="45.932" lon="4.72693">
        <ele>169</ele>
        <time>2013-06-22T11:39:48Z</time>
      </trkpt>
      <trkpt lat="45.93214" lon="4.72676">
        <ele>169</ele>
        <time>2013-06-22T11:39:51Z</time>
      </trkpt>
      <trkpt lat="45.93228" lon="4.7266">
        <ele>170</ele>
        <time>2013-06-22T11:39:54Z</time>
      </trkpt>
      <trkpt lat="45.93242" lon="4.72644">
        <ele>170</ele>
        <time>2013-06-22T11:39:57Z</time>
      </trkpt>
      <trkpt lat="45.93255" lon="4.72627">
        <ele>170</ele>
        <time>2013-06-22T11:40:00Z</time>
      </trkpt>
      <trkpt lat="45.93269" lon="4.7261">
        <ele>170</ele>
        <time>2013-06-22T11:40:03Z</time>
      </trkpt>
      <trkpt lat="45.93283" lon="4.72595">
        <ele>170</ele>
        <time>2013-06-22T11:40:06Z</time>
      </trkpt>
      <trkpt lat="45.93296" lon="4.72579">
        <ele>171</ele>
        <time>2013-06-22T11:40:09Z</time>
      </trkpt>
      <trkpt lat="45.93311" lon="4.72564">
        <ele>171</ele>
        <time>2013-06-22T11:40:12Z</time>
      </trkpt>
      <trkpt lat="45.93324" lon="4.72548">
        <ele>172</ele>
        <time>2013-06-22T11:40:15Z</time>
      </trkpt>
      <trkpt lat="45.93339" lon="4.72532">
        <ele>172</ele>
        <time>2013-06-22T11:40:18Z</time>
      </trkpt>
      <trkpt lat="45.93353" lon="4.72516">
        <ele>172</ele>
        <time>2013-06-22T11:40:21Z</time>
      </trkpt>
      <trkpt lat="45.93368" lon="4.72501">
        <ele>172</ele>
        <time>2013-06-22T11:40:24Z</time>
      </trkpt>
      <trkpt lat="45.93378" lon="4.72491">
        <ele>173</ele>
        <time>2013-06-22T11:40:27Z</time>
      </trkpt>
      <trkpt lat="45.93384" lon="4.72485">
        <ele>173</ele>
        <time>2013-06-22T11:40:30Z</time>
      </trkpt>
      <trkpt lat="45.93386" lon="4.72484">
        <ele>173</ele>
        <time>2013-06-22T11:40:33Z</time>
      </trkpt>
      <trkpt lat="45.93391" lon="4.7248">
        <ele>173</ele>
        <time>2013-06-22T11:40:36Z</time>
      </trkpt>
      <trkpt lat="45.93399" lon="4.7247">
        <ele>173</ele>
        <time>2013-06-22T11:40:39Z</time>
      </trkpt>
      <trkpt lat="45.93406" lon="4.72456">
        <ele>173</ele>
        <time>2013-06-22T11:40:42Z</time>
      </trkpt>
      <trkpt lat="45.93411" lon="4.72441">
        <ele>173</ele>
        <time>2013-06-22T11:40:45Z</time>
      </trkpt>
      <trkpt lat="45.93419" lon="4.72427">
        <ele>174</ele>
        <time>2013-06-22T11:40:48Z</time>
      </trkpt>
      <trkpt lat="45.93429" lon="4.72413">
        <ele>174</ele>
        <time>2013-06-22T11:40:51Z</time>
      </trkpt>
      <trkpt lat="45.93442" lon="4.72404">
        <ele>173</ele>
        <time>2013-06-22T11:40:54Z</time>
      </trkpt>
      <trkpt lat="45.93456" lon="4.72396">
        <ele>173</ele>
        <time>2013-06-22T11:40:57Z</time>
      </trkpt>
      <trkpt lat="45.9347" lon="4.72385">
        <ele>173</ele>
        <time>2013-06-22T11:41:00Z</time>
      </trkpt>
      <trkpt lat="45.93482" lon="4.72369">
        <ele>173</ele>
        <time>2013-06-22T11:41:03Z</time>
      </trkpt>
      <trkpt lat="45.93495" lon="4.72353">
        <ele>173</ele>
        <time>2013-06-22T11:41:06Z</time>
      </trkpt>
      <trkpt lat="45.9351" lon="4.72336">
        <ele>173</ele>
        <time>2013-06-22T11:41:09Z</time>
      </trkpt>
      <trkpt lat="45.93521" lon="4.72321">
        <ele>173</ele>
        <time>2013-06-22T11:41:12Z</time>
      </trkpt>
      <trkpt lat="45.93531" lon="4.72305">
        <ele>173</ele>
        <time>2013-06-22T11:41:15Z</time>
      </trkpt>
      <trkpt lat="45.93538" lon="4.72287">
        <ele>172</ele>
        <time>2013-06-22T11:41:18Z</time>
      </trkpt>
      <trkpt lat="45.93543" lon="4.72267">
        <ele>172</ele>
        <time>2013-06-22T11:41:21Z</time>
      </trkpt>
      <trkpt lat="45.93552" lon="4.72246">
        <ele>172</ele>
        <time>2013-06-22T11:41:24Z</time>
      </trkpt>
      <trkpt lat="45.9356" lon="4.72225">
        <ele>173</ele>
        <time>2013-06-22T11:41:27Z</time>
      </trkpt>
      <trkpt lat="45.93571" lon="4.72207">
        <ele>173</ele>
        <time>2013-06-22T11:41:30Z</time>
      </trkpt>
      <trkpt lat="45.93588" lon="4.72191">
        <ele>173</ele>
        <time>2013-06-22T11:41:33Z</time>
      </trkpt>
      <trkpt lat="45.93603" lon="4.72182">
        <ele>173</ele>
        <time>2013-06-22T11:41:36Z</time>
      </trkpt>
      <trkpt lat="45.93615" lon="4.72175">
        <ele>173</ele>
        <time>2013-06-22T11:41:39Z</time>
      </trkpt>
      <trkpt lat="45.93618" lon="4.72174">
        <ele>173</ele>
        <time>2013-06-22T11:41:42Z</time>
      </trkpt>
      <trkpt lat="45.93626" lon="4.7217">
        <ele>172</ele>
        <time>2013-06-22T11:41:45Z</time>
      </trkpt>
      <trkpt lat="45.93636" lon="4.72162">
        <ele>173</ele>
        <time>2013-06-22T11:41:48Z</time>
      </trkpt>
      <trkpt lat="45.93647" lon="4.72151">
        <ele>173</ele>
        <time>2013-06-22T11:41:51Z</time>
      </trkpt>
      <trkpt lat="45.93658" lon="4.72136">
        <ele>173</ele>
        <time>2013-06-22T11:41:54Z</time>
      </trkpt>
      <trkpt lat="45.93665" lon="4.7212">
        <ele>173</ele>
        <time>2013-06-22T11:41:57Z</time>
      </trkpt>
      <trkpt lat="45.93672" lon="4.72105">
        <ele>173</ele>
        <time>2013-06-22T11:42:00Z</time>
      </trkpt>
      <trkpt lat="45.9368" lon="4.72092">
        <ele>173</ele>
        <time>2013-06-22T11:42:03Z</time>
      </trkpt>
      <trkpt lat="45.93687" lon="4.72075">
        <ele>172</ele>
        <time>2013-06-22T11:42:06Z</time>
      </trkpt>
      <trkpt lat="45.93694" lon="4.72056">
        <ele>173</ele>
        <time>2013-06-22T11:42:09Z</time>
      </trkpt>
      <trkpt lat="45.93703" lon="4.72035">
        <ele>172</ele>
        <time>2013-06-22T11:42:12Z</time>
      </trkpt>
      <trkpt lat="45.93713" lon="4.72016">
        <ele>172</ele>
        <time>2013-06-22T11:42:15Z</time>
      </trkpt>
      <trkpt lat="45.93723" lon="4.71998">
        <ele>172</ele>
        <time>2013-06-22T11:42:18Z</time>
      </trkpt>
      <trkpt lat="45.93733" lon="4.71978">
        <ele>172</ele>
        <time>2013-06-22T11:42:21Z</time>
      </trkpt>
      <trkpt lat="45.93744" lon="4.71963">
        <ele>172</ele>
        <time>2013-06-22T11:42:24Z</time>
      </trkpt>
      <trkpt lat="45.93754" lon="4.71949">
        <ele>171</ele>
        <time>2013-06-22T11:42:27Z</time>
      </trkpt>
      <trkpt lat="45.93763" lon="4.71942">
        <ele>171</ele>
        <time>2013-06-22T11:42:30Z</time>
      </trkpt>
      <trkpt lat="45.93771" lon="4.71934">
        <ele>171</ele>
        <time>2013-06-22T11:42:33Z</time>
      </trkpt>
      <trkpt lat="45.93772" lon="4.71933">
        <ele>171</ele>
        <time>2013-06-22T11:42:37Z</time>
      </trkpt>
      <trkpt lat="45.93774" lon="4.71933">
        <ele>171</ele>
        <time>2013-06-22T11:42:49Z</time>
      </trkpt>
      <trkpt lat="45.93775" lon="4.71932">
        <ele>171</ele>
        <time>2013-06-22T11:42:58Z</time>
      </trkpt>
      <trkpt lat="45.93781" lon="4.7192">
        <ele>171</ele>
        <time>2013-06-22T11:43:01Z</time>
      </trkpt>
      <trkpt lat="45.93786" lon="4.71901">
        <ele>172</ele>
        <time>2013-06-22T11:43:04Z</time>
      </trkpt>
      <trkpt lat="45.93789" lon="4.71884">
        <ele>172</ele>
        <time>2013-06-22T11:43:07Z</time>
      </trkpt>
      <trkpt lat="45.93797" lon="4.71867">
        <ele>172</ele>
        <time>2013-06-22T11:43:10Z</time>
      </trkpt>
      <trkpt lat="45.93806" lon="4.71849">
        <ele>172</ele>
        <time>2013-06-22T11:43:13Z</time>
      </trkpt>
      <trkpt lat="45.93814" lon="4.71832">
        <ele>173</ele>
        <time>2013-06-22T11:43:16Z</time>
      </trkpt>
      <trkpt lat="45.93824" lon="4.71815">
        <ele>173</ele>
        <time>2013-06-22T11:43:19Z</time>
      </trkpt>
      <trkpt lat="45.93835" lon="4.718">
        <ele>173</ele>
        <time>2013-06-22T11:43:22Z</time>
      </trkpt>
      <trkpt lat="45.93849" lon="4.71784">
        <ele>173</ele>
        <time>2013-06-22T11:43:25Z</time>
      </trkpt>
      <trkpt lat="45.93861" lon="4.71771">
        <ele>173</ele>
        <time>2013-06-22T11:43:28Z</time>
      </trkpt>
      <trkpt lat="45.9387" lon="4.71754">
        <ele>173</ele>
        <time>2013-06-22T11:43:31Z</time>
      </trkpt>
      <trkpt lat="45.93879" lon="4.71738">
        <ele>174</ele>
        <time>2013-06-22T11:43:34Z</time>
      </trkpt>
      <trkpt lat="45.9389" lon="4.71725">
        <ele>174</ele>
        <time>2013-06-22T11:43:37Z</time>
      </trkpt>
      <trkpt lat="45.93899" lon="4.71713">
        <ele>174</ele>
        <time>2013-06-22T11:43:40Z</time>
      </trkpt>
      <trkpt lat="45.93908" lon="4.71704">
        <ele>174</ele>
        <time>2013-06-22T11:43:43Z</time>
      </trkpt>
      <trkpt lat="45.93916" lon="4.71697">
        <ele>174</ele>
        <time>2013-06-22T11:43:46Z</time>
      </trkpt>
      <trkpt lat="45.93918" lon="4.71692">
        <ele>175</ele>
        <time>2013-06-22T11:43:50Z</time>
      </trkpt>
      <trkpt lat="45.93918" lon="4.71684">
        <ele>175</ele>
        <time>2013-06-22T11:43:53Z</time>
      </trkpt>
      <trkpt lat="45.93918" lon="4.71673">
        <ele>175</ele>
        <time>2013-06-22T11:43:56Z</time>
      </trkpt>
      <trkpt lat="45.9392" lon="4.71657">
        <ele>176</ele>
        <time>2013-06-22T11:43:59Z</time>
      </trkpt>
      <trkpt lat="45.93923" lon="4.71641">
        <ele>176</ele>
        <time>2013-06-22T11:44:02Z</time>
      </trkpt>
      <trkpt lat="45.93926" lon="4.71627">
        <ele>177</ele>
        <time>2013-06-22T11:44:05Z</time>
      </trkpt>
      <trkpt lat="45.93926" lon="4.71626">
        <ele>177</ele>
        <time>2013-06-22T11:44:08Z</time>
      </trkpt>
      <trkpt lat="45.93929" lon="4.71628">
        <ele>177</ele>
        <time>2013-06-22T11:44:21Z</time>
      </trkpt>
      <trkpt lat="45.93931" lon="4.71626">
        <ele>177</ele>
        <time>2013-06-22T11:45:08Z</time>
      </trkpt>
      <trkpt lat="45.93934" lon="4.71617">
        <ele>177</ele>
        <time>2013-06-22T11:45:11Z</time>
      </trkpt>
      <trkpt lat="45.93939" lon="4.71601">
        <ele>177</ele>
        <time>2013-06-22T11:45:14Z</time>
      </trkpt>
      <trkpt lat="45.93945" lon="4.71584">
        <ele>177</ele>
        <time>2013-06-22T11:45:17Z</time>
      </trkpt>
      <trkpt lat="45.93947" lon="4.71564">
        <ele>177</ele>
        <time>2013-06-22T11:45:20Z</time>
      </trkpt>
      <trkpt lat="45.9395" lon="4.71543">
        <ele>177</ele>
        <time>2013-06-22T11:45:23Z</time>
      </trkpt>
      <trkpt lat="45.93952" lon="4.71521">
        <ele>177</ele>
        <time>2013-06-22T11:45:26Z</time>
      </trkpt>
      <trkpt lat="45.93955" lon="4.71499">
        <ele>177</ele>
        <time>2013-06-22T11:45:29Z</time>
      </trkpt>
      <trkpt lat="45.9396" lon="4.71482">
        <ele>177</ele>
        <time>2013-06-22T11:45:32Z</time>
      </trkpt>
      <trkpt lat="45.93962" lon="4.71465">
        <ele>177</ele>
        <time>2013-06-22T11:45:35Z</time>
      </trkpt>
      <trkpt lat="45.93962" lon="4.71446">
        <ele>177</ele>
        <time>2013-06-22T11:45:38Z</time>
      </trkpt>
      <trkpt lat="45.93965" lon="4.71428">
        <ele>177</ele>
        <time>2013-06-22T11:45:41Z</time>
      </trkpt>
      <trkpt lat="45.93968" lon="4.71409">
        <ele>178</ele>
        <time>2013-06-22T11:45:44Z</time>
      </trkpt>
      <trkpt lat="45.93971" lon="4.71391">
        <ele>178</ele>
        <time>2013-06-22T11:45:47Z</time>
      </trkpt>
      <trkpt lat="45.93973" lon="4.71374">
        <ele>178</ele>
        <time>2013-06-22T11:45:50Z</time>
      </trkpt>
      <trkpt lat="45.93976" lon="4.71358">
        <ele>178</ele>
        <time>2013-06-22T11:45:53Z</time>
      </trkpt>
      <trkpt lat="45.93978" lon="4.71344">
        <ele>179</ele>
        <time>2013-06-22T11:45:56Z</time>
      </trkpt>
      <trkpt lat="45.93979" lon="4.7133">
        <ele>180</ele>
        <time>2013-06-22T11:45:59Z</time>
      </trkpt>
      <trkpt lat="45.93981" lon="4.71318">
        <ele>180</ele>
        <time>2013-06-22T11:46:02Z</time>
      </trkpt>
      <trkpt lat="45.93982" lon="4.71305">
        <ele>180</ele>
        <time>2013-06-22T11:46:05Z</time>
      </trkpt>
      <trkpt lat="45.93984" lon="4.71293">
        <ele>180</ele>
        <time>2013-06-22T11:46:08Z</time>
      </trkpt>
      <trkpt lat="45.93986" lon="4.71281">
        <ele>180</ele>
        <time>2013-06-22T11:46:11Z</time>
      </trkpt>
      <trkpt lat="45.93988" lon="4.71271">
        <ele>180</ele>
        <time>2013-06-22T11:46:14Z</time>
      </trkpt>
      <trkpt lat="45.93989" lon="4.71262">
        <ele>180</ele>
        <time>2013-06-22T11:46:17Z</time>
      </trkpt>
      <trkpt lat="45.93988" lon="4.71251">
        <ele>180</ele>
        <time>2013-06-22T11:46:20Z</time>
      </trkpt>
      <trkpt lat="45.93989" lon="4.7124">
        <ele>182</ele>
        <time>2013-06-22T11:46:23Z</time>
      </trkpt>
      <trkpt lat="45.9399" lon="4.71229">
        <ele>183</ele>
        <time>2013-06-22T11:46:26Z</time>
      </trkpt>
      <trkpt lat="45.93991" lon="4.71219">
        <ele>183</ele>
        <time>2013-06-22T11:46:29Z</time>
      </trkpt>
      <trkpt lat="45.93993" lon="4.71209">
        <ele>184</ele>
        <time>2013-06-22T11:46:32Z</time>
      </trkpt>
      <trkpt lat="45.93992" lon="4.71201">
        <ele>185</ele>
        <time>2013-06-22T11:46:35Z</time>
      </trkpt>
      <trkpt lat="45.93991" lon="4.71193">
        <ele>185</ele>
        <time>2013-06-22T11:46:38Z</time>
      </trkpt>
      <trkpt lat="45.93994" lon="4.71185">
        <ele>186</ele>
        <time>2013-06-22T11:46:41Z</time>
      </trkpt>
      <trkpt lat="45.93998" lon="4.71179">
        <ele>186</ele>
        <time>2013-06-22T11:46:44Z</time>
      </trkpt>
      <trkpt lat="45.93998" lon="4.71173">
        <ele>187</ele>
        <time>2013-06-22T11:46:47Z</time>
      </trkpt>
      <trkpt lat="45.94001" lon="4.71166">
        <ele>188</ele>
        <time>2013-06-22T11:46:50Z</time>
      </trkpt>
      <trkpt lat="45.94005" lon="4.71159">
        <ele>190</ele>
        <time>2013-06-22T11:46:53Z</time>
      </trkpt>
      <trkpt lat="45.94008" lon="4.71154">
        <ele>191</ele>
        <time>2013-06-22T11:46:56Z</time>
      </trkpt>
      <trkpt lat="45.94009" lon="4.71151">
        <ele>191</ele>
        <time>2013-06-22T11:47:00Z</time>
      </trkpt>
      <trkpt lat="45.94019" lon="4.71153">
        <ele>192</ele>
        <time>2013-06-22T11:47:03Z</time>
      </trkpt>
      <trkpt lat="45.94028" lon="4.71154">
        <ele>193</ele>
        <time>2013-06-22T11:47:06Z</time>
      </trkpt>
      <trkpt lat="45.94036" lon="4.71154">
        <ele>193</ele>
        <time>2013-06-22T11:47:09Z</time>
      </trkpt>
      <trkpt lat="45.94043" lon="4.71156">
        <ele>193</ele>
        <time>2013-06-22T11:47:12Z</time>
      </trkpt>
      <trkpt lat="45.94049" lon="4.71157">
        <ele>193</ele>
        <time>2013-06-22T11:47:15Z</time>
      </trkpt>
      <trkpt lat="45.94057" lon="4.71158">
        <ele>193</ele>
        <time>2013-06-22T11:47:18Z</time>
      </trkpt>
      <trkpt lat="45.94063" lon="4.71157">
        <ele>193</ele>
        <time>2013-06-22T11:47:21Z</time>
      </trkpt>
      <trkpt lat="45.94069" lon="4.71154">
        <ele>192</ele>
        <time>2013-06-22T11:47:24Z</time>
      </trkpt>
      <trkpt lat="45.94075" lon="4.71155">
        <ele>192</ele>
        <time>2013-06-22T11:47:27Z</time>
      </trkpt>
      <trkpt lat="45.94081" lon="4.71153">
        <ele>192</ele>
        <time>2013-06-22T11:47:30Z</time>
      </trkpt>
      <trkpt lat="45.94088" lon="4.71151">
        <ele>194</ele>
        <time>2013-06-22T11:47:33Z</time>
      </trkpt>
      <trkpt lat="45.94094" lon="4.71152">
        <ele>194</ele>
        <time>2013-06-22T11:47:36Z</time>
      </trkpt>
      <trkpt lat="45.94097" lon="4.71145">
        <ele>195</ele>
        <time>2013-06-22T11:47:39Z</time>
      </trkpt>
      <trkpt lat="45.94104" lon="4.71145">
        <ele>196</ele>
        <time>2013-06-22T11:47:42Z</time>
      </trkpt>
      <trkpt lat="45.94109" lon="4.7114">
        <ele>196</ele>
        <time>2013-06-22T11:47:45Z</time>
      </trkpt>
      <trkpt lat="45.94115" lon="4.71139">
        <ele>197</ele>
        <time>2013-06-22T11:47:48Z</time>
      </trkpt>
      <trkpt lat="45.94121" lon="4.71141">
        <ele>197</ele>
        <time>2013-06-22T11:47:51Z</time>
      </trkpt>
      <trkpt lat="45.94127" lon="4.71141">
        <ele>197</ele>
        <time>2013-06-22T11:47:54Z</time>
      </trkpt>
      <trkpt lat="45.94133" lon="4.71141">
        <ele>197</ele>
        <time>2013-06-22T11:47:57Z</time>
      </trkpt>
      <trkpt lat="45.94138" lon="4.71142">
        <ele>197</ele>
        <time>2013-06-22T11:48:00Z</time>
      </trkpt>
      <trkpt lat="45.94143" lon="4.7114">
        <ele>197</ele>
        <time>2013-06-22T11:48:03Z</time>
      </trkpt>
      <trkpt lat="45.94146" lon="4.71136">
        <ele>197</ele>
        <time>2013-06-22T11:48:06Z</time>
      </trkpt>
      <trkpt lat="45.94149" lon="4.7113">
        <ele>198</ele>
        <time>2013-06-22T11:48:09Z</time>
      </trkpt>
      <trkpt lat="45.94151" lon="4.71124">
        <ele>199</ele>
        <time>2013-06-22T11:48:12Z</time>
      </trkpt>
      <trkpt lat="45.94151" lon="4.71117">
        <ele>200</ele>
        <time>2013-06-22T11:48:15Z</time>
      </trkpt>
      <trkpt lat="45.94149" lon="4.71111">
        <ele>200</ele>
        <time>2013-06-22T11:48:18Z</time>
      </trkpt>
      <trkpt lat="45.94149" lon="4.71105">
        <ele>201</ele>
        <time>2013-06-22T11:48:21Z</time>
      </trkpt>
      <trkpt lat="45.94152" lon="4.711">
        <ele>202</ele>
        <time>2013-06-22T11:48:24Z</time>
      </trkpt>
      <trkpt lat="45.94156" lon="4.71099">
        <ele>203</ele>
        <time>2013-06-22T11:48:27Z</time>
      </trkpt>
      <trkpt lat="45.9416" lon="4.711">
        <ele>203</ele>
        <time>2013-06-22T11:48:30Z</time>
      </trkpt>
      <trkpt lat="45.94163" lon="4.71097">
        <ele>204</ele>
        <time>2013-06-22T11:48:33Z</time>
      </trkpt>
      <trkpt lat="45.94166" lon="4.71102">
        <ele>203</ele>
        <time>2013-06-22T11:48:36Z</time>
      </trkpt>
      <trkpt lat="45.9417" lon="4.71105">
        <ele>204</ele>
        <time>2013-06-22T11:48:39Z</time>
      </trkpt>
      <trkpt lat="45.94175" lon="4.71102">
        <ele>205</ele>
        <time>2013-06-22T11:48:42Z</time>
      </trkpt>
      <trkpt lat="45.94178" lon="4.71101">
        <ele>205</ele>
        <time>2013-06-22T11:48:45Z</time>
      </trkpt>
      <trkpt lat="45.94181" lon="4.711">
        <ele>205</ele>
        <time>2013-06-22T11:48:48Z</time>
      </trkpt>
      <trkpt lat="45.94184" lon="4.71099">
        <ele>205</ele>
        <time>2013-06-22T11:48:51Z</time>
      </trkpt>
      <trkpt lat="45.94188" lon="4.71098">
        <ele>205</ele>
        <time>2013-06-22T11:48:55Z</time>
      </trkpt>
      <trkpt lat="45.94191" lon="4.71097">
        <ele>205</ele>
        <time>2013-06-22T11:48:58Z</time>
      </trkpt>
      <trkpt lat="45.94193" lon="4.71093">
        <ele>205</ele>
        <time>2013-06-22T11:49:01Z</time>
      </trkpt>
      <trkpt lat="45.94196" lon="4.71091">
        <ele>205</ele>
        <time>2013-06-22T11:49:04Z</time>
      </trkpt>
      <trkpt lat="45.94201" lon="4.7109">
        <ele>205</ele>
        <time>2013-06-22T11:49:08Z</time>
      </trkpt>
      <trkpt lat="45.94204" lon="4.71087">
        <ele>205</ele>
        <time>2013-06-22T11:49:11Z</time>
      </trkpt>
      <trkpt lat="45.94208" lon="4.71084">
        <ele>205</ele>
        <time>2013-06-22T11:49:14Z</time>
      </trkpt>
      <trkpt lat="45.94211" lon="4.71083">
        <ele>214</ele>
        <time>2013-06-22T11:49:17Z</time>
      </trkpt>
      <trkpt lat="45.94213" lon="4.71078">
        <ele>215</ele>
        <time>2013-06-22T11:49:20Z</time>
      </trkpt>
      <trkpt lat="45.94216" lon="4.71075">
        <ele>215</ele>
        <time>2013-06-22T11:49:23Z</time>
      </trkpt>
      <trkpt lat="45.94218" lon="4.71072">
        <ele>215</ele>
        <time>2013-06-22T11:49:26Z</time>
      </trkpt>
      <trkpt lat="45.9422" lon="4.71067">
        <ele>215</ele>
        <time>2013-06-22T11:49:30Z</time>
      </trkpt>
      <trkpt lat="45.94221" lon="4.71065">
        <ele>215</ele>
        <time>2013-06-22T11:49:33Z</time>
      </trkpt>
      <trkpt lat="45.94223" lon="4.71061">
        <ele>216</ele>
        <time>2013-06-22T11:49:36Z</time>
      </trkpt>
      <trkpt lat="45.94227" lon="4.7106">
        <ele>216</ele>
        <time>2013-06-22T11:49:39Z</time>
      </trkpt>
      <trkpt lat="45.94229" lon="4.71056">
        <ele>216</ele>
        <time>2013-06-22T11:49:42Z</time>
      </trkpt>
      <trkpt lat="45.94232" lon="4.71054">
        <ele>216</ele>
        <time>2013-06-22T11:49:45Z</time>
      </trkpt>
      <trkpt lat="45.94235" lon="4.71052">
        <ele>217</ele>
        <time>2013-06-22T11:49:49Z</time>
      </trkpt>
      <trkpt lat="45.94237" lon="4.7105">
        <ele>217</ele>
        <time>2013-06-22T11:49:53Z</time>
      </trkpt>
      <trkpt lat="45.94238" lon="4.71047">
        <ele>217</ele>
        <time>2013-06-22T11:49:56Z</time>
      </trkpt>
      <trkpt lat="45.94241" lon="4.71044">
        <ele>217</ele>
        <time>2013-06-22T11:49:59Z</time>
      </trkpt>
      <trkpt lat="45.94243" lon="4.71039">
        <ele>218</ele>
        <time>2013-06-22T11:50:02Z</time>
      </trkpt>
      <trkpt lat="45.94246" lon="4.71039">
        <ele>218</ele>
        <time>2013-06-22T11:50:05Z</time>
      </trkpt>
      <trkpt lat="45.94251" lon="4.71039">
        <ele>220</ele>
        <time>2013-06-22T11:50:08Z</time>
      </trkpt>
      <trkpt lat="45.94254" lon="4.71037">
        <ele>221</ele>
        <time>2013-06-22T11:50:11Z</time>
      </trkpt>
      <trkpt lat="45.94256" lon="4.71034">
        <ele>221</ele>
        <time>2013-06-22T11:50:15Z</time>
      </trkpt>
      <trkpt lat="45.94259" lon="4.71033">
        <ele>221</ele>
        <time>2013-06-22T11:50:18Z</time>
      </trkpt>
      <trkpt lat="45.94262" lon="4.71031">
        <ele>221</ele>
        <time>2013-06-22T11:50:21Z</time>
      </trkpt>
      <trkpt lat="45.94265" lon="4.71028">
        <ele>222</ele>
        <time>2013-06-22T11:50:24Z</time>
      </trkpt>
      <trkpt lat="45.94268" lon="4.71025">
        <ele>222</ele>
        <time>2013-06-22T11:50:27Z</time>
      </trkpt>
      <trkpt lat="45.9427" lon="4.71022">
        <ele>222</ele>
        <time>2013-06-22T11:50:30Z</time>
      </trkpt>
      <trkpt lat="45.94273" lon="4.7102">
        <ele>222</ele>
        <time>2013-06-22T11:50:33Z</time>
      </trkpt>
      <trkpt lat="45.94276" lon="4.71017">
        <ele>222</ele>
        <time>2013-06-22T11:50:37Z</time>
      </trkpt>
      <trkpt lat="45.94278" lon="4.71014">
        <ele>222</ele>
        <time>2013-06-22T11:50:40Z</time>
      </trkpt>
      <trkpt lat="45.94281" lon="4.71012">
        <ele>222</ele>
        <time>2013-06-22T11:50:43Z</time>
      </trkpt>
      <trkpt lat="45.94285" lon="4.71009">
        <ele>223</ele>
        <time>2013-06-22T11:50:46Z</time>
      </trkpt>
      <trkpt lat="45.94287" lon="4.71006">
        <ele>223</ele>
        <time>2013-06-22T11:50:49Z</time>
      </trkpt>
      <trkpt lat="45.94289" lon="4.71003">
        <ele>223</ele>
        <time>2013-06-22T11:50:52Z</time>
      </trkpt>
      <trkpt lat="45.94291" lon="4.71">
        <ele>228</ele>
        <time>2013-06-22T11:50:55Z</time>
      </trkpt>
      <trkpt lat="45.94294" lon="4.70997">
        <ele>228</ele>
        <time>2013-06-22T11:50:58Z</time>
      </trkpt>
      <trkpt lat="45.94295" lon="4.70994">
        <ele>228</ele>
        <time>2013-06-22T11:51:01Z</time>
      </trkpt>
      <trkpt lat="45.94298" lon="4.7099">
        <ele>228</ele>
        <time>2013-06-22T11:51:04Z</time>
      </trkpt>
      <trkpt lat="45.94301" lon="4.70988">
        <ele>228</ele>
        <time>2013-06-22T11:51:07Z</time>
      </trkpt>
      <trkpt lat="45.94305" lon="4.70985">
        <ele>228</ele>
        <time>2013-06-22T11:51:11Z</time>
      </trkpt>
      <trkpt lat="45.94307" lon="4.70982">
        <ele>229</ele>
        <time>2013-06-22T11:51:14Z</time>
      </trkpt>
      <trkpt lat="45.94308" lon="4.70979">
        <ele>229</ele>
        <time>2013-06-22T11:51:17Z</time>
      </trkpt>
      <trkpt lat="45.9431" lon="4.70975">
        <ele>229</ele>
        <time>2013-06-22T11:51:20Z</time>
      </trkpt>
      <trkpt lat="45.94312" lon="4.7097">
        <ele>229</ele>
        <time>2013-06-22T11:51:23Z</time>
      </trkpt>
      <trkpt lat="45.94315" lon="4.70965">
        <ele>229</ele>
        <time>2013-06-22T11:51:26Z</time>
      </trkpt>
      <trkpt lat="45.94316" lon="4.7096">
        <ele>229</ele>
        <time>2013-06-22T11:51:29Z</time>
      </trkpt>
      <trkpt lat="45.94318" lon="4.70957">
        <ele>229</ele>
        <time>2013-06-22T11:51:32Z</time>
      </trkpt>
      <trkpt lat="45.94321" lon="4.70952">
        <ele>230</ele>
        <time>2013-06-22T11:51:35Z</time>
      </trkpt>
      <trkpt lat="45.94322" lon="4.70947">
        <ele>230</ele>
        <time>2013-06-22T11:51:38Z</time>
      </trkpt>
      <trkpt lat="45.94323" lon="4.70942">
        <ele>230</ele>
        <time>2013-06-22T11:51:41Z</time>
      </trkpt>
      <trkpt lat="45.94324" lon="4.70936">
        <ele>230</ele>
        <time>2013-06-22T11:51:44Z</time>
      </trkpt>
      <trkpt lat="45.94324" lon="4.70931">
        <ele>231</ele>
        <time>2013-06-22T11:51:47Z</time>
      </trkpt>
      <trkpt lat="45.94325" lon="4.70926">
        <ele>231</ele>
        <time>2013-06-22T11:51:50Z</time>
      </trkpt>
      <trkpt lat="45.94326" lon="4.70923">
        <ele>231</ele>
        <time>2013-06-22T11:51:53Z</time>
      </trkpt>
      <trkpt lat="45.94331" lon="4.70925">
        <ele>231</ele>
        <time>2013-06-22T11:51:56Z</time>
      </trkpt>
      <trkpt lat="45.94337" lon="4.70933">
        <ele>230</ele>
        <time>2013-06-22T11:51:59Z</time>
      </trkpt>
      <trkpt lat="45.94348" lon="4.70939">
        <ele>229</ele>
        <time>2013-06-22T11:52:02Z</time>
      </trkpt>
      <trkpt lat="45.94361" lon="4.70947">
        <ele>228</ele>
        <time>2013-06-22T11:52:05Z</time>
      </trkpt>
      <trkpt lat="45.94374" lon="4.70954">
        <ele>227</ele>
        <time>2013-06-22T11:52:08Z</time>
      </trkpt>
      <trkpt lat="45.9439" lon="4.70951">
        <ele>227</ele>
        <time>2013-06-22T11:52:11Z</time>
      </trkpt>
      <trkpt lat="45.94404" lon="4.7095">
        <ele>227</ele>
        <time>2013-06-22T11:52:14Z</time>
      </trkpt>
      <trkpt lat="45.94421" lon="4.70953">
        <ele>223</ele>
        <time>2013-06-22T11:52:17Z</time>
      </trkpt>
      <trkpt lat="45.94438" lon="4.70956">
        <ele>223</ele>
        <time>2013-06-22T11:52:20Z</time>
      </trkpt>
      <trkpt lat="45.94454" lon="4.70958">
        <ele>222</ele>
        <time>2013-06-22T11:52:23Z</time>
      </trkpt>
      <trkpt lat="45.94467" lon="4.70952">
        <ele>222</ele>
        <time>2013-06-22T11:52:26Z</time>
      </trkpt>
      <trkpt lat="45.94476" lon="4.70939">
        <ele>221</ele>
        <time>2013-06-22T11:52:29Z</time>
      </trkpt>
      <trkpt lat="45.94479" lon="4.70928">
        <ele>221</ele>
        <time>2013-06-22T11:52:32Z</time>
      </trkpt>
      <trkpt lat="45.9448" lon="4.70926">
        <ele>221</ele>
        <time>2013-06-22T11:52:37Z</time>
      </trkpt>
      <trkpt lat="45.9448" lon="4.70924">
        <ele>221</ele>
        <time>2013-06-22T11:52:41Z</time>
      </trkpt>
      <trkpt lat="45.94482" lon="4.70916">
        <ele>222</ele>
        <time>2013-06-22T11:52:44Z</time>
      </trkpt>
      <trkpt lat="45.94485" lon="4.70908">
        <ele>222</ele>
        <time>2013-06-22T11:52:47Z</time>
      </trkpt>
      <trkpt lat="45.9449" lon="4.70897">
        <ele>222</ele>
        <time>2013-06-22T11:52:50Z</time>
      </trkpt>
      <trkpt lat="45.94495" lon="4.70883">
        <ele>222</ele>
        <time>2013-06-22T11:52:53Z</time>
      </trkpt>
      <trkpt lat="45.94501" lon="4.70871">
        <ele>220</ele>
        <time>2013-06-22T11:52:56Z</time>
      </trkpt>
      <trkpt lat="45.94511" lon="4.70865">
        <ele>220</ele>
        <time>2013-06-22T11:52:59Z</time>
      </trkpt>
      <trkpt lat="45.94524" lon="4.70859">
        <ele>220</ele>
        <time>2013-06-22T11:53:02Z</time>
      </trkpt>
      <trkpt lat="45.94536" lon="4.70854">
        <ele>220</ele>
        <time>2013-06-22T11:53:05Z</time>
      </trkpt>
      <trkpt lat="45.9455" lon="4.70851">
        <ele>220</ele>
        <time>2013-06-22T11:53:08Z</time>
      </trkpt>
      <trkpt lat="45.94562" lon="4.70846">
        <ele>220</ele>
        <time>2013-06-22T11:53:11Z</time>
      </trkpt>
      <trkpt lat="45.94571" lon="4.70839">
        <ele>220</ele>
        <time>2013-06-22T11:53:14Z</time>
      </trkpt>
      <trkpt lat="45.94572" lon="4.70832">
        <ele>221</ele>
        <time>2013-06-22T11:53:17Z</time>
      </trkpt>
      <trkpt lat="45.94576" lon="4.70824">
        <ele>221</ele>
        <time>2013-06-22T11:53:20Z</time>
      </trkpt>
      <trkpt lat="45.94583" lon="4.70821">
        <ele>221</ele>
        <time>2013-06-22T11:53:23Z</time>
      </trkpt>
      <trkpt lat="45.94587" lon="4.70819">
        <ele>221</ele>
        <time>2013-06-22T11:53:26Z</time>
      </trkpt>
      <trkpt lat="45.94585" lon="4.70815">
        <ele>221</ele>
        <time>2013-06-22T11:53:29Z</time>
      </trkpt>
      <trkpt lat="45.94589" lon="4.70811">
        <ele>222</ele>
        <time>2013-06-22T11:53:32Z</time>
      </trkpt>
      <trkpt lat="45.94594" lon="4.70808">
        <ele>222</ele>
        <time>2013-06-22T11:53:35Z</time>
      </trkpt>
      <trkpt lat="45.946" lon="4.70804">
        <ele>222</ele>
        <time>2013-06-22T11:53:38Z</time>
      </trkpt>
      <trkpt lat="45.94602" lon="4.70801">
        <ele>222</ele>
        <time>2013-06-22T11:53:41Z</time>
      </trkpt>
      <trkpt lat="45.94605" lon="4.70798">
        <ele>222</ele>
        <time>2013-06-22T11:53:44Z</time>
      </trkpt>
      <trkpt lat="45.94611" lon="4.70794">
        <ele>222</ele>
        <time>2013-06-22T11:53:47Z</time>
      </trkpt>
      <trkpt lat="45.94612" lon="4.70791">
        <ele>222</ele>
        <time>2013-06-22T11:53:50Z</time>
      </trkpt>
      <trkpt lat="45.9461" lon="4.70783">
        <ele>223</ele>
        <time>2013-06-22T11:53:53Z</time>
      </trkpt>
      <trkpt lat="45.94607" lon="4.70778">
        <ele>223</ele>
        <time>2013-06-22T11:53:56Z</time>
      </trkpt>
      <trkpt lat="45.94607" lon="4.70773">
        <ele>223</ele>
        <time>2013-06-22T11:53:59Z</time>
      </trkpt>
      <trkpt lat="45.94606" lon="4.70766">
        <ele>224</ele>
        <time>2013-06-22T11:54:02Z</time>
      </trkpt>
      <trkpt lat="45.946" lon="4.70759">
        <ele>224</ele>
        <time>2013-06-22T11:54:05Z</time>
      </trkpt>
      <trkpt lat="45.94596" lon="4.70753">
        <ele>225</ele>
        <time>2013-06-22T11:54:08Z</time>
      </trkpt>
      <trkpt lat="45.94595" lon="4.70747">
        <ele>227</ele>
        <time>2013-06-22T11:54:11Z</time>
      </trkpt>
      <trkpt lat="45.94594" lon="4.70741">
        <ele>227</ele>
        <time>2013-06-22T11:54:14Z</time>
      </trkpt>
      <trkpt lat="45.94594" lon="4.70734">
        <ele>227</ele>
        <time>2013-06-22T11:54:17Z</time>
      </trkpt>
      <trkpt lat="45.94592" lon="4.70729">
        <ele>227</ele>
        <time>2013-06-22T11:54:20Z</time>
      </trkpt>
      <trkpt lat="45.94591" lon="4.70722">
        <ele>227</ele>
        <time>2013-06-22T11:54:23Z</time>
      </trkpt>
      <trkpt lat="45.9459" lon="4.70716">
        <ele>227</ele>
        <time>2013-06-22T11:54:26Z</time>
      </trkpt>
      <trkpt lat="45.94587" lon="4.7071">
        <ele>227</ele>
        <time>2013-06-22T11:54:29Z</time>
      </trkpt>
      <trkpt lat="45.94587" lon="4.70704">
        <ele>227</ele>
        <time>2013-06-22T11:54:32Z</time>
      </trkpt>
      <trkpt lat="45.94586" lon="4.70697">
        <ele>228</ele>
        <time>2013-06-22T11:54:35Z</time>
      </trkpt>
      <trkpt lat="45.94585" lon="4.70691">
        <ele>228</ele>
        <time>2013-06-22T11:54:38Z</time>
      </trkpt>
      <trkpt lat="45.94583" lon="4.70684">
        <ele>231</ele>
        <time>2013-06-22T11:54:41Z</time>
      </trkpt>
      <trkpt lat="45.94582" lon="4.7068">
        <ele>231</ele>
        <time>2013-06-22T11:54:44Z</time>
      </trkpt>
      <trkpt lat="45.94583" lon="4.70674">
        <ele>231</ele>
        <time>2013-06-22T11:54:47Z</time>
      </trkpt>
      <trkpt lat="45.9458" lon="4.70668">
        <ele>232</ele>
        <time>2013-06-22T11:54:50Z</time>
      </trkpt>
      <trkpt lat="45.94578" lon="4.70662">
        <ele>233</ele>
        <time>2013-06-22T11:54:53Z</time>
      </trkpt>
      <trkpt lat="45.94575" lon="4.70656">
        <ele>233</ele>
        <time>2013-06-22T11:54:56Z</time>
      </trkpt>
      <trkpt lat="45.94572" lon="4.7065">
        <ele>234</ele>
        <time>2013-06-22T11:54:59Z</time>
      </trkpt>
      <trkpt lat="45.94571" lon="4.70644">
        <ele>234</ele>
        <time>2013-06-22T11:55:02Z</time>
      </trkpt>
      <trkpt lat="45.94568" lon="4.70639">
        <ele>234</ele>
        <time>2013-06-22T11:55:05Z</time>
      </trkpt>
      <trkpt lat="45.94566" lon="4.70634">
        <ele>235</ele>
        <time>2013-06-22T11:55:08Z</time>
      </trkpt>
      <trkpt lat="45.94565" lon="4.70627">
        <ele>235</ele>
        <time>2013-06-22T11:55:11Z</time>
      </trkpt>
      <trkpt lat="45.94563" lon="4.70622">
        <ele>235</ele>
        <time>2013-06-22T11:55:14Z</time>
      </trkpt>
      <trkpt lat="45.94561" lon="4.70616">
        <ele>235</ele>
        <time>2013-06-22T11:55:17Z</time>
      </trkpt>
      <trkpt lat="45.94559" lon="4.7061">
        <ele>235</ele>
        <time>2013-06-22T11:55:20Z</time>
      </trkpt>
      <trkpt lat="45.94558" lon="4.70606">
        <ele>235</ele>
        <time>2013-06-22T11:55:23Z</time>
      </trkpt>
      <trkpt lat="45.94555" lon="4.70602">
        <ele>236</ele>
        <time>2013-06-22T11:55:26Z</time>
      </trkpt>
      <trkpt lat="45.94553" lon="4.70596">
        <ele>236</ele>
        <time>2013-06-22T11:55:29Z</time>
      </trkpt>
      <trkpt lat="45.94553" lon="4.70589">
        <ele>236</ele>
        <time>2013-06-22T11:55:32Z</time>
      </trkpt>
      <trkpt lat="45.94551" lon="4.70584">
        <ele>236</ele>
        <time>2013-06-22T11:55:35Z</time>
      </trkpt>
      <trkpt lat="45.94547" lon="4.70581">
        <ele>239</ele>
        <time>2013-06-22T11:55:38Z</time>
      </trkpt>
      <trkpt lat="45.94544" lon="4.70576">
        <ele>240</ele>
        <time>2013-06-22T11:55:41Z</time>
      </trkpt>
      <trkpt lat="45.94539" lon="4.70571">
        <ele>240</ele>
        <time>2013-06-22T11:55:44Z</time>
      </trkpt>
      <trkpt lat="45.94536" lon="4.70566">
        <ele>240</ele>
        <time>2013-06-22T11:55:47Z</time>
      </trkpt>
      <trkpt lat="45.94532" lon="4.70561">
        <ele>241</ele>
        <time>2013-06-22T11:55:50Z</time>
      </trkpt>
      <trkpt lat="45.94529" lon="4.70557">
        <ele>241</ele>
        <time>2013-06-22T11:55:53Z</time>
      </trkpt>
      <trkpt lat="45.94526" lon="4.70552">
        <ele>241</ele>
        <time>2013-06-22T11:55:56Z</time>
      </trkpt>
      <trkpt lat="45.94523" lon="4.70547">
        <ele>242</ele>
        <time>2013-06-22T11:55:59Z</time>
      </trkpt>
      <trkpt lat="45.94522" lon="4.70542">
        <ele>242</ele>
        <time>2013-06-22T11:56:02Z</time>
      </trkpt>
      <trkpt lat="45.94521" lon="4.70538">
        <ele>242</ele>
        <time>2013-06-22T11:56:05Z</time>
      </trkpt>
      <trkpt lat="45.94517" lon="4.70532">
        <ele>242</ele>
        <time>2013-06-22T11:56:08Z</time>
      </trkpt>
      <trkpt lat="45.94515" lon="4.70527">
        <ele>243</ele>
        <time>2013-06-22T11:56:11Z</time>
      </trkpt>
      <trkpt lat="45.94513" lon="4.70521">
        <ele>244</ele>
        <time>2013-06-22T11:56:14Z</time>
      </trkpt>
      <trkpt lat="45.9451" lon="4.70517">
        <ele>244</ele>
        <time>2013-06-22T11:56:17Z</time>
      </trkpt>
      <trkpt lat="45.94507" lon="4.70512">
        <ele>245</ele>
        <time>2013-06-22T11:56:20Z</time>
      </trkpt>
      <trkpt lat="45.94506" lon="4.70506">
        <ele>247</ele>
        <time>2013-06-22T11:56:23Z</time>
      </trkpt>
      <trkpt lat="45.94503" lon="4.705">
        <ele>248</ele>
        <time>2013-06-22T11:56:26Z</time>
      </trkpt>
      <trkpt lat="45.94501" lon="4.70493">
        <ele>248</ele>
        <time>2013-06-22T11:56:29Z</time>
      </trkpt>
      <trkpt lat="45.94498" lon="4.70488">
        <ele>250</ele>
        <time>2013-06-22T11:56:32Z</time>
      </trkpt>
      <trkpt lat="45.94496" lon="4.70482">
        <ele>250</ele>
        <time>2013-06-22T11:56:35Z</time>
      </trkpt>
      <trkpt lat="45.94493" lon="4.70476">
        <ele>251</ele>
        <time>2013-06-22T11:56:38Z</time>
      </trkpt>
      <trkpt lat="45.94489" lon="4.70471">
        <ele>251</ele>
        <time>2013-06-22T11:56:41Z</time>
      </trkpt>
      <trkpt lat="45.94486" lon="4.70466">
        <ele>251</ele>
        <time>2013-06-22T11:56:44Z</time>
      </trkpt>
      <trkpt lat="45.94484" lon="4.7046">
        <ele>251</ele>
        <time>2013-06-22T11:56:47Z</time>
      </trkpt>
      <trkpt lat="45.9448" lon="4.70453">
        <ele>252</ele>
        <time>2013-06-22T11:56:50Z</time>
      </trkpt>
      <trkpt lat="45.94476" lon="4.70447">
        <ele>252</ele>
        <time>2013-06-22T11:56:53Z</time>
      </trkpt>
      <trkpt lat="45.94473" lon="4.70441">
        <ele>252</ele>
        <time>2013-06-22T11:56:56Z</time>
      </trkpt>
      <trkpt lat="45.9447" lon="4.70433">
        <ele>252</ele>
        <time>2013-06-22T11:56:59Z</time>
      </trkpt>
      <trkpt lat="45.94466" lon="4.70426">
        <ele>252</ele>
        <time>2013-06-22T11:57:02Z</time>
      </trkpt>
      <trkpt lat="45.94463" lon="4.70419">
        <ele>252</ele>
        <time>2013-06-22T11:57:05Z</time>
      </trkpt>
      <trkpt lat="45.94459" lon="4.70411">
        <ele>254</ele>
        <time>2013-06-22T11:57:08Z</time>
      </trkpt>
      <trkpt lat="45.94455" lon="4.70404">
        <ele>254</ele>
        <time>2013-06-22T11:57:11Z</time>
      </trkpt>
      <trkpt lat="45.94452" lon="4.70394">
        <ele>255</ele>
        <time>2013-06-22T11:57:14Z</time>
      </trkpt>
      <trkpt lat="45.94448" lon="4.70386">
        <ele>255</ele>
        <time>2013-06-22T11:57:17Z</time>
      </trkpt>
      <trkpt lat="45.94446" lon="4.7038">
        <ele>255</ele>
        <time>2013-06-22T11:57:20Z</time>
      </trkpt>
      <trkpt lat="45.94442" lon="4.70372">
        <ele>255</ele>
        <time>2013-06-22T11:57:23Z</time>
      </trkpt>
      <trkpt lat="45.94437" lon="4.70367">
        <ele>256</ele>
        <time>2013-06-22T11:57:26Z</time>
      </trkpt>
      <trkpt lat="45.94434" lon="4.70358">
        <ele>256</ele>
        <time>2013-06-22T11:57:29Z</time>
      </trkpt>
      <trkpt lat="45.94431" lon="4.7035">
        <ele>257</ele>
        <time>2013-06-22T11:57:32Z</time>
      </trkpt>
      <trkpt lat="45.94428" lon="4.70341">
        <ele>258</ele>
        <time>2013-06-22T11:57:35Z</time>
      </trkpt>
      <trkpt lat="45.94428" lon="4.70334">
        <ele>258</ele>
        <time>2013-06-22T11:57:38Z</time>
      </trkpt>
      <trkpt lat="45.9443" lon="4.70325">
        <ele>258</ele>
        <time>2013-06-22T11:57:41Z</time>
      </trkpt>
      <trkpt lat="45.94435" lon="4.70318">
        <ele>257</ele>
        <time>2013-06-22T11:57:44Z</time>
      </trkpt>
      <trkpt lat="45.94443" lon="4.70307">
        <ele>256</ele>
        <time>2013-06-22T11:57:47Z</time>
      </trkpt>
      <trkpt lat="45.94449" lon="4.70294">
        <ele>256</ele>
        <time>2013-06-22T11:57:50Z</time>
      </trkpt>
      <trkpt lat="45.9445" lon="4.7028">
        <ele>256</ele>
        <time>2013-06-22T11:57:53Z</time>
      </trkpt>
      <trkpt lat="45.94447" lon="4.70269">
        <ele>256</ele>
        <time>2013-06-22T11:57:56Z</time>
      </trkpt>
      <trkpt lat="45.94446" lon="4.70262">
        <ele>256</ele>
        <time>2013-06-22T11:57:59Z</time>
      </trkpt>
      <trkpt lat="45.94444" lon="4.70255">
        <ele>256</ele>
        <time>2013-06-22T11:58:02Z</time>
      </trkpt>
      <trkpt lat="45.94443" lon="4.70246">
        <ele>257</ele>
        <time>2013-06-22T11:58:05Z</time>
      </trkpt>
      <trkpt lat="45.9444" lon="4.70235">
        <ele>257</ele>
        <time>2013-06-22T11:58:08Z</time>
      </trkpt>
      <trkpt lat="45.9444" lon="4.70223">
        <ele>258</ele>
        <time>2013-06-22T11:58:11Z</time>
      </trkpt>
      <trkpt lat="45.9444" lon="4.70209">
        <ele>258</ele>
        <time>2013-06-22T11:58:14Z</time>
      </trkpt>
      <trkpt lat="45.94442" lon="4.70194">
        <ele>258</ele>
        <time>2013-06-22T11:58:17Z</time>
      </trkpt>
      <trkpt lat="45.94446" lon="4.70179">
        <ele>258</ele>
        <time>2013-06-22T11:58:20Z</time>
      </trkpt>
      <trkpt lat="45.94449" lon="4.70162">
        <ele>260</ele>
        <time>2013-06-22T11:58:23Z</time>
      </trkpt>
      <trkpt lat="45.94452" lon="4.70146">
        <ele>260</ele>
        <time>2013-06-22T11:58:26Z</time>
      </trkpt>
      <trkpt lat="45.94454" lon="4.7013">
        <ele>260</ele>
        <time>2013-06-22T11:58:29Z</time>
      </trkpt>
      <trkpt lat="45.9446" lon="4.70113">
        <ele>260</ele>
        <time>2013-06-22T11:58:32Z</time>
      </trkpt>
      <trkpt lat="45.94462" lon="4.70096">
        <ele>260</ele>
        <time>2013-06-22T11:58:35Z</time>
      </trkpt>
      <trkpt lat="45.94465" lon="4.70079">
        <ele>263</ele>
        <time>2013-06-22T11:58:38Z</time>
      </trkpt>
      <trkpt lat="45.94469" lon="4.70062">
        <ele>263</ele>
        <time>2013-06-22T11:58:41Z</time>
      </trkpt>
      <trkpt lat="45.94474" lon="4.70044">
        <ele>263</ele>
        <time>2013-06-22T11:58:44Z</time>
      </trkpt>
      <trkpt lat="45.94477" lon="4.70026">
        <ele>264</ele>
        <time>2013-06-22T11:58:47Z</time>
      </trkpt>
      <trkpt lat="45.94479" lon="4.70007">
        <ele>264</ele>
        <time>2013-06-22T11:58:50Z</time>
      </trkpt>
      <trkpt lat="45.94481" lon="4.69989">
        <ele>266</ele>
        <time>2013-06-22T11:58:53Z</time>
      </trkpt>
      <trkpt lat="45.94482" lon="4.69973">
        <ele>267</ele>
        <time>2013-06-22T11:58:56Z</time>
      </trkpt>
      <trkpt lat="45.94484" lon="4.69958">
        <ele>267</ele>
        <time>2013-06-22T11:58:59Z</time>
      </trkpt>
      <trkpt lat="45.94486" lon="4.69944">
        <ele>267</ele>
        <time>2013-06-22T11:59:02Z</time>
      </trkpt>
      <trkpt lat="45.94489" lon="4.69932">
        <ele>267</ele>
        <time>2013-06-22T11:59:05Z</time>
      </trkpt>
      <trkpt lat="45.94494" lon="4.69921">
        <ele>267</ele>
        <time>2013-06-22T11:59:08Z</time>
      </trkpt>
      <trkpt lat="45.945" lon="4.69913">
        <ele>267</ele>
        <time>2013-06-22T11:59:11Z</time>
      </trkpt>
      <trkpt lat="45.94506" lon="4.6991">
        <ele>269</ele>
        <time>2013-06-22T11:59:14Z</time>
      </trkpt>
      <trkpt lat="45.94513" lon="4.69908">
        <ele>270</ele>
        <time>2013-06-22T11:59:17Z</time>
      </trkpt>
      <trkpt lat="45.9452" lon="4.69906">
        <ele>272</ele>
        <time>2013-06-22T11:59:20Z</time>
      </trkpt>
      <trkpt lat="45.94528" lon="4.69906">
        <ele>272</ele>
        <time>2013-06-22T11:59:23Z</time>
      </trkpt>
      <trkpt lat="45.94535" lon="4.69907">
        <ele>273</ele>
        <time>2013-06-22T11:59:26Z</time>
      </trkpt>
      <trkpt lat="45.94541" lon="4.69907">
        <ele>274</ele>
        <time>2013-06-22T11:59:29Z</time>
      </trkpt>
      <trkpt lat="45.94549" lon="4.69905">
        <ele>275</ele>
        <time>2013-06-22T11:59:32Z</time>
      </trkpt>
      <trkpt lat="45.94555" lon="4.69901">
        <ele>275</ele>
        <time>2013-06-22T11:59:35Z</time>
      </trkpt>
      <trkpt lat="45.9456" lon="4.69899">
        <ele>275</ele>
        <time>2013-06-22T11:59:38Z</time>
      </trkpt>
      <trkpt lat="45.94565" lon="4.69895">
        <ele>276</ele>
        <time>2013-06-22T11:59:41Z</time>
      </trkpt>
      <trkpt lat="45.94566" lon="4.69892">
        <ele>276</ele>
        <time>2013-06-22T11:59:44Z</time>
      </trkpt>
      <trkpt lat="45.94568" lon="4.6989">
        <ele>276</ele>
        <time>2013-06-22T11:59:48Z</time>
      </trkpt>
      <trkpt lat="45.94571" lon="4.69887">
        <ele>276</ele>
        <time>2013-06-22T11:59:52Z</time>
      </trkpt>
      <trkpt lat="45.94574" lon="4.69884">
        <ele>276</ele>
        <time>2013-06-22T11:59:55Z</time>
      </trkpt>
      <trkpt lat="45.94576" lon="4.69881">
        <ele>276</ele>
        <time>2013-06-22T11:59:58Z</time>
      </trkpt>
      <trkpt lat="45.94579" lon="4.69878">
        <ele>276</ele>
        <time>2013-06-22T12:00:02Z</time>
      </trkpt>
      <trkpt lat="45.94583" lon="4.69875">
        <ele>276</ele>
        <time>2013-06-22T12:00:05Z</time>
      </trkpt>
      <trkpt lat="45.94588" lon="4.6987">
        <ele>281</ele>
        <time>2013-06-22T12:00:08Z</time>
      </trkpt>
      <trkpt lat="45.9459" lon="4.69862">
        <ele>281</ele>
        <time>2013-06-22T12:00:11Z</time>
      </trkpt>
      <trkpt lat="45.94592" lon="4.69856">
        <ele>281</ele>
        <time>2013-06-22T12:00:14Z</time>
      </trkpt>
      <trkpt lat="45.94593" lon="4.69848">
        <ele>281</ele>
        <time>2013-06-22T12:00:17Z</time>
      </trkpt>
      <trkpt lat="45.94594" lon="4.69841">
        <ele>280</ele>
        <time>2013-06-22T12:00:20Z</time>
      </trkpt>
      <trkpt lat="45.94597" lon="4.69835">
        <ele>281</ele>
        <time>2013-06-22T12:00:23Z</time>
      </trkpt>
      <trkpt lat="45.94598" lon="4.6983">
        <ele>281</ele>
        <time>2013-06-22T12:00:26Z</time>
      </trkpt>
      <trkpt lat="45.94599" lon="4.69824">
        <ele>281</ele>
        <time>2013-06-22T12:00:29Z</time>
      </trkpt>
      <trkpt lat="45.94598" lon="4.69818">
        <ele>281</ele>
        <time>2013-06-22T12:00:32Z</time>
      </trkpt>
      <trkpt lat="45.94597" lon="4.69811">
        <ele>281</ele>
        <time>2013-06-22T12:00:35Z</time>
      </trkpt>
      <trkpt lat="45.94597" lon="4.69805">
        <ele>282</ele>
        <time>2013-06-22T12:00:38Z</time>
      </trkpt>
      <trkpt lat="45.94598" lon="4.69799">
        <ele>282</ele>
        <time>2013-06-22T12:00:41Z</time>
      </trkpt>
      <trkpt lat="45.946" lon="4.69792">
        <ele>282</ele>
        <time>2013-06-22T12:00:44Z</time>
      </trkpt>
      <trkpt lat="45.946" lon="4.69786">
        <ele>282</ele>
        <time>2013-06-22T12:00:47Z</time>
      </trkpt>
      <trkpt lat="45.94602" lon="4.69779">
        <ele>282</ele>
        <time>2013-06-22T12:00:50Z</time>
      </trkpt>
      <trkpt lat="45.94602" lon="4.69773">
        <ele>282</ele>
        <time>2013-06-22T12:00:53Z</time>
      </trkpt>
      <trkpt lat="45.94604" lon="4.69767">
        <ele>282</ele>
        <time>2013-06-22T12:00:56Z</time>
      </trkpt>
      <trkpt lat="45.94603" lon="4.69761">
        <ele>282</ele>
        <time>2013-06-22T12:00:59Z</time>
      </trkpt>
      <trkpt lat="45.94602" lon="4.69754">
        <ele>282</ele>
        <time>2013-06-22T12:01:02Z</time>
      </trkpt>
      <trkpt lat="45.94603" lon="4.69748">
        <ele>285</ele>
        <time>2013-06-22T12:01:05Z</time>
      </trkpt>
      <trkpt lat="45.94604" lon="4.69742">
        <ele>285</ele>
        <time>2013-06-22T12:01:08Z</time>
      </trkpt>
      <trkpt lat="45.94603" lon="4.69736">
        <ele>285</ele>
        <time>2013-06-22T12:01:11Z</time>
      </trkpt>
      <trkpt lat="45.94603" lon="4.6973">
        <ele>286</ele>
        <time>2013-06-22T12:01:14Z</time>
      </trkpt>
      <trkpt lat="45.94604" lon="4.69725">
        <ele>286</ele>
        <time>2013-06-22T12:01:17Z</time>
      </trkpt>
      <trkpt lat="45.94605" lon="4.6972">
        <ele>286</ele>
        <time>2013-06-22T12:01:20Z</time>
      </trkpt>
      <trkpt lat="45.94606" lon="4.69715">
        <ele>287</ele>
        <time>2013-06-22T12:01:23Z</time>
      </trkpt>
      <trkpt lat="45.94607" lon="4.69711">
        <ele>287</ele>
        <time>2013-06-22T12:01:26Z</time>
      </trkpt>
      <trkpt lat="45.94608" lon="4.69706">
        <ele>287</ele>
        <time>2013-06-22T12:01:29Z</time>
      </trkpt>
      <trkpt lat="45.94608" lon="4.69701">
        <ele>288</ele>
        <time>2013-06-22T12:01:32Z</time>
      </trkpt>
      <trkpt lat="45.94608" lon="4.69697">
        <ele>288</ele>
        <time>2013-06-22T12:01:35Z</time>
      </trkpt>
      <trkpt lat="45.9461" lon="4.69693">
        <ele>288</ele>
        <time>2013-06-22T12:01:39Z</time>
      </trkpt>
      <trkpt lat="45.9461" lon="4.69689">
        <ele>288</ele>
        <time>2013-06-22T12:01:42Z</time>
      </trkpt>
      <trkpt lat="45.94611" lon="4.69685">
        <ele>288</ele>
        <time>2013-06-22T12:01:45Z</time>
      </trkpt>
      <trkpt lat="45.94611" lon="4.69681">
        <ele>288</ele>
        <time>2013-06-22T12:01:48Z</time>
      </trkpt>
      <trkpt lat="45.94611" lon="4.69677">
        <ele>289</ele>
        <time>2013-06-22T12:01:51Z</time>
      </trkpt>
      <trkpt lat="45.94612" lon="4.69672">
        <ele>289</ele>
        <time>2013-06-22T12:01:54Z</time>
      </trkpt>
      <trkpt lat="45.94612" lon="4.69668">
        <ele>289</ele>
        <time>2013-06-22T12:01:58Z</time>
      </trkpt>
      <trkpt lat="45.9461" lon="4.69664">
        <ele>294</ele>
        <time>2013-06-22T12:02:01Z</time>
      </trkpt>
      <trkpt lat="45.94608" lon="4.6966">
        <ele>294</ele>
        <time>2013-06-22T12:02:04Z</time>
      </trkpt>
      <trkpt lat="45.94607" lon="4.69654">
        <ele>294</ele>
        <time>2013-06-22T12:02:07Z</time>
      </trkpt>
      <trkpt lat="45.94607" lon="4.69649">
        <ele>294</ele>
        <time>2013-06-22T12:02:10Z</time>
      </trkpt>
      <trkpt lat="45.94607" lon="4.69644">
        <ele>294</ele>
        <time>2013-06-22T12:02:13Z</time>
      </trkpt>
      <trkpt lat="45.94608" lon="4.6964">
        <ele>295</ele>
        <time>2013-06-22T12:02:16Z</time>
      </trkpt>
      <trkpt lat="45.94609" lon="4.69634">
        <ele>295</ele>
        <time>2013-06-22T12:02:20Z</time>
      </trkpt>
      <trkpt lat="45.94611" lon="4.69629">
        <ele>295</ele>
        <time>2013-06-22T12:02:24Z</time>
      </trkpt>
      <trkpt lat="45.94611" lon="4.69623">
        <ele>296</ele>
        <time>2013-06-22T12:02:28Z</time>
      </trkpt>
      <trkpt lat="45.94612" lon="4.69619">
        <ele>296</ele>
        <time>2013-06-22T12:02:31Z</time>
      </trkpt>
      <trkpt lat="45.94613" lon="4.69615">
        <ele>296</ele>
        <time>2013-06-22T12:02:34Z</time>
      </trkpt>
      <trkpt lat="45.94614" lon="4.69611">
        <ele>296</ele>
        <time>2013-06-22T12:02:37Z</time>
      </trkpt>
      <trkpt lat="45.94615" lon="4.69606">
        <ele>297</ele>
        <time>2013-06-22T12:02:41Z</time>
      </trkpt>
      <trkpt lat="45.94615" lon="4.69602">
        <ele>297</ele>
        <time>2013-06-22T12:02:44Z</time>
      </trkpt>
      <trkpt lat="45.94616" lon="4.69598">
        <ele>297</ele>
        <time>2013-06-22T12:02:47Z</time>
      </trkpt>
      <trkpt lat="45.94617" lon="4.69593">
        <ele>297</ele>
        <time>2013-06-22T12:02:50Z</time>
      </trkpt>
      <trkpt lat="45.94617" lon="4.6959">
        <ele>297</ele>
        <time>2013-06-22T12:02:53Z</time>
      </trkpt>
      <trkpt lat="45.94618" lon="4.69585">
        <ele>297</ele>
        <time>2013-06-22T12:02:56Z</time>
      </trkpt>
      <trkpt lat="45.94619" lon="4.69581">
        <ele>303</ele>
        <time>2013-06-22T12:02:59Z</time>
      </trkpt>
      <trkpt lat="45.9463" lon="4.69585">
        <ele>297</ele>
        <time>2013-06-22T12:03:09Z</time>
      </trkpt>
      <trkpt lat="45.94631" lon="4.69578">
        <ele>303</ele>
        <time>2013-06-22T12:03:13Z</time>
      </trkpt>
      <trkpt lat="45.94635" lon="4.69578">
        <ele>303</ele>
        <time>2013-06-22T12:03:17Z</time>
      </trkpt>
      <trkpt lat="45.94637" lon="4.69579">
        <ele>303</ele>
        <time>2013-06-22T12:03:20Z</time>
      </trkpt>
      <trkpt lat="45.9464" lon="4.69578">
        <ele>303</ele>
        <time>2013-06-22T12:03:23Z</time>
      </trkpt>
      <trkpt lat="45.94644" lon="4.69578">
        <ele>303</ele>
        <time>2013-06-22T12:03:26Z</time>
      </trkpt>
      <trkpt lat="45.94647" lon="4.69579">
        <ele>302</ele>
        <time>2013-06-22T12:03:29Z</time>
      </trkpt>
      <trkpt lat="45.94651" lon="4.69579">
        <ele>302</ele>
        <time>2013-06-22T12:03:32Z</time>
      </trkpt>
      <trkpt lat="45.94655" lon="4.69577">
        <ele>302</ele>
        <time>2013-06-22T12:03:35Z</time>
      </trkpt>
      <trkpt lat="45.94658" lon="4.69575">
        <ele>302</ele>
        <time>2013-06-22T12:03:38Z</time>
      </trkpt>
      <trkpt lat="45.94659" lon="4.6957">
        <ele>302</ele>
        <time>2013-06-22T12:03:42Z</time>
      </trkpt>
      <trkpt lat="45.94659" lon="4.69565">
        <ele>303</ele>
        <time>2013-06-22T12:03:45Z</time>
      </trkpt>
      <trkpt lat="45.9466" lon="4.6956">
        <ele>303</ele>
        <time>2013-06-22T12:03:48Z</time>
      </trkpt>
      <trkpt lat="45.94661" lon="4.69556">
        <ele>304</ele>
        <time>2013-06-22T12:03:51Z</time>
      </trkpt>
      <trkpt lat="45.94662" lon="4.69552">
        <ele>304</ele>
        <time>2013-06-22T12:03:54Z</time>
      </trkpt>
      <trkpt lat="45.94663" lon="4.69548">
        <ele>304</ele>
        <time>2013-06-22T12:03:57Z</time>
      </trkpt>
      <trkpt lat="45.94663" lon="4.69543">
        <ele>305</ele>
        <time>2013-06-22T12:04:00Z</time>
      </trkpt>
      <trkpt lat="45.94664" lon="4.69539">
        <ele>305</ele>
        <time>2013-06-22T12:04:03Z</time>
      </trkpt>
      <trkpt lat="45.94664" lon="4.69535">
        <ele>305</ele>
        <time>2013-06-22T12:04:06Z</time>
      </trkpt>
      <trkpt lat="45.94665" lon="4.6953">
        <ele>306</ele>
        <time>2013-06-22T12:04:10Z</time>
      </trkpt>
      <trkpt lat="45.94667" lon="4.69525">
        <ele>308</ele>
        <time>2013-06-22T12:04:13Z</time>
      </trkpt>
      <trkpt lat="45.94667" lon="4.69521">
        <ele>308</ele>
        <time>2013-06-22T12:04:16Z</time>
      </trkpt>
      <trkpt lat="45.94668" lon="4.69516">
        <ele>309</ele>
        <time>2013-06-22T12:04:19Z</time>
      </trkpt>
      <trkpt lat="45.94668" lon="4.69512">
        <ele>309</ele>
        <time>2013-06-22T12:04:22Z</time>
      </trkpt>
      <trkpt lat="45.94668" lon="4.69508">
        <ele>309</ele>
        <time>2013-06-22T12:04:25Z</time>
      </trkpt>
      <trkpt lat="45.9467" lon="4.69503">
        <ele>309</ele>
        <time>2013-06-22T12:04:28Z</time>
      </trkpt>
      <trkpt lat="45.94671" lon="4.69498">
        <ele>311</ele>
        <time>2013-06-22T12:04:31Z</time>
      </trkpt>
      <trkpt lat="45.94671" lon="4.69495">
        <ele>311</ele>
        <time>2013-06-22T12:04:34Z</time>
      </trkpt>
      <trkpt lat="45.94672" lon="4.6949">
        <ele>313</ele>
        <time>2013-06-22T12:04:37Z</time>
      </trkpt>
      <trkpt lat="45.94674" lon="4.69485">
        <ele>314</ele>
        <time>2013-06-22T12:04:41Z</time>
      </trkpt>
      <trkpt lat="45.94675" lon="4.69479">
        <ele>315</ele>
        <time>2013-06-22T12:04:45Z</time>
      </trkpt>
      <trkpt lat="45.94676" lon="4.69475">
        <ele>316</ele>
        <time>2013-06-22T12:04:49Z</time>
      </trkpt>
      <trkpt lat="45.94678" lon="4.69471">
        <ele>316</ele>
        <time>2013-06-22T12:04:52Z</time>
      </trkpt>
      <trkpt lat="45.94679" lon="4.69466">
        <ele>317</ele>
        <time>2013-06-22T12:04:55Z</time>
      </trkpt>
      <trkpt lat="45.94679" lon="4.69463">
        <ele>317</ele>
        <time>2013-06-22T12:04:58Z</time>
      </trkpt>
      <trkpt lat="45.9468" lon="4.69459">
        <ele>318</ele>
        <time>2013-06-22T12:05:01Z</time>
      </trkpt>
      <trkpt lat="45.94682" lon="4.69456">
        <ele>318</ele>
        <time>2013-06-22T12:05:04Z</time>
      </trkpt>
      <trkpt lat="45.94682" lon="4.69451">
        <ele>318</ele>
        <time>2013-06-22T12:05:07Z</time>
      </trkpt>
      <trkpt lat="45.94683" lon="4.69446">
        <ele>319</ele>
        <time>2013-06-22T12:05:11Z</time>
      </trkpt>
      <trkpt lat="45.94685" lon="4.69443">
        <ele>319</ele>
        <time>2013-06-22T12:05:14Z</time>
      </trkpt>
      <trkpt lat="45.94686" lon="4.69439">
        <ele>319</ele>
        <time>2013-06-22T12:05:17Z</time>
      </trkpt>
      <trkpt lat="45.94686" lon="4.69435">
        <ele>320</ele>
        <time>2013-06-22T12:05:20Z</time>
      </trkpt>
      <trkpt lat="45.94688" lon="4.6943">
        <ele>320</ele>
        <time>2013-06-22T12:05:24Z</time>
      </trkpt>
      <trkpt lat="45.94689" lon="4.69425">
        <ele>320</ele>
        <time>2013-06-22T12:05:28Z</time>
      </trkpt>
      <trkpt lat="45.94689" lon="4.69421">
        <ele>320</ele>
        <time>2013-06-22T12:05:31Z</time>
      </trkpt>
      <trkpt lat="45.94689" lon="4.69417">
        <ele>320</ele>
        <time>2013-06-22T12:05:34Z</time>
      </trkpt>
      <trkpt lat="45.94688" lon="4.69413">
        <ele>326</ele>
        <time>2013-06-22T12:05:37Z</time>
      </trkpt>
      <trkpt lat="45.94686" lon="4.6941">
        <ele>326</ele>
        <time>2013-06-22T12:05:40Z</time>
      </trkpt>
      <trkpt lat="45.94684" lon="4.69406">
        <ele>326</ele>
        <time>2013-06-22T12:05:43Z</time>
      </trkpt>
      <trkpt lat="45.94683" lon="4.69402">
        <ele>326</ele>
        <time>2013-06-22T12:05:46Z</time>
      </trkpt>
      <trkpt lat="45.94681" lon="4.69399">
        <ele>326</ele>
        <time>2013-06-22T12:05:49Z</time>
      </trkpt>
      <trkpt lat="45.94678" lon="4.69396">
        <ele>326</ele>
        <time>2013-06-22T12:05:52Z</time>
      </trkpt>
      <trkpt lat="45.94675" lon="4.69392">
        <ele>327</ele>
        <time>2013-06-22T12:05:55Z</time>
      </trkpt>
      <trkpt lat="45.94673" lon="4.69388">
        <ele>327</ele>
        <time>2013-06-22T12:05:59Z</time>
      </trkpt>
      <trkpt lat="45.9467" lon="4.69384">
        <ele>327</ele>
        <time>2013-06-22T12:06:02Z</time>
      </trkpt>
      <trkpt lat="45.94668" lon="4.6938">
        <ele>328</ele>
        <time>2013-06-22T12:06:05Z</time>
      </trkpt>
      <trkpt lat="45.94665" lon="4.69377">
        <ele>328</ele>
        <time>2013-06-22T12:06:08Z</time>
      </trkpt>
      <trkpt lat="45.94662" lon="4.69374">
        <ele>328</ele>
        <time>2013-06-22T12:06:11Z</time>
      </trkpt>
      <trkpt lat="45.94659" lon="4.6937">
        <ele>328</ele>
        <time>2013-06-22T12:06:14Z</time>
      </trkpt>
      <trkpt lat="45.94659" lon="4.69366">
        <ele>329</ele>
        <time>2013-06-22T12:06:17Z</time>
      </trkpt>
      <trkpt lat="45.94662" lon="4.69363">
        <ele>329</ele>
        <time>2013-06-22T12:06:20Z</time>
      </trkpt>
      <trkpt lat="45.94665" lon="4.69364">
        <ele>329</ele>
        <time>2013-06-22T12:06:23Z</time>
      </trkpt>
      <trkpt lat="45.9467" lon="4.69366">
        <ele>329</ele>
        <time>2013-06-22T12:06:26Z</time>
      </trkpt>
      <trkpt lat="45.94675" lon="4.69368">
        <ele>329</ele>
        <time>2013-06-22T12:06:29Z</time>
      </trkpt>
      <trkpt lat="45.9468" lon="4.69369">
        <ele>329</ele>
        <time>2013-06-22T12:06:32Z</time>
      </trkpt>
      <trkpt lat="45.94686" lon="4.6937">
        <ele>329</ele>
        <time>2013-06-22T12:06:35Z</time>
      </trkpt>
      <trkpt lat="45.94693" lon="4.69371">
        <ele>329</ele>
        <time>2013-06-22T12:06:38Z</time>
      </trkpt>
      <trkpt lat="45.94698" lon="4.69373">
        <ele>329</ele>
        <time>2013-06-22T12:06:41Z</time>
      </trkpt>
      <trkpt lat="45.94703" lon="4.69375">
        <ele>329</ele>
        <time>2013-06-22T12:06:44Z</time>
      </trkpt>
      <trkpt lat="45.94709" lon="4.69375">
        <ele>329</ele>
        <time>2013-06-22T12:06:47Z</time>
      </trkpt>
      <trkpt lat="45.94716" lon="4.69376">
        <ele>329</ele>
        <time>2013-06-22T12:06:50Z</time>
      </trkpt>
      <trkpt lat="45.94723" lon="4.69378">
        <ele>329</ele>
        <time>2013-06-22T12:06:53Z</time>
      </trkpt>
      <trkpt lat="45.94731" lon="4.69379">
        <ele>329</ele>
        <time>2013-06-22T12:06:56Z</time>
      </trkpt>
      <trkpt lat="45.94737" lon="4.69381">
        <ele>329</ele>
        <time>2013-06-22T12:06:59Z</time>
      </trkpt>
      <trkpt lat="45.94745" lon="4.69381">
        <ele>329</ele>
        <time>2013-06-22T12:07:02Z</time>
      </trkpt>
      <trkpt lat="45.94752" lon="4.69381">
        <ele>332</ele>
        <time>2013-06-22T12:07:05Z</time>
      </trkpt>
      <trkpt lat="45.94759" lon="4.69381">
        <ele>332</ele>
        <time>2013-06-22T12:07:08Z</time>
      </trkpt>
      <trkpt lat="45.94766" lon="4.69383">
        <ele>332</ele>
        <time>2013-06-22T12:07:11Z</time>
      </trkpt>
      <trkpt lat="45.94772" lon="4.69384">
        <ele>333</ele>
        <time>2013-06-22T12:07:14Z</time>
      </trkpt>
      <trkpt lat="45.94779" lon="4.69384">
        <ele>333</ele>
        <time>2013-06-22T12:07:17Z</time>
      </trkpt>
      <trkpt lat="45.94785" lon="4.69385">
        <ele>333</ele>
        <time>2013-06-22T12:07:20Z</time>
      </trkpt>
      <trkpt lat="45.94791" lon="4.69384">
        <ele>333</ele>
        <time>2013-06-22T12:07:23Z</time>
      </trkpt>
      <trkpt lat="45.94794" lon="4.69382">
        <ele>334</ele>
        <time>2013-06-22T12:07:26Z</time>
      </trkpt>
      <trkpt lat="45.948" lon="4.69383">
        <ele>334</ele>
        <time>2013-06-22T12:07:29Z</time>
      </trkpt>
      <trkpt lat="45.94807" lon="4.69386">
        <ele>334</ele>
        <time>2013-06-22T12:07:32Z</time>
      </trkpt>
      <trkpt lat="45.94814" lon="4.69388">
        <ele>334</ele>
        <time>2013-06-22T12:07:35Z</time>
      </trkpt>
      <trkpt lat="45.94822" lon="4.6939">
        <ele>335</ele>
        <time>2013-06-22T12:07:38Z</time>
      </trkpt>
      <trkpt lat="45.9483" lon="4.69391">
        <ele>335</ele>
        <time>2013-06-22T12:07:41Z</time>
      </trkpt>
      <trkpt lat="45.94838" lon="4.69392">
        <ele>337</ele>
        <time>2013-06-22T12:07:44Z</time>
      </trkpt>
      <trkpt lat="45.94845" lon="4.69393">
        <ele>336</ele>
        <time>2013-06-22T12:07:47Z</time>
      </trkpt>
      <trkpt lat="45.94854" lon="4.69394">
        <ele>336</ele>
        <time>2013-06-22T12:07:50Z</time>
      </trkpt>
      <trkpt lat="45.94861" lon="4.69395">
        <ele>336</ele>
        <time>2013-06-22T12:07:53Z</time>
      </trkpt>
      <trkpt lat="45.94868" lon="4.69395">
        <ele>336</ele>
        <time>2013-06-22T12:07:56Z</time>
      </trkpt>
      <trkpt lat="45.94874" lon="4.69396">
        <ele>336</ele>
        <time>2013-06-22T12:07:59Z</time>
      </trkpt>
      <trkpt lat="45.94881" lon="4.69396">
        <ele>336</ele>
        <time>2013-06-22T12:08:02Z</time>
      </trkpt>
      <trkpt lat="45.94888" lon="4.69394">
        <ele>336</ele>
        <time>2013-06-22T12:08:05Z</time>
      </trkpt>
      <trkpt lat="45.94893" lon="4.69389">
        <ele>336</ele>
        <time>2013-06-22T12:08:08Z</time>
      </trkpt>
      <trkpt lat="45.94897" lon="4.69379">
        <ele>337</ele>
        <time>2013-06-22T12:08:11Z</time>
      </trkpt>
      <trkpt lat="45.949" lon="4.6937">
        <ele>337</ele>
        <time>2013-06-22T12:08:14Z</time>
      </trkpt>
      <trkpt lat="45.94903" lon="4.6936">
        <ele>337</ele>
        <time>2013-06-22T12:08:17Z</time>
      </trkpt>
      <trkpt lat="45.94906" lon="4.69351">
        <ele>338</ele>
        <time>2013-06-22T12:08:20Z</time>
      </trkpt>
      <trkpt lat="45.94907" lon="4.69341">
        <ele>338</ele>
        <time>2013-06-22T12:08:23Z</time>
      </trkpt>
      <trkpt lat="45.94909" lon="4.69332">
        <ele>339</ele>
        <time>2013-06-22T12:08:26Z</time>
      </trkpt>
      <trkpt lat="45.94911" lon="4.69322">
        <ele>340</ele>
        <time>2013-06-22T12:08:29Z</time>
      </trkpt>
      <trkpt lat="45.94915" lon="4.69314">
        <ele>340</ele>
        <time>2013-06-22T12:08:32Z</time>
      </trkpt>
      <trkpt lat="45.94918" lon="4.69307">
        <ele>340</ele>
        <time>2013-06-22T12:08:35Z</time>
      </trkpt>
      <trkpt lat="45.94922" lon="4.693">
        <ele>340</ele>
        <time>2013-06-22T12:08:38Z</time>
      </trkpt>
      <trkpt lat="45.94926" lon="4.69295">
        <ele>340</ele>
        <time>2013-06-22T12:08:41Z</time>
      </trkpt>
      <trkpt lat="45.94931" lon="4.6929">
        <ele>340</ele>
        <time>2013-06-22T12:08:44Z</time>
      </trkpt>
      <trkpt lat="45.94936" lon="4.69285">
        <ele>340</ele>
        <time>2013-06-22T12:08:47Z</time>
      </trkpt>
      <trkpt lat="45.94943" lon="4.69281">
        <ele>340</ele>
        <time>2013-06-22T12:08:50Z</time>
      </trkpt>
      <trkpt lat="45.94951" lon="4.69277">
        <ele>340</ele>
        <time>2013-06-22T12:08:53Z</time>
      </trkpt>
      <trkpt lat="45.94958" lon="4.69277">
        <ele>340</ele>
        <time>2013-06-22T12:08:56Z</time>
      </trkpt>
      <trkpt lat="45.94965" lon="4.69279">
        <ele>340</ele>
        <time>2013-06-22T12:08:59Z</time>
      </trkpt>
      <trkpt lat="45.94972" lon="4.69283">
        <ele>340</ele>
        <time>2013-06-22T12:09:02Z</time>
      </trkpt>
      <trkpt lat="45.94981" lon="4.69288">
        <ele>340</ele>
        <time>2013-06-22T12:09:05Z</time>
      </trkpt>
      <trkpt lat="45.94992" lon="4.69294">
        <ele>340</ele>
        <time>2013-06-22T12:09:08Z</time>
      </trkpt>
      <trkpt lat="45.95004" lon="4.69299">
        <ele>338</ele>
        <time>2013-06-22T12:09:11Z</time>
      </trkpt>
      <trkpt lat="45.95017" lon="4.69306">
        <ele>338</ele>
        <time>2013-06-22T12:09:14Z</time>
      </trkpt>
      <trkpt lat="45.9503" lon="4.69312">
        <ele>337</ele>
        <time>2013-06-22T12:09:17Z</time>
      </trkpt>
      <trkpt lat="45.95044" lon="4.69319">
        <ele>337</ele>
        <time>2013-06-22T12:09:20Z</time>
      </trkpt>
      <trkpt lat="45.95058" lon="4.69326">
        <ele>336</ele>
        <time>2013-06-22T12:09:23Z</time>
      </trkpt>
      <trkpt lat="45.9507" lon="4.69333">
        <ele>336</ele>
        <time>2013-06-22T12:09:26Z</time>
      </trkpt>
      <trkpt lat="45.95079" lon="4.69338">
        <ele>336</ele>
        <time>2013-06-22T12:09:29Z</time>
      </trkpt>
      <trkpt lat="45.95085" lon="4.69342">
        <ele>336</ele>
        <time>2013-06-22T12:09:33Z</time>
      </trkpt>
      <trkpt lat="45.95092" lon="4.69342">
        <ele>336</ele>
        <time>2013-06-22T12:09:36Z</time>
      </trkpt>
      <trkpt lat="45.951" lon="4.69335">
        <ele>336</ele>
        <time>2013-06-22T12:09:39Z</time>
      </trkpt>
      <trkpt lat="45.95105" lon="4.69329">
        <ele>334</ele>
        <time>2013-06-22T12:09:42Z</time>
      </trkpt>
      <trkpt lat="45.95106" lon="4.69326">
        <ele>334</ele>
        <time>2013-06-22T12:09:46Z</time>
      </trkpt>
      <trkpt lat="45.95107" lon="4.69323">
        <ele>334</ele>
        <time>2013-06-22T12:09:53Z</time>
      </trkpt>
      <trkpt lat="45.95106" lon="4.69309">
        <ele>334</ele>
        <time>2013-06-22T12:09:56Z</time>
      </trkpt>
      <trkpt lat="45.951" lon="4.69297">
        <ele>334</ele>
        <time>2013-06-22T12:09:59Z</time>
      </trkpt>
      <trkpt lat="45.95095" lon="4.69286">
        <ele>334</ele>
        <time>2013-06-22T12:10:02Z</time>
      </trkpt>
      <trkpt lat="45.95093" lon="4.69274">
        <ele>334</ele>
        <time>2013-06-22T12:10:05Z</time>
      </trkpt>
      <trkpt lat="45.95092" lon="4.69258">
        <ele>334</ele>
        <time>2013-06-22T12:10:08Z</time>
      </trkpt>
      <trkpt lat="45.95092" lon="4.69238">
        <ele>332</ele>
        <time>2013-06-22T12:10:11Z</time>
      </trkpt>
      <trkpt lat="45.95092" lon="4.69209">
        <ele>331</ele>
        <time>2013-06-22T12:10:14Z</time>
      </trkpt>
      <trkpt lat="45.95093" lon="4.69177">
        <ele>330</ele>
        <time>2013-06-22T12:10:17Z</time>
      </trkpt>
      <trkpt lat="45.95094" lon="4.69145">
        <ele>327</ele>
        <time>2013-06-22T12:10:20Z</time>
      </trkpt>
      <trkpt lat="45.95096" lon="4.69114">
        <ele>326</ele>
        <time>2013-06-22T12:10:23Z</time>
      </trkpt>
      <trkpt lat="45.95104" lon="4.69084">
        <ele>325</ele>
        <time>2013-06-22T12:10:26Z</time>
      </trkpt>
      <trkpt lat="45.95113" lon="4.69055">
        <ele>321</ele>
        <time>2013-06-22T12:10:29Z</time>
      </trkpt>
      <trkpt lat="45.95122" lon="4.69027">
        <ele>320</ele>
        <time>2013-06-22T12:10:32Z</time>
      </trkpt>
      <trkpt lat="45.9513" lon="4.69006">
        <ele>319</ele>
        <time>2013-06-22T12:10:35Z</time>
      </trkpt>
      <trkpt lat="45.95135" lon="4.68989">
        <ele>316</ele>
        <time>2013-06-22T12:10:38Z</time>
      </trkpt>
      <trkpt lat="45.9514" lon="4.68977">
        <ele>316</ele>
        <time>2013-06-22T12:10:41Z</time>
      </trkpt>
      <trkpt lat="45.95148" lon="4.68978">
        <ele>315</ele>
        <time>2013-06-22T12:10:44Z</time>
      </trkpt>
      <trkpt lat="45.95155" lon="4.68988">
        <ele>315</ele>
        <time>2013-06-22T12:10:47Z</time>
      </trkpt>
      <trkpt lat="45.95161" lon="4.68998">
        <ele>315</ele>
        <time>2013-06-22T12:10:50Z</time>
      </trkpt>
      <trkpt lat="45.9517" lon="4.69009">
        <ele>314</ele>
        <time>2013-06-22T12:10:53Z</time>
      </trkpt>
      <trkpt lat="45.95177" lon="4.6902">
        <ele>314</ele>
        <time>2013-06-22T12:10:56Z</time>
      </trkpt>
      <trkpt lat="45.95182" lon="4.69027">
        <ele>313</ele>
        <time>2013-06-22T12:10:59Z</time>
      </trkpt>
      <trkpt lat="45.95189" lon="4.69031">
        <ele>313</ele>
        <time>2013-06-22T12:11:02Z</time>
      </trkpt>
      <trkpt lat="45.95198" lon="4.69041">
        <ele>313</ele>
        <time>2013-06-22T12:11:05Z</time>
      </trkpt>
      <trkpt lat="45.95211" lon="4.69053">
        <ele>313</ele>
        <time>2013-06-22T12:11:08Z</time>
      </trkpt>
      <trkpt lat="45.9523" lon="4.69061">
        <ele>312</ele>
        <time>2013-06-22T12:11:11Z</time>
      </trkpt>
      <trkpt lat="45.95253" lon="4.69064">
        <ele>308</ele>
        <time>2013-06-22T12:11:14Z</time>
      </trkpt>
      <trkpt lat="45.95276" lon="4.6906">
        <ele>307</ele>
        <time>2013-06-22T12:11:17Z</time>
      </trkpt>
      <trkpt lat="45.95302" lon="4.69053">
        <ele>306</ele>
        <time>2013-06-22T12:11:20Z</time>
      </trkpt>
      <trkpt lat="45.95329" lon="4.69057">
        <ele>306</ele>
        <time>2013-06-22T12:11:23Z</time>
      </trkpt>
      <trkpt lat="45.95355" lon="4.69056">
        <ele>302</ele>
        <time>2013-06-22T12:11:26Z</time>
      </trkpt>
      <trkpt lat="45.9538" lon="4.69057">
        <ele>302</ele>
        <time>2013-06-22T12:11:29Z</time>
      </trkpt>
      <trkpt lat="45.95399" lon="4.69063">
        <ele>302</ele>
        <time>2013-06-22T12:11:32Z</time>
      </trkpt>
      <trkpt lat="45.95415" lon="4.69074">
        <ele>302</ele>
        <time>2013-06-22T12:11:35Z</time>
      </trkpt>
      <trkpt lat="45.95426" lon="4.69084">
        <ele>303</ele>
        <time>2013-06-22T12:11:38Z</time>
      </trkpt>
      <trkpt lat="45.95435" lon="4.69091">
        <ele>303</ele>
        <time>2013-06-22T12:11:41Z</time>
      </trkpt>
      <trkpt lat="45.95444" lon="4.69098">
        <ele>303</ele>
        <time>2013-06-22T12:11:44Z</time>
      </trkpt>
      <trkpt lat="45.95451" lon="4.69104">
        <ele>302</ele>
        <time>2013-06-22T12:11:47Z</time>
      </trkpt>
      <trkpt lat="45.95457" lon="4.69111">
        <ele>302</ele>
        <time>2013-06-22T12:11:50Z</time>
      </trkpt>
      <trkpt lat="45.95462" lon="4.6912">
        <ele>303</ele>
        <time>2013-06-22T12:11:53Z</time>
      </trkpt>
      <trkpt lat="45.95465" lon="4.69131">
        <ele>303</ele>
        <time>2013-06-22T12:11:56Z</time>
      </trkpt>
      <trkpt lat="45.95467" lon="4.6914">
        <ele>303</ele>
        <time>2013-06-22T12:11:59Z</time>
      </trkpt>
      <trkpt lat="45.95467" lon="4.69148">
        <ele>304</ele>
        <time>2013-06-22T12:12:02Z</time>
      </trkpt>
      <trkpt lat="45.95467" lon="4.69149">
        <ele>304</ele>
        <time>2013-06-22T12:12:07Z</time>
      </trkpt>
      <trkpt lat="45.95469" lon="4.69155">
        <ele>304</ele>
        <time>2013-06-22T12:12:28Z</time>
      </trkpt>
      <trkpt lat="45.95472" lon="4.69159">
        <ele>304</ele>
        <time>2013-06-22T12:12:31Z</time>
      </trkpt>
      <trkpt lat="45.95476" lon="4.69169">
        <ele>308</ele>
        <time>2013-06-22T12:12:34Z</time>
      </trkpt>
      <trkpt lat="45.95481" lon="4.69179">
        <ele>308</ele>
        <time>2013-06-22T12:12:37Z</time>
      </trkpt>
      <trkpt lat="45.95487" lon="4.69187">
        <ele>308</ele>
        <time>2013-06-22T12:12:40Z</time>
      </trkpt>
      <trkpt lat="45.95494" lon="4.69194">
        <ele>308</ele>
        <time>2013-06-22T12:12:43Z</time>
      </trkpt>
      <trkpt lat="45.955" lon="4.69203">
        <ele>307</ele>
        <time>2013-06-22T12:12:46Z</time>
      </trkpt>
      <trkpt lat="45.95504" lon="4.69213">
        <ele>307</ele>
        <time>2013-06-22T12:12:49Z</time>
      </trkpt>
      <trkpt lat="45.9551" lon="4.69222">
        <ele>308</ele>
        <time>2013-06-22T12:12:52Z</time>
      </trkpt>
      <trkpt lat="45.95515" lon="4.69228">
        <ele>308</ele>
        <time>2013-06-22T12:12:55Z</time>
      </trkpt>
      <trkpt lat="45.95517" lon="4.69235">
        <ele>308</ele>
        <time>2013-06-22T12:12:58Z</time>
      </trkpt>
      <trkpt lat="45.95523" lon="4.69241">
        <ele>308</ele>
        <time>2013-06-22T12:13:01Z</time>
      </trkpt>
      <trkpt lat="45.95526" lon="4.69247">
        <ele>308</ele>
        <time>2013-06-22T12:13:04Z</time>
      </trkpt>
      <trkpt lat="45.95529" lon="4.69249">
        <ele>308</ele>
        <time>2013-06-22T12:13:07Z</time>
      </trkpt>
      <trkpt lat="45.95537" lon="4.69251">
        <ele>313</ele>
        <time>2013-06-22T12:13:10Z</time>
      </trkpt>
      <trkpt lat="45.95541" lon="4.69257">
        <ele>313</ele>
        <time>2013-06-22T12:13:13Z</time>
      </trkpt>
      <trkpt lat="45.95546" lon="4.69261">
        <ele>313</ele>
        <time>2013-06-22T12:13:16Z</time>
      </trkpt>
      <trkpt lat="45.95553" lon="4.69263">
        <ele>313</ele>
        <time>2013-06-22T12:13:19Z</time>
      </trkpt>
      <trkpt lat="45.95558" lon="4.69265">
        <ele>313</ele>
        <time>2013-06-22T12:13:22Z</time>
      </trkpt>
      <trkpt lat="45.95565" lon="4.69265">
        <ele>313</ele>
        <time>2013-06-22T12:13:25Z</time>
      </trkpt>
      <trkpt lat="45.95574" lon="4.69264">
        <ele>312</ele>
        <time>2013-06-22T12:13:28Z</time>
      </trkpt>
      <trkpt lat="45.95582" lon="4.69263">
        <ele>312</ele>
        <time>2013-06-22T12:13:31Z</time>
      </trkpt>
      <trkpt lat="45.95593" lon="4.69259">
        <ele>311</ele>
        <time>2013-06-22T12:13:34Z</time>
      </trkpt>
      <trkpt lat="45.95601" lon="4.69256">
        <ele>311</ele>
        <time>2013-06-22T12:13:37Z</time>
      </trkpt>
      <trkpt lat="45.95609" lon="4.69257">
        <ele>311</ele>
        <time>2013-06-22T12:13:40Z</time>
      </trkpt>
      <trkpt lat="45.95621" lon="4.69257">
        <ele>311</ele>
        <time>2013-06-22T12:13:43Z</time>
      </trkpt>
      <trkpt lat="45.95627" lon="4.69253">
        <ele>311</ele>
        <time>2013-06-22T12:13:46Z</time>
      </trkpt>
      <trkpt lat="45.95634" lon="4.69239">
        <ele>306</ele>
        <time>2013-06-22T12:13:49Z</time>
      </trkpt>
      <trkpt lat="45.95641" lon="4.69216">
        <ele>304</ele>
        <time>2013-06-22T12:13:52Z</time>
      </trkpt>
      <trkpt lat="45.95646" lon="4.69195">
        <ele>303</ele>
        <time>2013-06-22T12:13:55Z</time>
      </trkpt>
      <trkpt lat="45.95649" lon="4.69177">
        <ele>302</ele>
        <time>2013-06-22T12:13:58Z</time>
      </trkpt>
      <trkpt lat="45.95652" lon="4.69156">
        <ele>297</ele>
        <time>2013-06-22T12:14:01Z</time>
      </trkpt>
      <trkpt lat="45.95656" lon="4.69134">
        <ele>295</ele>
        <time>2013-06-22T12:14:04Z</time>
      </trkpt>
      <trkpt lat="45.9566" lon="4.6911">
        <ele>292</ele>
        <time>2013-06-22T12:14:07Z</time>
      </trkpt>
      <trkpt lat="45.95664" lon="4.69087">
        <ele>289</ele>
        <time>2013-06-22T12:14:10Z</time>
      </trkpt>
      <trkpt lat="45.95667" lon="4.69067">
        <ele>287</ele>
        <time>2013-06-22T12:14:13Z</time>
      </trkpt>
      <trkpt lat="45.9567" lon="4.69043">
        <ele>286</ele>
        <time>2013-06-22T12:14:16Z</time>
      </trkpt>
      <trkpt lat="45.95673" lon="4.69022">
        <ele>285</ele>
        <time>2013-06-22T12:14:19Z</time>
      </trkpt>
      <trkpt lat="45.95678" lon="4.69005">
        <ele>284</ele>
        <time>2013-06-22T12:14:22Z</time>
      </trkpt>
      <trkpt lat="45.9569" lon="4.68995">
        <ele>280</ele>
        <time>2013-06-22T12:14:25Z</time>
      </trkpt>
      <trkpt lat="45.95703" lon="4.68984">
        <ele>278</ele>
        <time>2013-06-22T12:14:28Z</time>
      </trkpt>
      <trkpt lat="45.95715" lon="4.68971">
        <ele>277</ele>
        <time>2013-06-22T12:14:31Z</time>
      </trkpt>
      <trkpt lat="45.95726" lon="4.68954">
        <ele>275</ele>
        <time>2013-06-22T12:14:34Z</time>
      </trkpt>
      <trkpt lat="45.95732" lon="4.68929">
        <ele>272</ele>
        <time>2013-06-22T12:14:37Z</time>
      </trkpt>
      <trkpt lat="45.95736" lon="4.689">
        <ele>267</ele>
        <time>2013-06-22T12:14:40Z</time>
      </trkpt>
      <trkpt lat="45.95737" lon="4.6887">
        <ele>266</ele>
        <time>2013-06-22T12:14:43Z</time>
      </trkpt>
      <trkpt lat="45.95741" lon="4.68837">
        <ele>262</ele>
        <time>2013-06-22T12:14:46Z</time>
      </trkpt>
      <trkpt lat="45.95748" lon="4.68809">
        <ele>260</ele>
        <time>2013-06-22T12:14:49Z</time>
      </trkpt>
      <trkpt lat="45.95755" lon="4.68788">
        <ele>258</ele>
        <time>2013-06-22T12:14:52Z</time>
      </trkpt>
      <trkpt lat="45.95752" lon="4.68769">
        <ele>258</ele>
        <time>2013-06-22T12:14:55Z</time>
      </trkpt>
      <trkpt lat="45.9574" lon="4.68759">
        <ele>258</ele>
        <time>2013-06-22T12:14:58Z</time>
      </trkpt>
      <trkpt lat="45.95733" lon="4.68756">
        <ele>258</ele>
        <time>2013-06-22T12:15:01Z</time>
      </trkpt>
      <trkpt lat="45.95732" lon="4.68756">
        <ele>258</ele>
        <time>2013-06-22T12:15:06Z</time>
      </trkpt>
      <trkpt lat="45.95731" lon="4.68756">
        <ele>258</ele>
        <time>2013-06-22T12:15:10Z</time>
      </trkpt>
      <trkpt lat="45.95729" lon="4.68752">
        <ele>258</ele>
        <time>2013-06-22T12:15:13Z</time>
      </trkpt>
      <trkpt lat="45.95725" lon="4.68742">
        <ele>256</ele>
        <time>2013-06-22T12:15:16Z</time>
      </trkpt>
      <trkpt lat="45.95725" lon="4.68727">
        <ele>256</ele>
        <time>2013-06-22T12:15:19Z</time>
      </trkpt>
      <trkpt lat="45.95729" lon="4.6871">
        <ele>256</ele>
        <time>2013-06-22T12:15:22Z</time>
      </trkpt>
      <trkpt lat="45.95733" lon="4.68692">
        <ele>255</ele>
        <time>2013-06-22T12:15:25Z</time>
      </trkpt>
      <trkpt lat="45.95736" lon="4.68674">
        <ele>254</ele>
        <time>2013-06-22T12:15:28Z</time>
      </trkpt>
      <trkpt lat="45.9574" lon="4.68655">
        <ele>254</ele>
        <time>2013-06-22T12:15:31Z</time>
      </trkpt>
      <trkpt lat="45.95743" lon="4.68636">
        <ele>255</ele>
        <time>2013-06-22T12:15:34Z</time>
      </trkpt>
      <trkpt lat="45.95746" lon="4.68618">
        <ele>256</ele>
        <time>2013-06-22T12:15:37Z</time>
      </trkpt>
      <trkpt lat="45.95749" lon="4.68601">
        <ele>256</ele>
        <time>2013-06-22T12:15:40Z</time>
      </trkpt>
      <trkpt lat="45.95751" lon="4.68584">
        <ele>256</ele>
        <time>2013-06-22T12:15:43Z</time>
      </trkpt>
      <trkpt lat="45.95753" lon="4.68568">
        <ele>256</ele>
        <time>2013-06-22T12:15:46Z</time>
      </trkpt>
      <trkpt lat="45.95756" lon="4.68552">
        <ele>256</ele>
        <time>2013-06-22T12:15:49Z</time>
      </trkpt>
      <trkpt lat="45.95758" lon="4.68537">
        <ele>256</ele>
        <time>2013-06-22T12:15:52Z</time>
      </trkpt>
      <trkpt lat="45.95759" lon="4.68521">
        <ele>256</ele>
        <time>2013-06-22T12:15:55Z</time>
      </trkpt>
      <trkpt lat="45.95759" lon="4.68505">
        <ele>257</ele>
        <time>2013-06-22T12:15:58Z</time>
      </trkpt>
      <trkpt lat="45.95761" lon="4.68488">
        <ele>257</ele>
        <time>2013-06-22T12:16:01Z</time>
      </trkpt>
      <trkpt lat="45.95763" lon="4.6847">
        <ele>256</ele>
        <time>2013-06-22T12:16:04Z</time>
      </trkpt>
      <trkpt lat="45.95764" lon="4.68454">
        <ele>256</ele>
        <time>2013-06-22T12:16:07Z</time>
      </trkpt>
      <trkpt lat="45.95767" lon="4.68433">
        <ele>256</ele>
        <time>2013-06-22T12:16:10Z</time>
      </trkpt>
      <trkpt lat="45.95775" lon="4.68416">
        <ele>255</ele>
        <time>2013-06-22T12:16:13Z</time>
      </trkpt>
      <trkpt lat="45.95782" lon="4.68397">
        <ele>254</ele>
        <time>2013-06-22T12:16:16Z</time>
      </trkpt>
      <trkpt lat="45.95791" lon="4.68373">
        <ele>253</ele>
        <time>2013-06-22T12:16:19Z</time>
      </trkpt>
      <trkpt lat="45.95801" lon="4.68348">
        <ele>252</ele>
        <time>2013-06-22T12:16:22Z</time>
      </trkpt>
      <trkpt lat="45.95816" lon="4.68324">
        <ele>249</ele>
        <time>2013-06-22T12:16:25Z</time>
      </trkpt>
      <trkpt lat="45.95829" lon="4.68296">
        <ele>249</ele>
        <time>2013-06-22T12:16:28Z</time>
      </trkpt>
      <trkpt lat="45.9584" lon="4.68269">
        <ele>245</ele>
        <time>2013-06-22T12:16:31Z</time>
      </trkpt>
      <trkpt lat="45.95847" lon="4.68239">
        <ele>243</ele>
        <time>2013-06-22T12:16:34Z</time>
      </trkpt>
      <trkpt lat="45.95853" lon="4.68212">
        <ele>242</ele>
        <time>2013-06-22T12:16:37Z</time>
      </trkpt>
      <trkpt lat="45.95854" lon="4.68186">
        <ele>241</ele>
        <time>2013-06-22T12:16:40Z</time>
      </trkpt>
      <trkpt lat="45.95856" lon="4.68163">
        <ele>240</ele>
        <time>2013-06-22T12:16:43Z</time>
      </trkpt>
      <trkpt lat="45.95859" lon="4.68141">
        <ele>240</ele>
        <time>2013-06-22T12:16:46Z</time>
      </trkpt>
      <trkpt lat="45.95865" lon="4.68122">
        <ele>240</ele>
        <time>2013-06-22T12:16:49Z</time>
      </trkpt>
      <trkpt lat="45.95871" lon="4.68108">
        <ele>240</ele>
        <time>2013-06-22T12:16:52Z</time>
      </trkpt>
      <trkpt lat="45.95874" lon="4.681">
        <ele>240</ele>
        <time>2013-06-22T12:16:55Z</time>
      </trkpt>
      <trkpt lat="45.95877" lon="4.68094">
        <ele>241</ele>
        <time>2013-06-22T12:17:00Z</time>
      </trkpt>
      <trkpt lat="45.9588" lon="4.68091">
        <ele>241</ele>
        <time>2013-06-22T12:17:03Z</time>
      </trkpt>
      <trkpt lat="45.95884" lon="4.68086">
        <ele>241</ele>
        <time>2013-06-22T12:17:06Z</time>
      </trkpt>
      <trkpt lat="45.95886" lon="4.68079">
        <ele>245</ele>
        <time>2013-06-22T12:17:09Z</time>
      </trkpt>
      <trkpt lat="45.95885" lon="4.6807">
        <ele>245</ele>
        <time>2013-06-22T12:17:12Z</time>
      </trkpt>
      <trkpt lat="45.9588" lon="4.68066">
        <ele>246</ele>
        <time>2013-06-22T12:17:15Z</time>
      </trkpt>
      <trkpt lat="45.95876" lon="4.68061">
        <ele>246</ele>
        <time>2013-06-22T12:17:18Z</time>
      </trkpt>
      <trkpt lat="45.9587" lon="4.68056">
        <ele>246</ele>
        <time>2013-06-22T12:17:21Z</time>
      </trkpt>
      <trkpt lat="45.95863" lon="4.68053">
        <ele>246</ele>
        <time>2013-06-22T12:17:24Z</time>
      </trkpt>
      <trkpt lat="45.95858" lon="4.68047">
        <ele>246</ele>
        <time>2013-06-22T12:17:27Z</time>
      </trkpt>
      <trkpt lat="45.95852" lon="4.68042">
        <ele>247</ele>
        <time>2013-06-22T12:17:30Z</time>
      </trkpt>
      <trkpt lat="45.95844" lon="4.68037">
        <ele>247</ele>
        <time>2013-06-22T12:17:33Z</time>
      </trkpt>
      <trkpt lat="45.9584" lon="4.68032">
        <ele>247</ele>
        <time>2013-06-22T12:17:36Z</time>
      </trkpt>
      <trkpt lat="45.95836" lon="4.68027">
        <ele>248</ele>
        <time>2013-06-22T12:17:39Z</time>
      </trkpt>
      <trkpt lat="45.95829" lon="4.68024">
        <ele>247</ele>
        <time>2013-06-22T12:17:42Z</time>
      </trkpt>
      <trkpt lat="45.95824" lon="4.68017">
        <ele>248</ele>
        <time>2013-06-22T12:17:45Z</time>
      </trkpt>
      <trkpt lat="45.95819" lon="4.68011">
        <ele>248</ele>
        <time>2013-06-22T12:17:48Z</time>
      </trkpt>
      <trkpt lat="45.95813" lon="4.68007">
        <ele>247</ele>
        <time>2013-06-22T12:17:51Z</time>
      </trkpt>
      <trkpt lat="45.95809" lon="4.68002">
        <ele>247</ele>
        <time>2013-06-22T12:17:54Z</time>
      </trkpt>
      <trkpt lat="45.95804" lon="4.67996">
        <ele>252</ele>
        <time>2013-06-22T12:17:57Z</time>
      </trkpt>
      <trkpt lat="45.958" lon="4.67991">
        <ele>252</ele>
        <time>2013-06-22T12:18:00Z</time>
      </trkpt>
      <trkpt lat="45.95795" lon="4.67986">
        <ele>252</ele>
        <time>2013-06-22T12:18:03Z</time>
      </trkpt>
      <trkpt lat="45.95791" lon="4.67981">
        <ele>252</ele>
        <time>2013-06-22T12:18:06Z</time>
      </trkpt>
      <trkpt lat="45.95786" lon="4.67977">
        <ele>252</ele>
        <time>2013-06-22T12:18:09Z</time>
      </trkpt>
      <trkpt lat="45.95782" lon="4.67971">
        <ele>253</ele>
        <time>2013-06-22T12:18:12Z</time>
      </trkpt>
      <trkpt lat="45.95776" lon="4.67964">
        <ele>253</ele>
        <time>2013-06-22T12:18:15Z</time>
      </trkpt>
      <trkpt lat="45.95771" lon="4.6796">
        <ele>253</ele>
        <time>2013-06-22T12:18:18Z</time>
      </trkpt>
      <trkpt lat="45.95766" lon="4.67955">
        <ele>254</ele>
        <time>2013-06-22T12:18:21Z</time>
      </trkpt>
      <trkpt lat="45.95762" lon="4.67949">
        <ele>254</ele>
        <time>2013-06-22T12:18:24Z</time>
      </trkpt>
      <trkpt lat="45.95759" lon="4.67946">
        <ele>254</ele>
        <time>2013-06-22T12:18:27Z</time>
      </trkpt>
      <trkpt lat="45.95756" lon="4.6794">
        <ele>255</ele>
        <time>2013-06-22T12:18:30Z</time>
      </trkpt>
      <trkpt lat="45.95752" lon="4.67937">
        <ele>255</ele>
        <time>2013-06-22T12:18:33Z</time>
      </trkpt>
      <trkpt lat="45.95748" lon="4.6793">
        <ele>255</ele>
        <time>2013-06-22T12:18:36Z</time>
      </trkpt>
      <trkpt lat="45.95744" lon="4.67924">
        <ele>255</ele>
        <time>2013-06-22T12:18:39Z</time>
      </trkpt>
      <trkpt lat="45.95739" lon="4.67921">
        <ele>255</ele>
        <time>2013-06-22T12:18:42Z</time>
      </trkpt>
      <trkpt lat="45.95735" lon="4.67916">
        <ele>259</ele>
        <time>2013-06-22T12:18:45Z</time>
      </trkpt>
      <trkpt lat="45.95732" lon="4.67909">
        <ele>260</ele>
        <time>2013-06-22T12:18:48Z</time>
      </trkpt>
      <trkpt lat="45.95726" lon="4.67904">
        <ele>260</ele>
        <time>2013-06-22T12:18:51Z</time>
      </trkpt>
      <trkpt lat="45.95721" lon="4.679">
        <ele>260</ele>
        <time>2013-06-22T12:18:54Z</time>
      </trkpt>
      <trkpt lat="45.95715" lon="4.67896">
        <ele>260</ele>
        <time>2013-06-22T12:18:57Z</time>
      </trkpt>
      <trkpt lat="45.95711" lon="4.6789">
        <ele>260</ele>
        <time>2013-06-22T12:19:00Z</time>
      </trkpt>
      <trkpt lat="45.95705" lon="4.67885">
        <ele>261</ele>
        <time>2013-06-22T12:19:03Z</time>
      </trkpt>
      <trkpt lat="45.95701" lon="4.67879">
        <ele>261</ele>
        <time>2013-06-22T12:19:06Z</time>
      </trkpt>
      <trkpt lat="45.95696" lon="4.67873">
        <ele>261</ele>
        <time>2013-06-22T12:19:09Z</time>
      </trkpt>
      <trkpt lat="45.9569" lon="4.6787">
        <ele>261</ele>
        <time>2013-06-22T12:19:12Z</time>
      </trkpt>
      <trkpt lat="45.95685" lon="4.67865">
        <ele>262</ele>
        <time>2013-06-22T12:19:15Z</time>
      </trkpt>
      <trkpt lat="45.9568" lon="4.67858">
        <ele>262</ele>
        <time>2013-06-22T12:19:18Z</time>
      </trkpt>
      <trkpt lat="45.95676" lon="4.67852">
        <ele>263</ele>
        <time>2013-06-22T12:19:21Z</time>
      </trkpt>
      <trkpt lat="45.95672" lon="4.67847">
        <ele>263</ele>
        <time>2013-06-22T12:19:24Z</time>
      </trkpt>
      <trkpt lat="45.95666" lon="4.67842">
        <ele>263</ele>
        <time>2013-06-22T12:19:27Z</time>
      </trkpt>
      <trkpt lat="45.9566" lon="4.67838">
        <ele>263</ele>
        <time>2013-06-22T12:19:30Z</time>
      </trkpt>
      <trkpt lat="45.95655" lon="4.67833">
        <ele>266</ele>
        <time>2013-06-22T12:19:33Z</time>
      </trkpt>
      <trkpt lat="45.95649" lon="4.6783">
        <ele>267</ele>
        <time>2013-06-22T12:19:36Z</time>
      </trkpt>
      <trkpt lat="45.95643" lon="4.67826">
        <ele>267</ele>
        <time>2013-06-22T12:19:39Z</time>
      </trkpt>
      <trkpt lat="45.95636" lon="4.67823">
        <ele>267</ele>
        <time>2013-06-22T12:19:42Z</time>
      </trkpt>
      <trkpt lat="45.95629" lon="4.67819">
        <ele>267</ele>
        <time>2013-06-22T12:19:45Z</time>
      </trkpt>
      <trkpt lat="45.95622" lon="4.67814">
        <ele>268</ele>
        <time>2013-06-22T12:19:48Z</time>
      </trkpt>
      <trkpt lat="45.95614" lon="4.67809">
        <ele>268</ele>
        <time>2013-06-22T12:19:51Z</time>
      </trkpt>
      <trkpt lat="45.95606" lon="4.67805">
        <ele>268</ele>
        <time>2013-06-22T12:19:54Z</time>
      </trkpt>
      <trkpt lat="45.95599" lon="4.678">
        <ele>268</ele>
        <time>2013-06-22T12:19:57Z</time>
      </trkpt>
      <trkpt lat="45.95591" lon="4.67797">
        <ele>268</ele>
        <time>2013-06-22T12:20:00Z</time>
      </trkpt>
      <trkpt lat="45.95583" lon="4.67791">
        <ele>266</ele>
        <time>2013-06-22T12:20:03Z</time>
      </trkpt>
      <trkpt lat="45.95574" lon="4.67785">
        <ele>267</ele>
        <time>2013-06-22T12:20:06Z</time>
      </trkpt>
      <trkpt lat="45.95565" lon="4.6778">
        <ele>267</ele>
        <time>2013-06-22T12:20:09Z</time>
      </trkpt>
      <trkpt lat="45.95555" lon="4.67775">
        <ele>267</ele>
        <time>2013-06-22T12:20:12Z</time>
      </trkpt>
      <trkpt lat="45.95547" lon="4.67771">
        <ele>267</ele>
        <time>2013-06-22T12:20:15Z</time>
      </trkpt>
      <trkpt lat="45.95537" lon="4.67767">
        <ele>266</ele>
        <time>2013-06-22T12:20:18Z</time>
      </trkpt>
      <trkpt lat="45.95526" lon="4.67764">
        <ele>266</ele>
        <time>2013-06-22T12:20:21Z</time>
      </trkpt>
      <trkpt lat="45.95517" lon="4.67759">
        <ele>266</ele>
        <time>2013-06-22T12:20:24Z</time>
      </trkpt>
      <trkpt lat="45.95509" lon="4.67754">
        <ele>267</ele>
        <time>2013-06-22T12:20:27Z</time>
      </trkpt>
      <trkpt lat="45.95502" lon="4.6775">
        <ele>267</ele>
        <time>2013-06-22T12:20:30Z</time>
      </trkpt>
      <trkpt lat="45.95492" lon="4.67752">
        <ele>265</ele>
        <time>2013-06-22T12:20:33Z</time>
      </trkpt>
      <trkpt lat="45.9548" lon="4.6775">
        <ele>264</ele>
        <time>2013-06-22T12:20:36Z</time>
      </trkpt>
      <trkpt lat="45.95467" lon="4.67749">
        <ele>268</ele>
        <time>2013-06-22T12:20:39Z</time>
      </trkpt>
      <trkpt lat="45.95457" lon="4.67747">
        <ele>267</ele>
        <time>2013-06-22T12:20:42Z</time>
      </trkpt>
      <trkpt lat="45.95448" lon="4.67745">
        <ele>267</ele>
        <time>2013-06-22T12:20:45Z</time>
      </trkpt>
      <trkpt lat="45.9544" lon="4.67741">
        <ele>267</ele>
        <time>2013-06-22T12:20:48Z</time>
      </trkpt>
      <trkpt lat="45.95434" lon="4.67736">
        <ele>267</ele>
        <time>2013-06-22T12:20:51Z</time>
      </trkpt>
      <trkpt lat="45.95428" lon="4.67732">
        <ele>267</ele>
        <time>2013-06-22T12:20:54Z</time>
      </trkpt>
      <trkpt lat="45.95422" lon="4.67727">
        <ele>267</ele>
        <time>2013-06-22T12:20:57Z</time>
      </trkpt>
      <trkpt lat="45.95416" lon="4.67721">
        <ele>266</ele>
        <time>2013-06-22T12:21:00Z</time>
      </trkpt>
      <trkpt lat="45.9541" lon="4.67716">
        <ele>267</ele>
        <time>2013-06-22T12:21:03Z</time>
      </trkpt>
      <trkpt lat="45.95403" lon="4.67711">
        <ele>267</ele>
        <time>2013-06-22T12:21:06Z</time>
      </trkpt>
      <trkpt lat="45.95397" lon="4.67705">
        <ele>267</ele>
        <time>2013-06-22T12:21:09Z</time>
      </trkpt>
      <trkpt lat="45.9539" lon="4.67701">
        <ele>267</ele>
        <time>2013-06-22T12:21:12Z</time>
      </trkpt>
      <trkpt lat="45.95383" lon="4.67696">
        <ele>268</ele>
        <time>2013-06-22T12:21:15Z</time>
      </trkpt>
      <trkpt lat="45.95376" lon="4.67691">
        <ele>268</ele>
        <time>2013-06-22T12:21:18Z</time>
      </trkpt>
      <trkpt lat="45.9537" lon="4.67686">
        <ele>268</ele>
        <time>2013-06-22T12:21:21Z</time>
      </trkpt>
      <trkpt lat="45.95362" lon="4.67682">
        <ele>268</ele>
        <time>2013-06-22T12:21:24Z</time>
      </trkpt>
      <trkpt lat="45.95353" lon="4.67677">
        <ele>268</ele>
        <time>2013-06-22T12:21:27Z</time>
      </trkpt>
      <trkpt lat="45.95345" lon="4.67674">
        <ele>268</ele>
        <time>2013-06-22T12:21:30Z</time>
      </trkpt>
      <trkpt lat="45.95337" lon="4.67671">
        <ele>269</ele>
        <time>2013-06-22T12:21:33Z</time>
      </trkpt>
      <trkpt lat="45.95329" lon="4.6767">
        <ele>269</ele>
        <time>2013-06-22T12:21:36Z</time>
      </trkpt>
      <trkpt lat="45.95322" lon="4.67667">
        <ele>268</ele>
        <time>2013-06-22T12:21:39Z</time>
      </trkpt>
      <trkpt lat="45.95314" lon="4.67665">
        <ele>271</ele>
        <time>2013-06-22T12:21:42Z</time>
      </trkpt>
      <trkpt lat="45.95305" lon="4.67663">
        <ele>271</ele>
        <time>2013-06-22T12:21:45Z</time>
      </trkpt>
      <trkpt lat="45.95296" lon="4.67661">
        <ele>272</ele>
        <time>2013-06-22T12:21:48Z</time>
      </trkpt>
      <trkpt lat="45.95289" lon="4.67659">
        <ele>272</ele>
        <time>2013-06-22T12:21:51Z</time>
      </trkpt>
      <trkpt lat="45.9528" lon="4.67658">
        <ele>272</ele>
        <time>2013-06-22T12:21:54Z</time>
      </trkpt>
      <trkpt lat="45.95272" lon="4.67656">
        <ele>271</ele>
        <time>2013-06-22T12:21:57Z</time>
      </trkpt>
      <trkpt lat="45.95263" lon="4.67655">
        <ele>271</ele>
        <time>2013-06-22T12:22:00Z</time>
      </trkpt>
      <trkpt lat="45.95253" lon="4.67653">
        <ele>271</ele>
        <time>2013-06-22T12:22:03Z</time>
      </trkpt>
      <trkpt lat="45.95244" lon="4.67651">
        <ele>271</ele>
        <time>2013-06-22T12:22:06Z</time>
      </trkpt>
      <trkpt lat="45.95234" lon="4.6765">
        <ele>271</ele>
        <time>2013-06-22T12:22:09Z</time>
      </trkpt>
      <trkpt lat="45.95224" lon="4.67649">
        <ele>272</ele>
        <time>2013-06-22T12:22:12Z</time>
      </trkpt>
      <trkpt lat="45.95214" lon="4.67647">
        <ele>272</ele>
        <time>2013-06-22T12:22:15Z</time>
      </trkpt>
      <trkpt lat="45.95204" lon="4.67646">
        <ele>272</ele>
        <time>2013-06-22T12:22:18Z</time>
      </trkpt>
      <trkpt lat="45.95195" lon="4.67645">
        <ele>272</ele>
        <time>2013-06-22T12:22:21Z</time>
      </trkpt>
      <trkpt lat="45.95185" lon="4.67644">
        <ele>272</ele>
        <time>2013-06-22T12:22:24Z</time>
      </trkpt>
      <trkpt lat="45.95177" lon="4.67642">
        <ele>272</ele>
        <time>2013-06-22T12:22:27Z</time>
      </trkpt>
      <trkpt lat="45.95167" lon="4.67641">
        <ele>272</ele>
        <time>2013-06-22T12:22:30Z</time>
      </trkpt>
      <trkpt lat="45.95157" lon="4.67639">
        <ele>273</ele>
        <time>2013-06-22T12:22:33Z</time>
      </trkpt>
      <trkpt lat="45.95145" lon="4.67637">
        <ele>273</ele>
        <time>2013-06-22T12:22:36Z</time>
      </trkpt>
      <trkpt lat="45.95134" lon="4.67635">
        <ele>274</ele>
        <time>2013-06-22T12:22:39Z</time>
      </trkpt>
      <trkpt lat="45.95124" lon="4.67634">
        <ele>274</ele>
        <time>2013-06-22T12:22:42Z</time>
      </trkpt>
      <trkpt lat="45.95115" lon="4.67633">
        <ele>274</ele>
        <time>2013-06-22T12:22:45Z</time>
      </trkpt>
      <trkpt lat="45.95106" lon="4.67631">
        <ele>274</ele>
        <time>2013-06-22T12:22:48Z</time>
      </trkpt>
      <trkpt lat="45.95096" lon="4.6763">
        <ele>274</ele>
        <time>2013-06-22T12:22:51Z</time>
      </trkpt>
      <trkpt lat="45.95086" lon="4.67629">
        <ele>274</ele>
        <time>2013-06-22T12:22:54Z</time>
      </trkpt>
      <trkpt lat="45.95075" lon="4.67627">
        <ele>274</ele>
        <time>2013-06-22T12:22:57Z</time>
      </trkpt>
      <trkpt lat="45.95064" lon="4.67625">
        <ele>274</ele>
        <time>2013-06-22T12:23:00Z</time>
      </trkpt>
      <trkpt lat="45.95054" lon="4.67623">
        <ele>274</ele>
        <time>2013-06-22T12:23:03Z</time>
      </trkpt>
      <trkpt lat="45.95043" lon="4.67621">
        <ele>273</ele>
        <time>2013-06-22T12:23:06Z</time>
      </trkpt>
      <trkpt lat="45.95033" lon="4.67619">
        <ele>273</ele>
        <time>2013-06-22T12:23:09Z</time>
      </trkpt>
      <trkpt lat="45.95023" lon="4.67617">
        <ele>273</ele>
        <time>2013-06-22T12:23:12Z</time>
      </trkpt>
      <trkpt lat="45.95015" lon="4.67613">
        <ele>273</ele>
        <time>2013-06-22T12:23:15Z</time>
      </trkpt>
      <trkpt lat="45.95005" lon="4.67612">
        <ele>273</ele>
        <time>2013-06-22T12:23:18Z</time>
      </trkpt>
      <trkpt lat="45.94995" lon="4.6761">
        <ele>273</ele>
        <time>2013-06-22T12:23:21Z</time>
      </trkpt>
      <trkpt lat="45.94986" lon="4.67608">
        <ele>273</ele>
        <time>2013-06-22T12:23:24Z</time>
      </trkpt>
      <trkpt lat="45.94977" lon="4.67605">
        <ele>273</ele>
        <time>2013-06-22T12:23:27Z</time>
      </trkpt>
      <trkpt lat="45.94967" lon="4.67602">
        <ele>273</ele>
        <time>2013-06-22T12:23:30Z</time>
      </trkpt>
      <trkpt lat="45.94957" lon="4.67599">
        <ele>273</ele>
        <time>2013-06-22T12:23:33Z</time>
      </trkpt>
      <trkpt lat="45.94947" lon="4.67595">
        <ele>273</ele>
        <time>2013-06-22T12:23:36Z</time>
      </trkpt>
      <trkpt lat="45.94937" lon="4.6759">
        <ele>273</ele>
        <time>2013-06-22T12:23:39Z</time>
      </trkpt>
      <trkpt lat="45.94928" lon="4.67588">
        <ele>274</ele>
        <time>2013-06-22T12:23:42Z</time>
      </trkpt>
      <trkpt lat="45.94918" lon="4.67585">
        <ele>275</ele>
        <time>2013-06-22T12:23:45Z</time>
      </trkpt>
      <trkpt lat="45.9491" lon="4.67582">
        <ele>276</ele>
        <time>2013-06-22T12:23:48Z</time>
      </trkpt>
      <trkpt lat="45.94901" lon="4.6758">
        <ele>277</ele>
        <time>2013-06-22T12:23:51Z</time>
      </trkpt>
      <trkpt lat="45.94892" lon="4.67577">
        <ele>277</ele>
        <time>2013-06-22T12:23:54Z</time>
      </trkpt>
      <trkpt lat="45.94885" lon="4.67575">
        <ele>277</ele>
        <time>2013-06-22T12:23:57Z</time>
      </trkpt>
      <trkpt lat="45.94876" lon="4.67571">
        <ele>278</ele>
        <time>2013-06-22T12:24:00Z</time>
      </trkpt>
      <trkpt lat="45.94868" lon="4.67569">
        <ele>278</ele>
        <time>2013-06-22T12:24:03Z</time>
      </trkpt>
      <trkpt lat="45.94861" lon="4.67567">
        <ele>278</ele>
        <time>2013-06-22T12:24:06Z</time>
      </trkpt>
      <trkpt lat="45.94853" lon="4.67564">
        <ele>278</ele>
        <time>2013-06-22T12:24:09Z</time>
      </trkpt>
      <trkpt lat="45.94844" lon="4.67561">
        <ele>278</ele>
        <time>2013-06-22T12:24:12Z</time>
      </trkpt>
      <trkpt lat="45.94838" lon="4.6756">
        <ele>278</ele>
        <time>2013-06-22T12:24:15Z</time>
      </trkpt>
      <trkpt lat="45.94829" lon="4.67557">
        <ele>279</ele>
        <time>2013-06-22T12:24:18Z</time>
      </trkpt>
      <trkpt lat="45.94821" lon="4.67555">
        <ele>279</ele>
        <time>2013-06-22T12:24:21Z</time>
      </trkpt>
      <trkpt lat="45.94814" lon="4.67553">
        <ele>279</ele>
        <time>2013-06-22T12:24:24Z</time>
      </trkpt>
      <trkpt lat="45.94803" lon="4.6755">
        <ele>279</ele>
        <time>2013-06-22T12:24:27Z</time>
      </trkpt>
      <trkpt lat="45.94793" lon="4.67548">
        <ele>280</ele>
        <time>2013-06-22T12:24:30Z</time>
      </trkpt>
      <trkpt lat="45.94784" lon="4.67545">
        <ele>280</ele>
        <time>2013-06-22T12:24:33Z</time>
      </trkpt>
      <trkpt lat="45.94775" lon="4.67544">
        <ele>280</ele>
        <time>2013-06-22T12:24:36Z</time>
      </trkpt>
      <trkpt lat="45.94765" lon="4.67544">
        <ele>280</ele>
        <time>2013-06-22T12:24:39Z</time>
      </trkpt>
      <trkpt lat="45.94755" lon="4.67545">
        <ele>280</ele>
        <time>2013-06-22T12:24:42Z</time>
      </trkpt>
      <trkpt lat="45.94746" lon="4.67544">
        <ele>280</ele>
        <time>2013-06-22T12:24:45Z</time>
      </trkpt>
      <trkpt lat="45.94737" lon="4.67543">
        <ele>280</ele>
        <time>2013-06-22T12:24:48Z</time>
      </trkpt>
      <trkpt lat="45.94728" lon="4.67539">
        <ele>280</ele>
        <time>2013-06-22T12:24:51Z</time>
      </trkpt>
      <trkpt lat="45.94719" lon="4.67535">
        <ele>280</ele>
        <time>2013-06-22T12:24:54Z</time>
      </trkpt>
      <trkpt lat="45.9471" lon="4.67531">
        <ele>280</ele>
        <time>2013-06-22T12:24:57Z</time>
      </trkpt>
      <trkpt lat="45.94703" lon="4.67526">
        <ele>280</ele>
        <time>2013-06-22T12:25:00Z</time>
      </trkpt>
      <trkpt lat="45.947" lon="4.67519">
        <ele>280</ele>
        <time>2013-06-22T12:25:03Z</time>
      </trkpt>
      <trkpt lat="45.94701" lon="4.67512">
        <ele>280</ele>
        <time>2013-06-22T12:25:06Z</time>
      </trkpt>
      <trkpt lat="45.94704" lon="4.67505">
        <ele>280</ele>
        <time>2013-06-22T12:25:09Z</time>
      </trkpt>
      <trkpt lat="45.94707" lon="4.67496">
        <ele>282</ele>
        <time>2013-06-22T12:25:12Z</time>
      </trkpt>
      <trkpt lat="45.94709" lon="4.67486">
        <ele>282</ele>
        <time>2013-06-22T12:25:15Z</time>
      </trkpt>
      <trkpt lat="45.94711" lon="4.67477">
        <ele>282</ele>
        <time>2013-06-22T12:25:18Z</time>
      </trkpt>
      <trkpt lat="45.94713" lon="4.67467">
        <ele>283</ele>
        <time>2013-06-22T12:25:21Z</time>
      </trkpt>
      <trkpt lat="45.94713" lon="4.67457">
        <ele>283</ele>
        <time>2013-06-22T12:25:24Z</time>
      </trkpt>
      <trkpt lat="45.94715" lon="4.67448">
        <ele>283</ele>
        <time>2013-06-22T12:25:27Z</time>
      </trkpt>
      <trkpt lat="45.94717" lon="4.67439">
        <ele>283</ele>
        <time>2013-06-22T12:25:30Z</time>
      </trkpt>
      <trkpt lat="45.94718" lon="4.67428">
        <ele>284</ele>
        <time>2013-06-22T12:25:33Z</time>
      </trkpt>
      <trkpt lat="45.94721" lon="4.67418">
        <ele>284</ele>
        <time>2013-06-22T12:25:36Z</time>
      </trkpt>
      <trkpt lat="45.94722" lon="4.67408">
        <ele>286</ele>
        <time>2013-06-22T12:25:39Z</time>
      </trkpt>
      <trkpt lat="45.94722" lon="4.67398">
        <ele>287</ele>
        <time>2013-06-22T12:25:42Z</time>
      </trkpt>
      <trkpt lat="45.94723" lon="4.6739">
        <ele>287</ele>
        <time>2013-06-22T12:25:45Z</time>
      </trkpt>
      <trkpt lat="45.94726" lon="4.67382">
        <ele>287</ele>
        <time>2013-06-22T12:25:48Z</time>
      </trkpt>
      <trkpt lat="45.94729" lon="4.67373">
        <ele>287</ele>
        <time>2013-06-22T12:25:51Z</time>
      </trkpt>
      <trkpt lat="45.94731" lon="4.67364">
        <ele>287</ele>
        <time>2013-06-22T12:25:54Z</time>
      </trkpt>
      <trkpt lat="45.94733" lon="4.67354">
        <ele>287</ele>
        <time>2013-06-22T12:25:57Z</time>
      </trkpt>
      <trkpt lat="45.94735" lon="4.67343">
        <ele>288</ele>
        <time>2013-06-22T12:26:00Z</time>
      </trkpt>
      <trkpt lat="45.94737" lon="4.67333">
        <ele>289</ele>
        <time>2013-06-22T12:26:03Z</time>
      </trkpt>
      <trkpt lat="45.9474" lon="4.67325">
        <ele>289</ele>
        <time>2013-06-22T12:26:06Z</time>
      </trkpt>
      <trkpt lat="45.94737" lon="4.67316">
        <ele>289</ele>
        <time>2013-06-22T12:26:09Z</time>
      </trkpt>
      <trkpt lat="45.94731" lon="4.6731">
        <ele>289</ele>
        <time>2013-06-22T12:26:12Z</time>
      </trkpt>
      <trkpt lat="45.94723" lon="4.6731">
        <ele>289</ele>
        <time>2013-06-22T12:26:15Z</time>
      </trkpt>
      <trkpt lat="45.94714" lon="4.67309">
        <ele>289</ele>
        <time>2013-06-22T12:26:18Z</time>
      </trkpt>
      <trkpt lat="45.94706" lon="4.67312">
        <ele>289</ele>
        <time>2013-06-22T12:26:21Z</time>
      </trkpt>
      <trkpt lat="45.94697" lon="4.67314">
        <ele>289</ele>
        <time>2013-06-22T12:26:24Z</time>
      </trkpt>
      <trkpt lat="45.94686" lon="4.67316">
        <ele>289</ele>
        <time>2013-06-22T12:26:27Z</time>
      </trkpt>
      <trkpt lat="45.94676" lon="4.6732">
        <ele>290</ele>
        <time>2013-06-22T12:26:30Z</time>
      </trkpt>
      <trkpt lat="45.94668" lon="4.67322">
        <ele>290</ele>
        <time>2013-06-22T12:26:33Z</time>
      </trkpt>
      <trkpt lat="45.94658" lon="4.67324">
        <ele>290</ele>
        <time>2013-06-22T12:26:36Z</time>
      </trkpt>
      <trkpt lat="45.94648" lon="4.67327">
        <ele>290</ele>
        <time>2013-06-22T12:26:39Z</time>
      </trkpt>
      <trkpt lat="45.94638" lon="4.67328">
        <ele>290</ele>
        <time>2013-06-22T12:26:42Z</time>
      </trkpt>
      <trkpt lat="45.94628" lon="4.67329">
        <ele>290</ele>
        <time>2013-06-22T12:26:45Z</time>
      </trkpt>
      <trkpt lat="45.94618" lon="4.6733">
        <ele>290</ele>
        <time>2013-06-22T12:26:48Z</time>
      </trkpt>
      <trkpt lat="45.94608" lon="4.6733">
        <ele>290</ele>
        <time>2013-06-22T12:26:51Z</time>
      </trkpt>
      <trkpt lat="45.94598" lon="4.6733">
        <ele>289</ele>
        <time>2013-06-22T12:26:54Z</time>
      </trkpt>
      <trkpt lat="45.94588" lon="4.6733">
        <ele>289</ele>
        <time>2013-06-22T12:26:57Z</time>
      </trkpt>
      <trkpt lat="45.94579" lon="4.67329">
        <ele>289</ele>
        <time>2013-06-22T12:27:00Z</time>
      </trkpt>
      <trkpt lat="45.9457" lon="4.6733">
        <ele>289</ele>
        <time>2013-06-22T12:27:03Z</time>
      </trkpt>
      <trkpt lat="45.94561" lon="4.67329">
        <ele>289</ele>
        <time>2013-06-22T12:27:06Z</time>
      </trkpt>
      <trkpt lat="45.94551" lon="4.67329">
        <ele>289</ele>
        <time>2013-06-22T12:27:09Z</time>
      </trkpt>
      <trkpt lat="45.94542" lon="4.67329">
        <ele>289</ele>
        <time>2013-06-22T12:27:12Z</time>
      </trkpt>
      <trkpt lat="45.94532" lon="4.67328">
        <ele>289</ele>
        <time>2013-06-22T12:27:15Z</time>
      </trkpt>
      <trkpt lat="45.94524" lon="4.67328">
        <ele>289</ele>
        <time>2013-06-22T12:27:18Z</time>
      </trkpt>
      <trkpt lat="45.94516" lon="4.67329">
        <ele>289</ele>
        <time>2013-06-22T12:27:21Z</time>
      </trkpt>
      <trkpt lat="45.94507" lon="4.67329">
        <ele>289</ele>
        <time>2013-06-22T12:27:24Z</time>
      </trkpt>
      <trkpt lat="45.94499" lon="4.67327">
        <ele>289</ele>
        <time>2013-06-22T12:27:27Z</time>
      </trkpt>
      <trkpt lat="45.9449" lon="4.67328">
        <ele>290</ele>
        <time>2013-06-22T12:27:30Z</time>
      </trkpt>
      <trkpt lat="45.94481" lon="4.6733">
        <ele>290</ele>
        <time>2013-06-22T12:27:33Z</time>
      </trkpt>
      <trkpt lat="45.94472" lon="4.67329">
        <ele>291</ele>
        <time>2013-06-22T12:27:36Z</time>
      </trkpt>
      <trkpt lat="45.94462" lon="4.67328">
        <ele>292</ele>
        <time>2013-06-22T12:27:39Z</time>
      </trkpt>
      <trkpt lat="45.94453" lon="4.67328">
        <ele>292</ele>
        <time>2013-06-22T12:27:42Z</time>
      </trkpt>
      <trkpt lat="45.94444" lon="4.67327">
        <ele>293</ele>
        <time>2013-06-22T12:27:45Z</time>
      </trkpt>
      <trkpt lat="45.94434" lon="4.67326">
        <ele>293</ele>
        <time>2013-06-22T12:27:48Z</time>
      </trkpt>
      <trkpt lat="45.94426" lon="4.67326">
        <ele>293</ele>
        <time>2013-06-22T12:27:51Z</time>
      </trkpt>
      <trkpt lat="45.94419" lon="4.67327">
        <ele>294</ele>
        <time>2013-06-22T12:27:54Z</time>
      </trkpt>
      <trkpt lat="45.94411" lon="4.67328">
        <ele>294</ele>
        <time>2013-06-22T12:27:57Z</time>
      </trkpt>
      <trkpt lat="45.94402" lon="4.67329">
        <ele>294</ele>
        <time>2013-06-22T12:28:00Z</time>
      </trkpt>
      <trkpt lat="45.94393" lon="4.6733">
        <ele>293</ele>
        <time>2013-06-22T12:28:03Z</time>
      </trkpt>
      <trkpt lat="45.9438" lon="4.67331">
        <ele>293</ele>
        <time>2013-06-22T12:28:06Z</time>
      </trkpt>
      <trkpt lat="45.94371" lon="4.67332">
        <ele>293</ele>
        <time>2013-06-22T12:28:09Z</time>
      </trkpt>
      <trkpt lat="45.94361" lon="4.6733">
        <ele>292</ele>
        <time>2013-06-22T12:28:12Z</time>
      </trkpt>
      <trkpt lat="45.94347" lon="4.67326">
        <ele>292</ele>
        <time>2013-06-22T12:28:15Z</time>
      </trkpt>
      <trkpt lat="45.94333" lon="4.67324">
        <ele>290</ele>
        <time>2013-06-22T12:28:18Z</time>
      </trkpt>
      <trkpt lat="45.94322" lon="4.67323">
        <ele>290</ele>
        <time>2013-06-22T12:28:21Z</time>
      </trkpt>
      <trkpt lat="45.94313" lon="4.67325">
        <ele>289</ele>
        <time>2013-06-22T12:28:24Z</time>
      </trkpt>
      <trkpt lat="45.94302" lon="4.67327">
        <ele>289</ele>
        <time>2013-06-22T12:28:27Z</time>
      </trkpt>
      <trkpt lat="45.94292" lon="4.67332">
        <ele>288</ele>
        <time>2013-06-22T12:28:30Z</time>
      </trkpt>
      <trkpt lat="45.94282" lon="4.67336">
        <ele>286</ele>
        <time>2013-06-22T12:28:33Z</time>
      </trkpt>
      <trkpt lat="45.94272" lon="4.67341">
        <ele>285</ele>
        <time>2013-06-22T12:28:36Z</time>
      </trkpt>
      <trkpt lat="45.94262" lon="4.67346">
        <ele>285</ele>
        <time>2013-06-22T12:28:39Z</time>
      </trkpt>
      <trkpt lat="45.94252" lon="4.67349">
        <ele>285</ele>
        <time>2013-06-22T12:28:42Z</time>
      </trkpt>
      <trkpt lat="45.94243" lon="4.67354">
        <ele>284</ele>
        <time>2013-06-22T12:28:45Z</time>
      </trkpt>
      <trkpt lat="45.94233" lon="4.67359">
        <ele>284</ele>
        <time>2013-06-22T12:28:48Z</time>
      </trkpt>
      <trkpt lat="45.94224" lon="4.6736">
        <ele>284</ele>
        <time>2013-06-22T12:28:51Z</time>
      </trkpt>
      <trkpt lat="45.94217" lon="4.67363">
        <ele>284</ele>
        <time>2013-06-22T12:28:54Z</time>
      </trkpt>
      <trkpt lat="45.94209" lon="4.67368">
        <ele>284</ele>
        <time>2013-06-22T12:28:57Z</time>
      </trkpt>
      <trkpt lat="45.942" lon="4.67377">
        <ele>284</ele>
        <time>2013-06-22T12:29:00Z</time>
      </trkpt>
      <trkpt lat="45.94193" lon="4.67389">
        <ele>284</ele>
        <time>2013-06-22T12:29:03Z</time>
      </trkpt>
      <trkpt lat="45.94185" lon="4.67402">
        <ele>284</ele>
        <time>2013-06-22T12:29:06Z</time>
      </trkpt>
      <trkpt lat="45.94181" lon="4.67414">
        <ele>284</ele>
        <time>2013-06-22T12:29:09Z</time>
      </trkpt>
      <trkpt lat="45.94176" lon="4.67423">
        <ele>284</ele>
        <time>2013-06-22T12:29:12Z</time>
      </trkpt>
      <trkpt lat="45.94173" lon="4.67431">
        <ele>284</ele>
        <time>2013-06-22T12:29:15Z</time>
      </trkpt>
      <trkpt lat="45.94169" lon="4.67438">
        <ele>285</ele>
        <time>2013-06-22T12:29:18Z</time>
      </trkpt>
      <trkpt lat="45.94166" lon="4.67447">
        <ele>287</ele>
        <time>2013-06-22T12:29:21Z</time>
      </trkpt>
      <trkpt lat="45.94165" lon="4.67456">
        <ele>288</ele>
        <time>2013-06-22T12:29:24Z</time>
      </trkpt>
      <trkpt lat="45.94162" lon="4.67465">
        <ele>288</ele>
        <time>2013-06-22T12:29:27Z</time>
      </trkpt>
      <trkpt lat="45.94157" lon="4.67471">
        <ele>288</ele>
        <time>2013-06-22T12:29:30Z</time>
      </trkpt>
      <trkpt lat="45.94152" lon="4.67482">
        <ele>288</ele>
        <time>2013-06-22T12:29:33Z</time>
      </trkpt>
      <trkpt lat="45.94145" lon="4.67493">
        <ele>289</ele>
        <time>2013-06-22T12:29:36Z</time>
      </trkpt>
      <trkpt lat="45.94139" lon="4.67505">
        <ele>289</ele>
        <time>2013-06-22T12:29:39Z</time>
      </trkpt>
      <trkpt lat="45.94134" lon="4.67516">
        <ele>289</ele>
        <time>2013-06-22T12:29:42Z</time>
      </trkpt>
      <trkpt lat="45.94128" lon="4.67528">
        <ele>289</ele>
        <time>2013-06-22T12:29:45Z</time>
      </trkpt>
      <trkpt lat="45.94127" lon="4.6754">
        <ele>289</ele>
        <time>2013-06-22T12:29:48Z</time>
      </trkpt>
      <trkpt lat="45.94124" lon="4.67551">
        <ele>289</ele>
        <time>2013-06-22T12:29:51Z</time>
      </trkpt>
      <trkpt lat="45.94127" lon="4.67563">
        <ele>289</ele>
        <time>2013-06-22T12:29:54Z</time>
      </trkpt>
      <trkpt lat="45.94128" lon="4.67573">
        <ele>289</ele>
        <time>2013-06-22T12:29:57Z</time>
      </trkpt>
      <trkpt lat="45.9413" lon="4.67587">
        <ele>288</ele>
        <time>2013-06-22T12:30:00Z</time>
      </trkpt>
      <trkpt lat="45.94132" lon="4.67599">
        <ele>288</ele>
        <time>2013-06-22T12:30:03Z</time>
      </trkpt>
      <trkpt lat="45.94132" lon="4.67616">
        <ele>288</ele>
        <time>2013-06-22T12:30:06Z</time>
      </trkpt>
      <trkpt lat="45.94138" lon="4.67644">
        <ele>288</ele>
        <time>2013-06-22T12:30:09Z</time>
      </trkpt>
      <trkpt lat="45.94141" lon="4.67662">
        <ele>288</ele>
        <time>2013-06-22T12:30:12Z</time>
      </trkpt>
      <trkpt lat="45.94146" lon="4.67677">
        <ele>286</ele>
        <time>2013-06-22T12:30:15Z</time>
      </trkpt>
      <trkpt lat="45.94145" lon="4.67689">
        <ele>286</ele>
        <time>2013-06-22T12:30:18Z</time>
      </trkpt>
      <trkpt lat="45.94139" lon="4.67704">
        <ele>286</ele>
        <time>2013-06-22T12:30:21Z</time>
      </trkpt>
      <trkpt lat="45.94137" lon="4.67718">
        <ele>286</ele>
        <time>2013-06-22T12:30:24Z</time>
      </trkpt>
      <trkpt lat="45.94134" lon="4.67732">
        <ele>286</ele>
        <time>2013-06-22T12:30:27Z</time>
      </trkpt>
      <trkpt lat="45.94132" lon="4.67747">
        <ele>286</ele>
        <time>2013-06-22T12:30:30Z</time>
      </trkpt>
      <trkpt lat="45.94134" lon="4.67761">
        <ele>282</ele>
        <time>2013-06-22T12:30:33Z</time>
      </trkpt>
      <trkpt lat="45.94133" lon="4.67774">
        <ele>281</ele>
        <time>2013-06-22T12:30:36Z</time>
      </trkpt>
      <trkpt lat="45.94131" lon="4.67789">
        <ele>281</ele>
        <time>2013-06-22T12:30:39Z</time>
      </trkpt>
      <trkpt lat="45.9413" lon="4.678">
        <ele>280</ele>
        <time>2013-06-22T12:30:42Z</time>
      </trkpt>
      <trkpt lat="45.9413" lon="4.67808">
        <ele>280</ele>
        <time>2013-06-22T12:30:45Z</time>
      </trkpt>
      <trkpt lat="45.9413" lon="4.67816">
        <ele>279</ele>
        <time>2013-06-22T12:30:48Z</time>
      </trkpt>
      <trkpt lat="45.94127" lon="4.67825">
        <ele>279</ele>
        <time>2013-06-22T12:30:51Z</time>
      </trkpt>
      <trkpt lat="45.94125" lon="4.67836">
        <ele>274</ele>
        <time>2013-06-22T12:30:54Z</time>
      </trkpt>
      <trkpt lat="45.94123" lon="4.67849">
        <ele>273</ele>
        <time>2013-06-22T12:30:57Z</time>
      </trkpt>
      <trkpt lat="45.94122" lon="4.67866">
        <ele>273</ele>
        <time>2013-06-22T12:31:00Z</time>
      </trkpt>
      <trkpt lat="45.94121" lon="4.67881">
        <ele>272</ele>
        <time>2013-06-22T12:31:03Z</time>
      </trkpt>
      <trkpt lat="45.94122" lon="4.67894">
        <ele>271</ele>
        <time>2013-06-22T12:31:06Z</time>
      </trkpt>
      <trkpt lat="45.94122" lon="4.67905">
        <ele>271</ele>
        <time>2013-06-22T12:31:09Z</time>
      </trkpt>
      <trkpt lat="45.94125" lon="4.67916">
        <ele>271</ele>
        <time>2013-06-22T12:31:12Z</time>
      </trkpt>
      <trkpt lat="45.94125" lon="4.67925">
        <ele>270</ele>
        <time>2013-06-22T12:31:15Z</time>
      </trkpt>
      <trkpt lat="45.94125" lon="4.67933">
        <ele>271</ele>
        <time>2013-06-22T12:31:18Z</time>
      </trkpt>
      <trkpt lat="45.94125" lon="4.6794">
        <ele>271</ele>
        <time>2013-06-22T12:31:21Z</time>
      </trkpt>
      <trkpt lat="45.94123" lon="4.67945">
        <ele>271</ele>
        <time>2013-06-22T12:31:24Z</time>
      </trkpt>
      <trkpt lat="45.94123" lon="4.6795">
        <ele>271</ele>
        <time>2013-06-22T12:31:27Z</time>
      </trkpt>
      <trkpt lat="45.94122" lon="4.67955">
        <ele>271</ele>
        <time>2013-06-22T12:31:30Z</time>
      </trkpt>
      <trkpt lat="45.94121" lon="4.6796">
        <ele>272</ele>
        <time>2013-06-22T12:31:33Z</time>
      </trkpt>
      <trkpt lat="45.94121" lon="4.67964">
        <ele>272</ele>
        <time>2013-06-22T12:31:36Z</time>
      </trkpt>
      <trkpt lat="45.94121" lon="4.6797">
        <ele>272</ele>
        <time>2013-06-22T12:31:39Z</time>
      </trkpt>
      <trkpt lat="45.94122" lon="4.67975">
        <ele>272</ele>
        <time>2013-06-22T12:31:43Z</time>
      </trkpt>
      <trkpt lat="45.94122" lon="4.67979">
        <ele>272</ele>
        <time>2013-06-22T12:31:46Z</time>
      </trkpt>
      <trkpt lat="45.94123" lon="4.67984">
        <ele>272</ele>
        <time>2013-06-22T12:31:49Z</time>
      </trkpt>
      <trkpt lat="45.94122" lon="4.67989">
        <ele>273</ele>
        <time>2013-06-22T12:31:52Z</time>
      </trkpt>
      <trkpt lat="45.94121" lon="4.67994">
        <ele>273</ele>
        <time>2013-06-22T12:31:55Z</time>
      </trkpt>
      <trkpt lat="45.94118" lon="4.67999">
        <ele>273</ele>
        <time>2013-06-22T12:31:58Z</time>
      </trkpt>
      <trkpt lat="45.94117" lon="4.68003">
        <ele>278</ele>
        <time>2013-06-22T12:32:01Z</time>
      </trkpt>
      <trkpt lat="45.94117" lon="4.68007">
        <ele>278</ele>
        <time>2013-06-22T12:32:04Z</time>
      </trkpt>
      <trkpt lat="45.94116" lon="4.6801">
        <ele>278</ele>
        <time>2013-06-22T12:32:07Z</time>
      </trkpt>
      <trkpt lat="45.94116" lon="4.68014">
        <ele>278</ele>
        <time>2013-06-22T12:32:10Z</time>
      </trkpt>
      <trkpt lat="45.94114" lon="4.68018">
        <ele>278</ele>
        <time>2013-06-22T12:32:13Z</time>
      </trkpt>
      <trkpt lat="45.94113" lon="4.68023">
        <ele>278</ele>
        <time>2013-06-22T12:32:16Z</time>
      </trkpt>
      <trkpt lat="45.94113" lon="4.68028">
        <ele>279</ele>
        <time>2013-06-22T12:32:19Z</time>
      </trkpt>
      <trkpt lat="45.94113" lon="4.68033">
        <ele>279</ele>
        <time>2013-06-22T12:32:23Z</time>
      </trkpt>
      <trkpt lat="45.94112" lon="4.68036">
        <ele>279</ele>
        <time>2013-06-22T12:32:26Z</time>
      </trkpt>
      <trkpt lat="45.94112" lon="4.6804">
        <ele>279</ele>
        <time>2013-06-22T12:32:29Z</time>
      </trkpt>
      <trkpt lat="45.94111" lon="4.68044">
        <ele>279</ele>
        <time>2013-06-22T12:32:32Z</time>
      </trkpt>
      <trkpt lat="45.9411" lon="4.68049">
        <ele>280</ele>
        <time>2013-06-22T12:32:36Z</time>
      </trkpt>
      <trkpt lat="45.9411" lon="4.68054">
        <ele>280</ele>
        <time>2013-06-22T12:32:39Z</time>
      </trkpt>
      <trkpt lat="45.94108" lon="4.68058">
        <ele>280</ele>
        <time>2013-06-22T12:32:43Z</time>
      </trkpt>
      <trkpt lat="45.94107" lon="4.68063">
        <ele>281</ele>
        <time>2013-06-22T12:32:46Z</time>
      </trkpt>
      <trkpt lat="45.94107" lon="4.68068">
        <ele>281</ele>
        <time>2013-06-22T12:32:49Z</time>
      </trkpt>
      <trkpt lat="45.94105" lon="4.68072">
        <ele>281</ele>
        <time>2013-06-22T12:32:52Z</time>
      </trkpt>
      <trkpt lat="45.94103" lon="4.68076">
        <ele>281</ele>
        <time>2013-06-22T12:32:55Z</time>
      </trkpt>
      <trkpt lat="45.94101" lon="4.6808">
        <ele>281</ele>
        <time>2013-06-22T12:32:58Z</time>
      </trkpt>
      <trkpt lat="45.94099" lon="4.68085">
        <ele>285</ele>
        <time>2013-06-22T12:33:01Z</time>
      </trkpt>
      <trkpt lat="45.94096" lon="4.68087">
        <ele>285</ele>
        <time>2013-06-22T12:33:04Z</time>
      </trkpt>
      <trkpt lat="45.94049" lon="4.68077">
        <ele>280</ele>
        <time>2013-06-22T12:33:15Z</time>
      </trkpt>
      <trkpt lat="45.94044" lon="4.68084">
        <ele>285</ele>
        <time>2013-06-22T12:33:18Z</time>
      </trkpt>
      <trkpt lat="45.94034" lon="4.68087">
        <ele>285</ele>
        <time>2013-06-22T12:33:21Z</time>
      </trkpt>
      <trkpt lat="45.94027" lon="4.68086">
        <ele>285</ele>
        <time>2013-06-22T12:33:24Z</time>
      </trkpt>
      <trkpt lat="45.94022" lon="4.68088">
        <ele>285</ele>
        <time>2013-06-22T12:33:27Z</time>
      </trkpt>
      <trkpt lat="45.94016" lon="4.68086">
        <ele>284</ele>
        <time>2013-06-22T12:33:30Z</time>
      </trkpt>
      <trkpt lat="45.9401" lon="4.68087">
        <ele>284</ele>
        <time>2013-06-22T12:33:33Z</time>
      </trkpt>
      <trkpt lat="45.94002" lon="4.68088">
        <ele>283</ele>
        <time>2013-06-22T12:33:36Z</time>
      </trkpt>
      <trkpt lat="45.93996" lon="4.68088">
        <ele>283</ele>
        <time>2013-06-22T12:33:39Z</time>
      </trkpt>
      <trkpt lat="45.9399" lon="4.68087">
        <ele>284</ele>
        <time>2013-06-22T12:33:42Z</time>
      </trkpt>
      <trkpt lat="45.93983" lon="4.68084">
        <ele>285</ele>
        <time>2013-06-22T12:33:45Z</time>
      </trkpt>
      <trkpt lat="45.93975" lon="4.68079">
        <ele>281</ele>
        <time>2013-06-22T12:33:48Z</time>
      </trkpt>
      <trkpt lat="45.93968" lon="4.68072">
        <ele>281</ele>
        <time>2013-06-22T12:33:51Z</time>
      </trkpt>
      <trkpt lat="45.93961" lon="4.68065">
        <ele>281</ele>
        <time>2013-06-22T12:33:54Z</time>
      </trkpt>
      <trkpt lat="45.93954" lon="4.68057">
        <ele>281</ele>
        <time>2013-06-22T12:33:57Z</time>
      </trkpt>
      <trkpt lat="45.93947" lon="4.68049">
        <ele>281</ele>
        <time>2013-06-22T12:34:00Z</time>
      </trkpt>
      <trkpt lat="45.9394" lon="4.68041">
        <ele>281</ele>
        <time>2013-06-22T12:34:03Z</time>
      </trkpt>
      <trkpt lat="45.93934" lon="4.6803">
        <ele>280</ele>
        <time>2013-06-22T12:34:06Z</time>
      </trkpt>
      <trkpt lat="45.93927" lon="4.68019">
        <ele>280</ele>
        <time>2013-06-22T12:34:09Z</time>
      </trkpt>
      <trkpt lat="45.93922" lon="4.68011">
        <ele>280</ele>
        <time>2013-06-22T12:34:12Z</time>
      </trkpt>
      <trkpt lat="45.93916" lon="4.68003">
        <ele>280</ele>
        <time>2013-06-22T12:34:15Z</time>
      </trkpt>
      <trkpt lat="45.93909" lon="4.67993">
        <ele>279</ele>
        <time>2013-06-22T12:34:18Z</time>
      </trkpt>
      <trkpt lat="45.93902" lon="4.67984">
        <ele>279</ele>
        <time>2013-06-22T12:34:21Z</time>
      </trkpt>
      <trkpt lat="45.93895" lon="4.67974">
        <ele>278</ele>
        <time>2013-06-22T12:34:24Z</time>
      </trkpt>
      <trkpt lat="45.93888" lon="4.67965">
        <ele>278</ele>
        <time>2013-06-22T12:34:27Z</time>
      </trkpt>
      <trkpt lat="45.93881" lon="4.67957">
        <ele>278</ele>
        <time>2013-06-22T12:34:30Z</time>
      </trkpt>
      <trkpt lat="45.93872" lon="4.67948">
        <ele>278</ele>
        <time>2013-06-22T12:34:33Z</time>
      </trkpt>
      <trkpt lat="45.93862" lon="4.6794">
        <ele>278</ele>
        <time>2013-06-22T12:34:36Z</time>
      </trkpt>
      <trkpt lat="45.93854" lon="4.67933">
        <ele>278</ele>
        <time>2013-06-22T12:34:39Z</time>
      </trkpt>
      <trkpt lat="45.93846" lon="4.67927">
        <ele>278</ele>
        <time>2013-06-22T12:34:42Z</time>
      </trkpt>
      <trkpt lat="45.93837" lon="4.6792">
        <ele>278</ele>
        <time>2013-06-22T12:34:45Z</time>
      </trkpt>
      <trkpt lat="45.93829" lon="4.67913">
        <ele>278</ele>
        <time>2013-06-22T12:34:48Z</time>
      </trkpt>
      <trkpt lat="45.93822" lon="4.67908">
        <ele>277</ele>
        <time>2013-06-22T12:34:51Z</time>
      </trkpt>
      <trkpt lat="45.93814" lon="4.67902">
        <ele>277</ele>
        <time>2013-06-22T12:34:54Z</time>
      </trkpt>
      <trkpt lat="45.93806" lon="4.67895">
        <ele>276</ele>
        <time>2013-06-22T12:34:57Z</time>
      </trkpt>
      <trkpt lat="45.93797" lon="4.6789">
        <ele>276</ele>
        <time>2013-06-22T12:35:00Z</time>
      </trkpt>
      <trkpt lat="45.93789" lon="4.67885">
        <ele>276</ele>
        <time>2013-06-22T12:35:03Z</time>
      </trkpt>
      <trkpt lat="45.93781" lon="4.67881">
        <ele>276</ele>
        <time>2013-06-22T12:35:06Z</time>
      </trkpt>
      <trkpt lat="45.93774" lon="4.67875">
        <ele>276</ele>
        <time>2013-06-22T12:35:09Z</time>
      </trkpt>
      <trkpt lat="45.93765" lon="4.67868">
        <ele>276</ele>
        <time>2013-06-22T12:35:12Z</time>
      </trkpt>
      <trkpt lat="45.93756" lon="4.6786">
        <ele>275</ele>
        <time>2013-06-22T12:35:15Z</time>
      </trkpt>
      <trkpt lat="45.93745" lon="4.67854">
        <ele>276</ele>
        <time>2013-06-22T12:35:18Z</time>
      </trkpt>
      <trkpt lat="45.93736" lon="4.67848">
        <ele>276</ele>
        <time>2013-06-22T12:35:21Z</time>
      </trkpt>
      <trkpt lat="45.93727" lon="4.67844">
        <ele>276</ele>
        <time>2013-06-22T12:35:24Z</time>
      </trkpt>
      <trkpt lat="45.93719" lon="4.67843">
        <ele>276</ele>
        <time>2013-06-22T12:35:27Z</time>
      </trkpt>
      <trkpt lat="45.93711" lon="4.67838">
        <ele>276</ele>
        <time>2013-06-22T12:35:30Z</time>
      </trkpt>
      <trkpt lat="45.93703" lon="4.67833">
        <ele>275</ele>
        <time>2013-06-22T12:35:33Z</time>
      </trkpt>
      <trkpt lat="45.93693" lon="4.67831">
        <ele>275</ele>
        <time>2013-06-22T12:35:36Z</time>
      </trkpt>
      <trkpt lat="45.93684" lon="4.67828">
        <ele>275</ele>
        <time>2013-06-22T12:35:39Z</time>
      </trkpt>
      <trkpt lat="45.93676" lon="4.67826">
        <ele>275</ele>
        <time>2013-06-22T12:35:42Z</time>
      </trkpt>
      <trkpt lat="45.93673" lon="4.67828">
        <ele>276</ele>
        <time>2013-06-22T12:35:45Z</time>
      </trkpt>
      <trkpt lat="45.93675" lon="4.67833">
        <ele>276</ele>
        <time>2013-06-22T12:35:48Z</time>
      </trkpt>
      <trkpt lat="45.9368" lon="4.6784">
        <ele>276</ele>
        <time>2013-06-22T12:35:51Z</time>
      </trkpt>
      <trkpt lat="45.93684" lon="4.67847">
        <ele>277</ele>
        <time>2013-06-22T12:35:54Z</time>
      </trkpt>
      <trkpt lat="45.93688" lon="4.67853">
        <ele>277</ele>
        <time>2013-06-22T12:35:57Z</time>
      </trkpt>
      <trkpt lat="45.93691" lon="4.6786">
        <ele>277</ele>
        <time>2013-06-22T12:36:00Z</time>
      </trkpt>
      <trkpt lat="45.93693" lon="4.67866">
        <ele>277</ele>
        <time>2013-06-22T12:36:03Z</time>
      </trkpt>
      <trkpt lat="45.93695" lon="4.67872">
        <ele>277</ele>
        <time>2013-06-22T12:36:06Z</time>
      </trkpt>
      <trkpt lat="45.93698" lon="4.67877">
        <ele>277</ele>
        <time>2013-06-22T12:36:09Z</time>
      </trkpt>
      <trkpt lat="45.937" lon="4.67884">
        <ele>277</ele>
        <time>2013-06-22T12:36:12Z</time>
      </trkpt>
      <trkpt lat="45.93702" lon="4.6789">
        <ele>277</ele>
        <time>2013-06-22T12:36:15Z</time>
      </trkpt>
      <trkpt lat="45.93702" lon="4.67898">
        <ele>278</ele>
        <time>2013-06-22T12:36:18Z</time>
      </trkpt>
      <trkpt lat="45.93703" lon="4.67907">
        <ele>278</ele>
        <time>2013-06-22T12:36:21Z</time>
      </trkpt>
      <trkpt lat="45.93704" lon="4.67914">
        <ele>278</ele>
        <time>2013-06-22T12:36:24Z</time>
      </trkpt>
      <trkpt lat="45.93705" lon="4.67922">
        <ele>281</ele>
        <time>2013-06-22T12:36:27Z</time>
      </trkpt>
      <trkpt lat="45.93706" lon="4.6793">
        <ele>281</ele>
        <time>2013-06-22T12:36:30Z</time>
      </trkpt>
      <trkpt lat="45.93708" lon="4.67938">
        <ele>282</ele>
        <time>2013-06-22T12:36:33Z</time>
      </trkpt>
      <trkpt lat="45.9371" lon="4.67945">
        <ele>282</ele>
        <time>2013-06-22T12:36:36Z</time>
      </trkpt>
      <trkpt lat="45.93712" lon="4.67951">
        <ele>282</ele>
        <time>2013-06-22T12:36:39Z</time>
      </trkpt>
      <trkpt lat="45.93714" lon="4.67957">
        <ele>282</ele>
        <time>2013-06-22T12:36:42Z</time>
      </trkpt>
      <trkpt lat="45.93716" lon="4.67962">
        <ele>283</ele>
        <time>2013-06-22T12:36:45Z</time>
      </trkpt>
      <trkpt lat="45.93715" lon="4.67967">
        <ele>283</ele>
        <time>2013-06-22T12:36:48Z</time>
      </trkpt>
      <trkpt lat="45.93713" lon="4.67969">
        <ele>283</ele>
        <time>2013-06-22T12:36:51Z</time>
      </trkpt>
      <trkpt lat="45.93711" lon="4.67972">
        <ele>283</ele>
        <time>2013-06-22T12:36:54Z</time>
      </trkpt>
      <trkpt lat="45.93709" lon="4.67972">
        <ele>283</ele>
        <time>2013-06-22T12:36:57Z</time>
      </trkpt>
      <trkpt lat="45.93706" lon="4.67972">
        <ele>283</ele>
        <time>2013-06-22T12:37:02Z</time>
      </trkpt>
      <trkpt lat="45.93702" lon="4.67973">
        <ele>283</ele>
        <time>2013-06-22T12:37:05Z</time>
      </trkpt>
      <trkpt lat="45.93698" lon="4.67975">
        <ele>283</ele>
        <time>2013-06-22T12:37:08Z</time>
      </trkpt>
      <trkpt lat="45.93696" lon="4.67977">
        <ele>283</ele>
        <time>2013-06-22T12:37:12Z</time>
      </trkpt>
      <trkpt lat="45.93692" lon="4.67978">
        <ele>284</ele>
        <time>2013-06-22T12:37:15Z</time>
      </trkpt>
      <trkpt lat="45.93687" lon="4.67979">
        <ele>284</ele>
        <time>2013-06-22T12:37:18Z</time>
      </trkpt>
      <trkpt lat="45.93684" lon="4.67979">
        <ele>284</ele>
        <time>2013-06-22T12:37:21Z</time>
      </trkpt>
      <trkpt lat="45.93682" lon="4.67983">
        <ele>284</ele>
        <time>2013-06-22T12:37:24Z</time>
      </trkpt>
      <trkpt lat="45.93677" lon="4.67983">
        <ele>284</ele>
        <time>2013-06-22T12:37:27Z</time>
      </trkpt>
      <trkpt lat="45.93675" lon="4.67986">
        <ele>285</ele>
        <time>2013-06-22T12:37:30Z</time>
      </trkpt>
      <trkpt lat="45.93671" lon="4.67989">
        <ele>285</ele>
        <time>2013-06-22T12:37:33Z</time>
      </trkpt>
      <trkpt lat="45.93668" lon="4.67992">
        <ele>286</ele>
        <time>2013-06-22T12:37:36Z</time>
      </trkpt>
      <trkpt lat="45.93666" lon="4.67995">
        <ele>286</ele>
        <time>2013-06-22T12:37:39Z</time>
      </trkpt>
      <trkpt lat="45.93664" lon="4.67997">
        <ele>286</ele>
        <time>2013-06-22T12:37:42Z</time>
      </trkpt>
      <trkpt lat="45.93661" lon="4.67999">
        <ele>286</ele>
        <time>2013-06-22T12:37:46Z</time>
      </trkpt>
      <trkpt lat="45.93659" lon="4.68">
        <ele>288</ele>
        <time>2013-06-22T12:37:49Z</time>
      </trkpt>
      <trkpt lat="45.93656" lon="4.68003">
        <ele>289</ele>
        <time>2013-06-22T12:37:52Z</time>
      </trkpt>
      <trkpt lat="45.93652" lon="4.68005">
        <ele>289</ele>
        <time>2013-06-22T12:37:55Z</time>
      </trkpt>
      <trkpt lat="45.93647" lon="4.68007">
        <ele>290</ele>
        <time>2013-06-22T12:37:58Z</time>
      </trkpt>
      <trkpt lat="45.93644" lon="4.68009">
        <ele>290</ele>
        <time>2013-06-22T12:38:01Z</time>
      </trkpt>
      <trkpt lat="45.93641" lon="4.6801">
        <ele>290</ele>
        <time>2013-06-22T12:38:04Z</time>
      </trkpt>
      <trkpt lat="45.93639" lon="4.68011">
        <ele>290</ele>
        <time>2013-06-22T12:38:07Z</time>
      </trkpt>
      <trkpt lat="45.93637" lon="4.68013">
        <ele>291</ele>
        <time>2013-06-22T12:38:10Z</time>
      </trkpt>
      <trkpt lat="45.93634" lon="4.68018">
        <ele>291</ele>
        <time>2013-06-22T12:38:14Z</time>
      </trkpt>
      <trkpt lat="45.93631" lon="4.6802">
        <ele>291</ele>
        <time>2013-06-22T12:38:17Z</time>
      </trkpt>
      <trkpt lat="45.93629" lon="4.68023">
        <ele>291</ele>
        <time>2013-06-22T12:38:20Z</time>
      </trkpt>
      <trkpt lat="45.93626" lon="4.68025">
        <ele>291</ele>
        <time>2013-06-22T12:38:23Z</time>
      </trkpt>
      <trkpt lat="45.93623" lon="4.68027">
        <ele>292</ele>
        <time>2013-06-22T12:38:26Z</time>
      </trkpt>
      <trkpt lat="45.9362" lon="4.6803">
        <ele>292</ele>
        <time>2013-06-22T12:38:29Z</time>
      </trkpt>
      <trkpt lat="45.93616" lon="4.68032">
        <ele>292</ele>
        <time>2013-06-22T12:38:32Z</time>
      </trkpt>
      <trkpt lat="45.93614" lon="4.68034">
        <ele>292</ele>
        <time>2013-06-22T12:38:35Z</time>
      </trkpt>
      <trkpt lat="45.93611" lon="4.68035">
        <ele>292</ele>
        <time>2013-06-22T12:38:38Z</time>
      </trkpt>
      <trkpt lat="45.93606" lon="4.68038">
        <ele>292</ele>
        <time>2013-06-22T12:38:41Z</time>
      </trkpt>
      <trkpt lat="45.93604" lon="4.68041">
        <ele>293</ele>
        <time>2013-06-22T12:38:44Z</time>
      </trkpt>
      <trkpt lat="45.93602" lon="4.68043">
        <ele>293</ele>
        <time>2013-06-22T12:38:47Z</time>
      </trkpt>
      <trkpt lat="45.93599" lon="4.68046">
        <ele>293</ele>
        <time>2013-06-22T12:38:50Z</time>
      </trkpt>
      <trkpt lat="45.93596" lon="4.68048">
        <ele>294</ele>
        <time>2013-06-22T12:38:54Z</time>
      </trkpt>
      <trkpt lat="45.93593" lon="4.6805">
        <ele>294</ele>
        <time>2013-06-22T12:38:58Z</time>
      </trkpt>
      <trkpt lat="45.9359" lon="4.68051">
        <ele>294</ele>
        <time>2013-06-22T12:39:02Z</time>
      </trkpt>
      <trkpt lat="45.93587" lon="4.68053">
        <ele>294</ele>
        <time>2013-06-22T12:39:05Z</time>
      </trkpt>
      <trkpt lat="45.93583" lon="4.68055">
        <ele>295</ele>
        <time>2013-06-22T12:39:09Z</time>
      </trkpt>
      <trkpt lat="45.9358" lon="4.68058">
        <ele>296</ele>
        <time>2013-06-22T12:39:12Z</time>
      </trkpt>
      <trkpt lat="45.93577" lon="4.68061">
        <ele>296</ele>
        <time>2013-06-22T12:39:15Z</time>
      </trkpt>
      <trkpt lat="45.93574" lon="4.68063">
        <ele>296</ele>
        <time>2013-06-22T12:39:19Z</time>
      </trkpt>
      <trkpt lat="45.93572" lon="4.68064">
        <ele>296</ele>
        <time>2013-06-22T12:39:22Z</time>
      </trkpt>
      <trkpt lat="45.93568" lon="4.68065">
        <ele>296</ele>
        <time>2013-06-22T12:39:26Z</time>
      </trkpt>
      <trkpt lat="45.93566" lon="4.68067">
        <ele>296</ele>
        <time>2013-06-22T12:39:29Z</time>
      </trkpt>
      <trkpt lat="45.93563" lon="4.6807">
        <ele>297</ele>
        <time>2013-06-22T12:39:32Z</time>
      </trkpt>
      <trkpt lat="45.93561" lon="4.68072">
        <ele>297</ele>
        <time>2013-06-22T12:39:35Z</time>
      </trkpt>
      <trkpt lat="45.93559" lon="4.68073">
        <ele>297</ele>
        <time>2013-06-22T12:39:38Z</time>
      </trkpt>
      <trkpt lat="45.93556" lon="4.68075">
        <ele>297</ele>
        <time>2013-06-22T12:39:42Z</time>
      </trkpt>
      <trkpt lat="45.93553" lon="4.68077">
        <ele>297</ele>
        <time>2013-06-22T12:39:46Z</time>
      </trkpt>
      <trkpt lat="45.9355" lon="4.6808">
        <ele>297</ele>
        <time>2013-06-22T12:39:49Z</time>
      </trkpt>
      <trkpt lat="45.93548" lon="4.68085">
        <ele>305</ele>
        <time>2013-06-22T12:39:52Z</time>
      </trkpt>
      <trkpt lat="45.93546" lon="4.68086">
        <ele>305</ele>
        <time>2013-06-22T12:39:55Z</time>
      </trkpt>
      <trkpt lat="45.93543" lon="4.68088">
        <ele>305</ele>
        <time>2013-06-22T12:39:59Z</time>
      </trkpt>
      <trkpt lat="45.9354" lon="4.68088">
        <ele>305</ele>
        <time>2013-06-22T12:40:03Z</time>
      </trkpt>
      <trkpt lat="45.93539" lon="4.68089">
        <ele>305</ele>
        <time>2013-06-22T12:40:06Z</time>
      </trkpt>
      <trkpt lat="45.93537" lon="4.68093">
        <ele>306</ele>
        <time>2013-06-22T12:40:10Z</time>
      </trkpt>
      <trkpt lat="45.93535" lon="4.68097">
        <ele>306</ele>
        <time>2013-06-22T12:40:13Z</time>
      </trkpt>
      <trkpt lat="45.93532" lon="4.68099">
        <ele>306</ele>
        <time>2013-06-22T12:40:17Z</time>
      </trkpt>
      <trkpt lat="45.9353" lon="4.68103">
        <ele>306</ele>
        <time>2013-06-22T12:40:20Z</time>
      </trkpt>
      <trkpt lat="45.93527" lon="4.68108">
        <ele>306</ele>
        <time>2013-06-22T12:40:23Z</time>
      </trkpt>
      <trkpt lat="45.93526" lon="4.68112">
        <ele>307</ele>
        <time>2013-06-22T12:40:27Z</time>
      </trkpt>
      <trkpt lat="45.93523" lon="4.68115">
        <ele>307</ele>
        <time>2013-06-22T12:40:31Z</time>
      </trkpt>
      <trkpt lat="45.93522" lon="4.68118">
        <ele>307</ele>
        <time>2013-06-22T12:40:34Z</time>
      </trkpt>
      <trkpt lat="45.93519" lon="4.6812">
        <ele>308</ele>
        <time>2013-06-22T12:40:37Z</time>
      </trkpt>
      <trkpt lat="45.93516" lon="4.68122">
        <ele>308</ele>
        <time>2013-06-22T12:40:41Z</time>
      </trkpt>
      <trkpt lat="45.93513" lon="4.68125">
        <ele>308</ele>
        <time>2013-06-22T12:40:44Z</time>
      </trkpt>
      <trkpt lat="45.9351" lon="4.68128">
        <ele>308</ele>
        <time>2013-06-22T12:40:47Z</time>
      </trkpt>
      <trkpt lat="45.93508" lon="4.68132">
        <ele>309</ele>
        <time>2013-06-22T12:40:51Z</time>
      </trkpt>
      <trkpt lat="45.93507" lon="4.68137">
        <ele>310</ele>
        <time>2013-06-22T12:40:55Z</time>
      </trkpt>
      <trkpt lat="45.93504" lon="4.6814">
        <ele>310</ele>
        <time>2013-06-22T12:40:59Z</time>
      </trkpt>
      <trkpt lat="45.93504" lon="4.68146">
        <ele>311</ele>
        <time>2013-06-22T12:41:02Z</time>
      </trkpt>
      <trkpt lat="45.93504" lon="4.68151">
        <ele>312</ele>
        <time>2013-06-22T12:41:05Z</time>
      </trkpt>
      <trkpt lat="45.93503" lon="4.68155">
        <ele>313</ele>
        <time>2013-06-22T12:41:09Z</time>
      </trkpt>
      <trkpt lat="45.93503" lon="4.68159">
        <ele>314</ele>
        <time>2013-06-22T12:41:12Z</time>
      </trkpt>
      <trkpt lat="45.93501" lon="4.68163">
        <ele>315</ele>
        <time>2013-06-22T12:41:15Z</time>
      </trkpt>
      <trkpt lat="45.93498" lon="4.68166">
        <ele>315</ele>
        <time>2013-06-22T12:41:19Z</time>
      </trkpt>
      <trkpt lat="45.93496" lon="4.68169">
        <ele>317</ele>
        <time>2013-06-22T12:41:23Z</time>
      </trkpt>
      <trkpt lat="45.93493" lon="4.68174">
        <ele>317</ele>
        <time>2013-06-22T12:41:27Z</time>
      </trkpt>
      <trkpt lat="45.93489" lon="4.68175">
        <ele>318</ele>
        <time>2013-06-22T12:41:30Z</time>
      </trkpt>
      <trkpt lat="45.93485" lon="4.68177">
        <ele>318</ele>
        <time>2013-06-22T12:41:33Z</time>
      </trkpt>
      <trkpt lat="45.93481" lon="4.68178">
        <ele>318</ele>
        <time>2013-06-22T12:41:36Z</time>
      </trkpt>
      <trkpt lat="45.93478" lon="4.68179">
        <ele>318</ele>
        <time>2013-06-22T12:41:39Z</time>
      </trkpt>
      <trkpt lat="45.93474" lon="4.68182">
        <ele>319</ele>
        <time>2013-06-22T12:41:43Z</time>
      </trkpt>
      <trkpt lat="45.93471" lon="4.68186">
        <ele>319</ele>
        <time>2013-06-22T12:41:46Z</time>
      </trkpt>
      <trkpt lat="45.93469" lon="4.68189">
        <ele>319</ele>
        <time>2013-06-22T12:41:49Z</time>
      </trkpt>
      <trkpt lat="45.93466" lon="4.68192">
        <ele>319</ele>
        <time>2013-06-22T12:41:52Z</time>
      </trkpt>
      <trkpt lat="45.93462" lon="4.68196">
        <ele>320</ele>
        <time>2013-06-22T12:41:55Z</time>
      </trkpt>
      <trkpt lat="45.93458" lon="4.682">
        <ele>320</ele>
        <time>2013-06-22T12:41:58Z</time>
      </trkpt>
      <trkpt lat="45.93456" lon="4.68204">
        <ele>320</ele>
        <time>2013-06-22T12:42:02Z</time>
      </trkpt>
      <trkpt lat="45.93453" lon="4.68207">
        <ele>320</ele>
        <time>2013-06-22T12:42:05Z</time>
      </trkpt>
      <trkpt lat="45.93451" lon="4.68211">
        <ele>320</ele>
        <time>2013-06-22T12:42:08Z</time>
      </trkpt>
      <trkpt lat="45.93449" lon="4.68214">
        <ele>321</ele>
        <time>2013-06-22T12:42:11Z</time>
      </trkpt>
      <trkpt lat="45.93446" lon="4.68216">
        <ele>321</ele>
        <time>2013-06-22T12:42:14Z</time>
      </trkpt>
      <trkpt lat="45.93443" lon="4.68219">
        <ele>321</ele>
        <time>2013-06-22T12:42:17Z</time>
      </trkpt>
      <trkpt lat="45.9344" lon="4.68222">
        <ele>321</ele>
        <time>2013-06-22T12:42:21Z</time>
      </trkpt>
      <trkpt lat="45.93437" lon="4.68223">
        <ele>321</ele>
        <time>2013-06-22T12:42:25Z</time>
      </trkpt>
      <trkpt lat="45.93434" lon="4.68225">
        <ele>322</ele>
        <time>2013-06-22T12:42:28Z</time>
      </trkpt>
      <trkpt lat="45.93433" lon="4.68225">
        <ele>322</ele>
        <time>2013-06-22T12:42:31Z</time>
      </trkpt>
      <trkpt lat="45.9343" lon="4.68228">
        <ele>322</ele>
        <time>2013-06-22T12:42:34Z</time>
      </trkpt>
      <trkpt lat="45.93427" lon="4.6823">
        <ele>322</ele>
        <time>2013-06-22T12:42:37Z</time>
      </trkpt>
      <trkpt lat="45.93424" lon="4.68231">
        <ele>323</ele>
        <time>2013-06-22T12:42:40Z</time>
      </trkpt>
      <trkpt lat="45.93421" lon="4.68235">
        <ele>323</ele>
        <time>2013-06-22T12:42:43Z</time>
      </trkpt>
      <trkpt lat="45.93418" lon="4.68237">
        <ele>324</ele>
        <time>2013-06-22T12:42:46Z</time>
      </trkpt>
      <trkpt lat="45.93414" lon="4.68239">
        <ele>323</ele>
        <time>2013-06-22T12:42:49Z</time>
      </trkpt>
      <trkpt lat="45.93412" lon="4.68242">
        <ele>323</ele>
        <time>2013-06-22T12:42:52Z</time>
      </trkpt>
      <trkpt lat="45.93409" lon="4.68246">
        <ele>324</ele>
        <time>2013-06-22T12:42:55Z</time>
      </trkpt>
      <trkpt lat="45.93406" lon="4.68249">
        <ele>323</ele>
        <time>2013-06-22T12:42:58Z</time>
      </trkpt>
      <trkpt lat="45.93403" lon="4.68253">
        <ele>327</ele>
        <time>2013-06-22T12:43:01Z</time>
      </trkpt>
      <trkpt lat="45.93401" lon="4.68258">
        <ele>327</ele>
        <time>2013-06-22T12:43:05Z</time>
      </trkpt>
      <trkpt lat="45.93398" lon="4.68262">
        <ele>327</ele>
        <time>2013-06-22T12:43:09Z</time>
      </trkpt>
      <trkpt lat="45.93394" lon="4.68265">
        <ele>327</ele>
        <time>2013-06-22T12:43:12Z</time>
      </trkpt>
      <trkpt lat="45.93392" lon="4.68268">
        <ele>327</ele>
        <time>2013-06-22T12:43:15Z</time>
      </trkpt>
      <trkpt lat="45.93388" lon="4.6827">
        <ele>327</ele>
        <time>2013-06-22T12:43:18Z</time>
      </trkpt>
      <trkpt lat="45.93387" lon="4.68272">
        <ele>327</ele>
        <time>2013-06-22T12:43:21Z</time>
      </trkpt>
      <trkpt lat="45.93384" lon="4.68277">
        <ele>328</ele>
        <time>2013-06-22T12:43:24Z</time>
      </trkpt>
      <trkpt lat="45.93382" lon="4.6828">
        <ele>328</ele>
        <time>2013-06-22T12:43:27Z</time>
      </trkpt>
      <trkpt lat="45.93382" lon="4.68286">
        <ele>328</ele>
        <time>2013-06-22T12:43:30Z</time>
      </trkpt>
      <trkpt lat="45.93381" lon="4.68293">
        <ele>328</ele>
        <time>2013-06-22T12:43:33Z</time>
      </trkpt>
      <trkpt lat="45.93381" lon="4.68301">
        <ele>328</ele>
        <time>2013-06-22T12:43:36Z</time>
      </trkpt>
      <trkpt lat="45.9338" lon="4.68307">
        <ele>329</ele>
        <time>2013-06-22T12:43:39Z</time>
      </trkpt>
      <trkpt lat="45.93381" lon="4.68314">
        <ele>329</ele>
        <time>2013-06-22T12:43:42Z</time>
      </trkpt>
      <trkpt lat="45.93379" lon="4.68321">
        <ele>329</ele>
        <time>2013-06-22T12:43:45Z</time>
      </trkpt>
      <trkpt lat="45.93379" lon="4.68327">
        <ele>329</ele>
        <time>2013-06-22T12:43:48Z</time>
      </trkpt>
      <trkpt lat="45.93378" lon="4.68334">
        <ele>333</ele>
        <time>2013-06-22T12:43:51Z</time>
      </trkpt>
      <trkpt lat="45.93379" lon="4.6834">
        <ele>333</ele>
        <time>2013-06-22T12:43:54Z</time>
      </trkpt>
      <trkpt lat="45.93376" lon="4.68348">
        <ele>333</ele>
        <time>2013-06-22T12:43:57Z</time>
      </trkpt>
      <trkpt lat="45.93376" lon="4.68357">
        <ele>333</ele>
        <time>2013-06-22T12:44:00Z</time>
      </trkpt>
      <trkpt lat="45.93375" lon="4.68365">
        <ele>334</ele>
        <time>2013-06-22T12:44:03Z</time>
      </trkpt>
      <trkpt lat="45.93371" lon="4.68376">
        <ele>334</ele>
        <time>2013-06-22T12:44:06Z</time>
      </trkpt>
      <trkpt lat="45.9337" lon="4.68386">
        <ele>334</ele>
        <time>2013-06-22T12:44:09Z</time>
      </trkpt>
      <trkpt lat="45.93369" lon="4.68396">
        <ele>335</ele>
        <time>2013-06-22T12:44:12Z</time>
      </trkpt>
      <trkpt lat="45.93367" lon="4.68406">
        <ele>335</ele>
        <time>2013-06-22T12:44:15Z</time>
      </trkpt>
      <trkpt lat="45.93364" lon="4.68415">
        <ele>335</ele>
        <time>2013-06-22T12:44:18Z</time>
      </trkpt>
      <trkpt lat="45.93359" lon="4.68421">
        <ele>337</ele>
        <time>2013-06-22T12:44:21Z</time>
      </trkpt>
      <trkpt lat="45.93355" lon="4.68427">
        <ele>337</ele>
        <time>2013-06-22T12:44:24Z</time>
      </trkpt>
      <trkpt lat="45.93348" lon="4.68429">
        <ele>337</ele>
        <time>2013-06-22T12:44:27Z</time>
      </trkpt>
      <trkpt lat="45.93341" lon="4.68432">
        <ele>337</ele>
        <time>2013-06-22T12:44:30Z</time>
      </trkpt>
      <trkpt lat="45.93333" lon="4.68435">
        <ele>336</ele>
        <time>2013-06-22T12:44:33Z</time>
      </trkpt>
      <trkpt lat="45.93325" lon="4.6844">
        <ele>336</ele>
        <time>2013-06-22T12:44:36Z</time>
      </trkpt>
      <trkpt lat="45.93317" lon="4.68442">
        <ele>336</ele>
        <time>2013-06-22T12:44:39Z</time>
      </trkpt>
      <trkpt lat="45.9331" lon="4.68448">
        <ele>336</ele>
        <time>2013-06-22T12:44:42Z</time>
      </trkpt>
      <trkpt lat="45.93305" lon="4.68457">
        <ele>336</ele>
        <time>2013-06-22T12:44:45Z</time>
      </trkpt>
      <trkpt lat="45.93304" lon="4.68469">
        <ele>337</ele>
        <time>2013-06-22T12:44:48Z</time>
      </trkpt>
      <trkpt lat="45.93305" lon="4.68481">
        <ele>337</ele>
        <time>2013-06-22T12:44:51Z</time>
      </trkpt>
      <trkpt lat="45.93305" lon="4.68492">
        <ele>337</ele>
        <time>2013-06-22T12:44:54Z</time>
      </trkpt>
      <trkpt lat="45.93304" lon="4.68503">
        <ele>340</ele>
        <time>2013-06-22T12:44:57Z</time>
      </trkpt>
      <trkpt lat="45.93303" lon="4.68515">
        <ele>340</ele>
        <time>2013-06-22T12:45:00Z</time>
      </trkpt>
      <trkpt lat="45.93298" lon="4.68525">
        <ele>340</ele>
        <time>2013-06-22T12:45:03Z</time>
      </trkpt>
      <trkpt lat="45.93288" lon="4.68529">
        <ele>340</ele>
        <time>2013-06-22T12:45:06Z</time>
      </trkpt>
      <trkpt lat="45.93279" lon="4.6853">
        <ele>340</ele>
        <time>2013-06-22T12:45:09Z</time>
      </trkpt>
      <trkpt lat="45.9327" lon="4.68531">
        <ele>340</ele>
        <time>2013-06-22T12:45:12Z</time>
      </trkpt>
      <trkpt lat="45.93262" lon="4.68533">
        <ele>340</ele>
        <time>2013-06-22T12:45:15Z</time>
      </trkpt>
      <trkpt lat="45.93252" lon="4.68535">
        <ele>340</ele>
        <time>2013-06-22T12:45:18Z</time>
      </trkpt>
      <trkpt lat="45.93242" lon="4.68536">
        <ele>340</ele>
        <time>2013-06-22T12:45:21Z</time>
      </trkpt>
      <trkpt lat="45.93233" lon="4.68537">
        <ele>340</ele>
        <time>2013-06-22T12:45:24Z</time>
      </trkpt>
      <trkpt lat="45.93224" lon="4.68536">
        <ele>340</ele>
        <time>2013-06-22T12:45:27Z</time>
      </trkpt>
      <trkpt lat="45.93215" lon="4.68538">
        <ele>340</ele>
        <time>2013-06-22T12:45:30Z</time>
      </trkpt>
      <trkpt lat="45.93206" lon="4.68538">
        <ele>340</ele>
        <time>2013-06-22T12:45:33Z</time>
      </trkpt>
      <trkpt lat="45.93196" lon="4.68539">
        <ele>340</ele>
        <time>2013-06-22T12:45:36Z</time>
      </trkpt>
      <trkpt lat="45.93186" lon="4.68542">
        <ele>340</ele>
        <time>2013-06-22T12:45:39Z</time>
      </trkpt>
      <trkpt lat="45.93175" lon="4.68543">
        <ele>340</ele>
        <time>2013-06-22T12:45:42Z</time>
      </trkpt>
      <trkpt lat="45.93166" lon="4.68544">
        <ele>342</ele>
        <time>2013-06-22T12:45:45Z</time>
      </trkpt>
      <trkpt lat="45.93156" lon="4.68545">
        <ele>343</ele>
        <time>2013-06-22T12:45:48Z</time>
      </trkpt>
      <trkpt lat="45.93148" lon="4.68548">
        <ele>343</ele>
        <time>2013-06-22T12:45:51Z</time>
      </trkpt>
      <trkpt lat="45.93146" lon="4.68556">
        <ele>343</ele>
        <time>2013-06-22T12:45:54Z</time>
      </trkpt>
      <trkpt lat="45.93147" lon="4.68564">
        <ele>343</ele>
        <time>2013-06-22T12:45:57Z</time>
      </trkpt>
      <trkpt lat="45.93152" lon="4.68574">
        <ele>343</ele>
        <time>2013-06-22T12:46:00Z</time>
      </trkpt>
      <trkpt lat="45.93159" lon="4.68581">
        <ele>343</ele>
        <time>2013-06-22T12:46:03Z</time>
      </trkpt>
      <trkpt lat="45.93167" lon="4.68587">
        <ele>343</ele>
        <time>2013-06-22T12:46:06Z</time>
      </trkpt>
      <trkpt lat="45.93176" lon="4.68595">
        <ele>343</ele>
        <time>2013-06-22T12:46:09Z</time>
      </trkpt>
      <trkpt lat="45.93183" lon="4.68604">
        <ele>344</ele>
        <time>2013-06-22T12:46:12Z</time>
      </trkpt>
      <trkpt lat="45.93188" lon="4.68613">
        <ele>344</ele>
        <time>2013-06-22T12:46:15Z</time>
      </trkpt>
      <trkpt lat="45.93191" lon="4.68625">
        <ele>344</ele>
        <time>2013-06-22T12:46:18Z</time>
      </trkpt>
      <trkpt lat="45.93192" lon="4.68634">
        <ele>344</ele>
        <time>2013-06-22T12:46:21Z</time>
      </trkpt>
      <trkpt lat="45.93193" lon="4.68642">
        <ele>344</ele>
        <time>2013-06-22T12:46:24Z</time>
      </trkpt>
      <trkpt lat="45.93197" lon="4.68652">
        <ele>344</ele>
        <time>2013-06-22T12:46:27Z</time>
      </trkpt>
      <trkpt lat="45.93206" lon="4.6866">
        <ele>344</ele>
        <time>2013-06-22T12:46:30Z</time>
      </trkpt>
      <trkpt lat="45.93217" lon="4.68663">
        <ele>344</ele>
        <time>2013-06-22T12:46:33Z</time>
      </trkpt>
      <trkpt lat="45.93226" lon="4.6867">
        <ele>345</ele>
        <time>2013-06-22T12:46:36Z</time>
      </trkpt>
      <trkpt lat="45.93226" lon="4.68682">
        <ele>345</ele>
        <time>2013-06-22T12:46:39Z</time>
      </trkpt>
      <trkpt lat="45.93222" lon="4.68693">
        <ele>345</ele>
        <time>2013-06-22T12:46:42Z</time>
      </trkpt>
      <trkpt lat="45.93218" lon="4.68704">
        <ele>345</ele>
        <time>2013-06-22T12:46:45Z</time>
      </trkpt>
      <trkpt lat="45.93213" lon="4.68714">
        <ele>345</ele>
        <time>2013-06-22T12:46:48Z</time>
      </trkpt>
      <trkpt lat="45.93208" lon="4.68725">
        <ele>345</ele>
        <time>2013-06-22T12:46:51Z</time>
      </trkpt>
      <trkpt lat="45.93202" lon="4.68737">
        <ele>345</ele>
        <time>2013-06-22T12:46:54Z</time>
      </trkpt>
      <trkpt lat="45.93197" lon="4.68747">
        <ele>346</ele>
        <time>2013-06-22T12:46:57Z</time>
      </trkpt>
      <trkpt lat="45.93192" lon="4.68756">
        <ele>345</ele>
        <time>2013-06-22T12:47:00Z</time>
      </trkpt>
      <trkpt lat="45.93191" lon="4.68768">
        <ele>345</ele>
        <time>2013-06-22T12:47:03Z</time>
      </trkpt>
      <trkpt lat="45.9319" lon="4.68782">
        <ele>345</ele>
        <time>2013-06-22T12:47:06Z</time>
      </trkpt>
      <trkpt lat="45.93188" lon="4.68801">
        <ele>345</ele>
        <time>2013-06-22T12:47:09Z</time>
      </trkpt>
      <trkpt lat="45.93185" lon="4.68819">
        <ele>345</ele>
        <time>2013-06-22T12:47:12Z</time>
      </trkpt>
      <trkpt lat="45.9318" lon="4.68834">
        <ele>344</ele>
        <time>2013-06-22T12:47:15Z</time>
      </trkpt>
      <trkpt lat="45.93175" lon="4.68849">
        <ele>344</ele>
        <time>2013-06-22T12:47:18Z</time>
      </trkpt>
      <trkpt lat="45.9317" lon="4.68863">
        <ele>343</ele>
        <time>2013-06-22T12:47:21Z</time>
      </trkpt>
      <trkpt lat="45.93165" lon="4.68877">
        <ele>346</ele>
        <time>2013-06-22T12:47:24Z</time>
      </trkpt>
      <trkpt lat="45.93159" lon="4.68889">
        <ele>345</ele>
        <time>2013-06-22T12:47:27Z</time>
      </trkpt>
      <trkpt lat="45.93152" lon="4.68901">
        <ele>345</ele>
        <time>2013-06-22T12:47:30Z</time>
      </trkpt>
      <trkpt lat="45.93144" lon="4.68915">
        <ele>345</ele>
        <time>2013-06-22T12:47:33Z</time>
      </trkpt>
      <trkpt lat="45.93138" lon="4.68928">
        <ele>341</ele>
        <time>2013-06-22T12:47:36Z</time>
      </trkpt>
      <trkpt lat="45.9314" lon="4.68938">
        <ele>341</ele>
        <time>2013-06-22T12:47:39Z</time>
      </trkpt>
      <trkpt lat="45.93142" lon="4.68941">
        <ele>341</ele>
        <time>2013-06-22T12:47:42Z</time>
      </trkpt>
      <trkpt lat="45.93144" lon="4.68938">
        <ele>341</ele>
        <time>2013-06-22T12:47:47Z</time>
      </trkpt>
      <trkpt lat="45.9314" lon="4.68934">
        <ele>341</ele>
        <time>2013-06-22T12:47:50Z</time>
      </trkpt>
      <trkpt lat="45.93136" lon="4.6893">
        <ele>341</ele>
        <time>2013-06-22T12:47:53Z</time>
      </trkpt>
      <trkpt lat="45.93132" lon="4.68928">
        <ele>341</ele>
        <time>2013-06-22T12:47:56Z</time>
      </trkpt>
      <trkpt lat="45.93128" lon="4.68933">
        <ele>341</ele>
        <time>2013-06-22T12:47:59Z</time>
      </trkpt>
      <trkpt lat="45.93124" lon="4.68944">
        <ele>341</ele>
        <time>2013-06-22T12:48:02Z</time>
      </trkpt>
      <trkpt lat="45.93118" lon="4.68954">
        <ele>340</ele>
        <time>2013-06-22T12:48:05Z</time>
      </trkpt>
      <trkpt lat="45.93112" lon="4.68967">
        <ele>339</ele>
        <time>2013-06-22T12:48:08Z</time>
      </trkpt>
      <trkpt lat="45.93105" lon="4.6898">
        <ele>339</ele>
        <time>2013-06-22T12:48:11Z</time>
      </trkpt>
      <trkpt lat="45.93099" lon="4.68992">
        <ele>337</ele>
        <time>2013-06-22T12:48:14Z</time>
      </trkpt>
      <trkpt lat="45.93093" lon="4.69005">
        <ele>333</ele>
        <time>2013-06-22T12:48:17Z</time>
      </trkpt>
      <trkpt lat="45.93088" lon="4.69017">
        <ele>332</ele>
        <time>2013-06-22T12:48:20Z</time>
      </trkpt>
      <trkpt lat="45.93083" lon="4.6903">
        <ele>331</ele>
        <time>2013-06-22T12:48:23Z</time>
      </trkpt>
      <trkpt lat="45.93076" lon="4.6904">
        <ele>330</ele>
        <time>2013-06-22T12:48:26Z</time>
      </trkpt>
      <trkpt lat="45.93066" lon="4.69049">
        <ele>329</ele>
        <time>2013-06-22T12:48:29Z</time>
      </trkpt>
      <trkpt lat="45.93053" lon="4.69056">
        <ele>329</ele>
        <time>2013-06-22T12:48:32Z</time>
      </trkpt>
      <trkpt lat="45.9304" lon="4.69061">
        <ele>328</ele>
        <time>2013-06-22T12:48:35Z</time>
      </trkpt>
      <trkpt lat="45.93028" lon="4.69066">
        <ele>328</ele>
        <time>2013-06-22T12:48:38Z</time>
      </trkpt>
      <trkpt lat="45.93016" lon="4.69072">
        <ele>327</ele>
        <time>2013-06-22T12:48:41Z</time>
      </trkpt>
      <trkpt lat="45.93005" lon="4.69077">
        <ele>326</ele>
        <time>2013-06-22T12:48:44Z</time>
      </trkpt>
      <trkpt lat="45.92999" lon="4.69086">
        <ele>325</ele>
        <time>2013-06-22T12:48:47Z</time>
      </trkpt>
      <trkpt lat="45.92998" lon="4.69106">
        <ele>324</ele>
        <time>2013-06-22T12:48:50Z</time>
      </trkpt>
      <trkpt lat="45.92996" lon="4.69124">
        <ele>324</ele>
        <time>2013-06-22T12:48:53Z</time>
      </trkpt>
      <trkpt lat="45.92996" lon="4.69142">
        <ele>323</ele>
        <time>2013-06-22T12:48:56Z</time>
      </trkpt>
      <trkpt lat="45.92995" lon="4.69158">
        <ele>322</ele>
        <time>2013-06-22T12:48:59Z</time>
      </trkpt>
      <trkpt lat="45.92995" lon="4.69174">
        <ele>321</ele>
        <time>2013-06-22T12:49:02Z</time>
      </trkpt>
      <trkpt lat="45.92995" lon="4.69192">
        <ele>321</ele>
        <time>2013-06-22T12:49:05Z</time>
      </trkpt>
      <trkpt lat="45.92994" lon="4.69208">
        <ele>321</ele>
        <time>2013-06-22T12:49:08Z</time>
      </trkpt>
      <trkpt lat="45.92996" lon="4.69221">
        <ele>321</ele>
        <time>2013-06-22T12:49:11Z</time>
      </trkpt>
      <trkpt lat="45.93003" lon="4.69226">
        <ele>318</ele>
        <time>2013-06-22T12:49:14Z</time>
      </trkpt>
      <trkpt lat="45.93016" lon="4.6924">
        <ele>318</ele>
        <time>2013-06-22T12:49:17Z</time>
      </trkpt>
      <trkpt lat="45.93023" lon="4.69257">
        <ele>316</ele>
        <time>2013-06-22T12:49:20Z</time>
      </trkpt>
      <trkpt lat="45.93026" lon="4.69273">
        <ele>315</ele>
        <time>2013-06-22T12:49:23Z</time>
      </trkpt>
      <trkpt lat="45.93031" lon="4.69283">
        <ele>315</ele>
        <time>2013-06-22T12:49:26Z</time>
      </trkpt>
      <trkpt lat="45.9304" lon="4.69285">
        <ele>314</ele>
        <time>2013-06-22T12:49:29Z</time>
      </trkpt>
      <trkpt lat="45.93052" lon="4.69288">
        <ele>313</ele>
        <time>2013-06-22T12:49:32Z</time>
      </trkpt>
      <trkpt lat="45.93065" lon="4.69292">
        <ele>313</ele>
        <time>2013-06-22T12:49:35Z</time>
      </trkpt>
      <trkpt lat="45.9308" lon="4.69296">
        <ele>312</ele>
        <time>2013-06-22T12:49:38Z</time>
      </trkpt>
      <trkpt lat="45.93092" lon="4.69299">
        <ele>306</ele>
        <time>2013-06-22T12:49:41Z</time>
      </trkpt>
      <trkpt lat="45.93106" lon="4.69302">
        <ele>306</ele>
        <time>2013-06-22T12:49:44Z</time>
      </trkpt>
      <trkpt lat="45.93122" lon="4.69308">
        <ele>305</ele>
        <time>2013-06-22T12:49:47Z</time>
      </trkpt>
      <trkpt lat="45.93138" lon="4.69315">
        <ele>303</ele>
        <time>2013-06-22T12:49:50Z</time>
      </trkpt>
      <trkpt lat="45.93155" lon="4.69321">
        <ele>301</ele>
        <time>2013-06-22T12:49:53Z</time>
      </trkpt>
      <trkpt lat="45.93171" lon="4.69326">
        <ele>298</ele>
        <time>2013-06-22T12:49:56Z</time>
      </trkpt>
      <trkpt lat="45.93188" lon="4.69333">
        <ele>298</ele>
        <time>2013-06-22T12:49:59Z</time>
      </trkpt>
      <trkpt lat="45.93202" lon="4.69338">
        <ele>297</ele>
        <time>2013-06-22T12:50:02Z</time>
      </trkpt>
      <trkpt lat="45.93214" lon="4.69345">
        <ele>296</ele>
        <time>2013-06-22T12:50:05Z</time>
      </trkpt>
      <trkpt lat="45.93228" lon="4.69352">
        <ele>296</ele>
        <time>2013-06-22T12:50:08Z</time>
      </trkpt>
      <trkpt lat="45.93241" lon="4.69358">
        <ele>295</ele>
        <time>2013-06-22T12:50:11Z</time>
      </trkpt>
      <trkpt lat="45.93257" lon="4.69365">
        <ele>291</ele>
        <time>2013-06-22T12:50:14Z</time>
      </trkpt>
      <trkpt lat="45.93274" lon="4.69374">
        <ele>291</ele>
        <time>2013-06-22T12:50:17Z</time>
      </trkpt>
      <trkpt lat="45.93293" lon="4.69383">
        <ele>290</ele>
        <time>2013-06-22T12:50:20Z</time>
      </trkpt>
      <trkpt lat="45.93311" lon="4.69391">
        <ele>290</ele>
        <time>2013-06-22T12:50:23Z</time>
      </trkpt>
      <trkpt lat="45.93326" lon="4.69403">
        <ele>289</ele>
        <time>2013-06-22T12:50:26Z</time>
      </trkpt>
      <trkpt lat="45.9334" lon="4.69414">
        <ele>288</ele>
        <time>2013-06-22T12:50:29Z</time>
      </trkpt>
      <trkpt lat="45.9335" lon="4.69425">
        <ele>286</ele>
        <time>2013-06-22T12:50:32Z</time>
      </trkpt>
      <trkpt lat="45.9336" lon="4.69432">
        <ele>285</ele>
        <time>2013-06-22T12:50:35Z</time>
      </trkpt>
      <trkpt lat="45.93372" lon="4.69433">
        <ele>285</ele>
        <time>2013-06-22T12:50:38Z</time>
      </trkpt>
      <trkpt lat="45.93382" lon="4.69426">
        <ele>284</ele>
        <time>2013-06-22T12:50:41Z</time>
      </trkpt>
      <trkpt lat="45.93393" lon="4.69421">
        <ele>284</ele>
        <time>2013-06-22T12:50:44Z</time>
      </trkpt>
      <trkpt lat="45.93404" lon="4.69415">
        <ele>286</ele>
        <time>2013-06-22T12:50:47Z</time>
      </trkpt>
      <trkpt lat="45.93412" lon="4.69411">
        <ele>285</ele>
        <time>2013-06-22T12:50:50Z</time>
      </trkpt>
      <trkpt lat="45.9342" lon="4.69407">
        <ele>286</ele>
        <time>2013-06-22T12:50:53Z</time>
      </trkpt>
      <trkpt lat="45.93427" lon="4.69406">
        <ele>287</ele>
        <time>2013-06-22T12:50:56Z</time>
      </trkpt>
      <trkpt lat="45.93432" lon="4.69407">
        <ele>287</ele>
        <time>2013-06-22T12:50:59Z</time>
      </trkpt>
      <trkpt lat="45.93437" lon="4.69408">
        <ele>288</ele>
        <time>2013-06-22T12:51:02Z</time>
      </trkpt>
      <trkpt lat="45.93443" lon="4.69405">
        <ele>288</ele>
        <time>2013-06-22T12:51:05Z</time>
      </trkpt>
      <trkpt lat="45.93448" lon="4.69406">
        <ele>288</ele>
        <time>2013-06-22T12:51:08Z</time>
      </trkpt>
      <trkpt lat="45.93453" lon="4.69406">
        <ele>289</ele>
        <time>2013-06-22T12:51:11Z</time>
      </trkpt>
      <trkpt lat="45.93459" lon="4.69408">
        <ele>289</ele>
        <time>2013-06-22T12:51:14Z</time>
      </trkpt>
      <trkpt lat="45.93465" lon="4.69409">
        <ele>289</ele>
        <time>2013-06-22T12:51:17Z</time>
      </trkpt>
      <trkpt lat="45.93473" lon="4.69409">
        <ele>290</ele>
        <time>2013-06-22T12:51:20Z</time>
      </trkpt>
      <trkpt lat="45.9348" lon="4.69415">
        <ele>290</ele>
        <time>2013-06-22T12:51:23Z</time>
      </trkpt>
      <trkpt lat="45.93485" lon="4.69414">
        <ele>290</ele>
        <time>2013-06-22T12:51:26Z</time>
      </trkpt>
      <trkpt lat="45.9349" lon="4.69415">
        <ele>290</ele>
        <time>2013-06-22T12:51:29Z</time>
      </trkpt>
      <trkpt lat="45.93496" lon="4.69415">
        <ele>290</ele>
        <time>2013-06-22T12:51:32Z</time>
      </trkpt>
      <trkpt lat="45.93501" lon="4.69416">
        <ele>290</ele>
        <time>2013-06-22T12:51:35Z</time>
      </trkpt>
      <trkpt lat="45.93507" lon="4.69415">
        <ele>291</ele>
        <time>2013-06-22T12:51:38Z</time>
      </trkpt>
      <trkpt lat="45.93513" lon="4.69416">
        <ele>292</ele>
        <time>2013-06-22T12:51:41Z</time>
      </trkpt>
      <trkpt lat="45.9352" lon="4.69418">
        <ele>291</ele>
        <time>2013-06-22T12:51:44Z</time>
      </trkpt>
      <trkpt lat="45.93525" lon="4.6942">
        <ele>292</ele>
        <time>2013-06-22T12:51:47Z</time>
      </trkpt>
      <trkpt lat="45.93531" lon="4.69421">
        <ele>292</ele>
        <time>2013-06-22T12:51:50Z</time>
      </trkpt>
      <trkpt lat="45.93535" lon="4.69422">
        <ele>292</ele>
        <time>2013-06-22T12:51:53Z</time>
      </trkpt>
      <trkpt lat="45.9354" lon="4.69424">
        <ele>293</ele>
        <time>2013-06-22T12:51:56Z</time>
      </trkpt>
      <trkpt lat="45.93543" lon="4.69426">
        <ele>293</ele>
        <time>2013-06-22T12:51:59Z</time>
      </trkpt>
      <trkpt lat="45.93549" lon="4.69427">
        <ele>293</ele>
        <time>2013-06-22T12:52:02Z</time>
      </trkpt>
      <trkpt lat="45.93555" lon="4.69429">
        <ele>294</ele>
        <time>2013-06-22T12:52:05Z</time>
      </trkpt>
      <trkpt lat="45.9356" lon="4.6943">
        <ele>294</ele>
        <time>2013-06-22T12:52:08Z</time>
      </trkpt>
      <trkpt lat="45.93565" lon="4.6943">
        <ele>294</ele>
        <time>2013-06-22T12:52:11Z</time>
      </trkpt>
      <trkpt lat="45.9357" lon="4.69432">
        <ele>294</ele>
        <time>2013-06-22T12:52:14Z</time>
      </trkpt>
      <trkpt lat="45.93575" lon="4.69432">
        <ele>295</ele>
        <time>2013-06-22T12:52:17Z</time>
      </trkpt>
      <trkpt lat="45.9358" lon="4.69432">
        <ele>295</ele>
        <time>2013-06-22T12:52:20Z</time>
      </trkpt>
      <trkpt lat="45.93584" lon="4.69434">
        <ele>299</ele>
        <time>2013-06-22T12:52:23Z</time>
      </trkpt>
      <trkpt lat="45.93586" lon="4.69435">
        <ele>299</ele>
        <time>2013-06-22T12:52:26Z</time>
      </trkpt>
      <trkpt lat="45.93587" lon="4.6944">
        <ele>300</ele>
        <time>2013-06-22T12:52:29Z</time>
      </trkpt>
      <trkpt lat="45.93587" lon="4.69445">
        <ele>300</ele>
        <time>2013-06-22T12:52:32Z</time>
      </trkpt>
      <trkpt lat="45.93588" lon="4.69451">
        <ele>301</ele>
        <time>2013-06-22T12:52:35Z</time>
      </trkpt>
      <trkpt lat="45.93587" lon="4.69455">
        <ele>301</ele>
        <time>2013-06-22T12:52:38Z</time>
      </trkpt>
      <trkpt lat="45.93587" lon="4.6946">
        <ele>301</ele>
        <time>2013-06-22T12:52:41Z</time>
      </trkpt>
      <trkpt lat="45.93588" lon="4.69466">
        <ele>301</ele>
        <time>2013-06-22T12:52:44Z</time>
      </trkpt>
      <trkpt lat="45.93589" lon="4.69471">
        <ele>302</ele>
        <time>2013-06-22T12:52:47Z</time>
      </trkpt>
      <trkpt lat="45.9359" lon="4.69477">
        <ele>302</ele>
        <time>2013-06-22T12:52:50Z</time>
      </trkpt>
      <trkpt lat="45.93591" lon="4.69483">
        <ele>302</ele>
        <time>2013-06-22T12:52:53Z</time>
      </trkpt>
      <trkpt lat="45.93592" lon="4.69488">
        <ele>302</ele>
        <time>2013-06-22T12:52:56Z</time>
      </trkpt>
      <trkpt lat="45.93593" lon="4.69494">
        <ele>302</ele>
        <time>2013-06-22T12:52:59Z</time>
      </trkpt>
      <trkpt lat="45.93593" lon="4.69499">
        <ele>302</ele>
        <time>2013-06-22T12:53:02Z</time>
      </trkpt>
      <trkpt lat="45.93593" lon="4.69505">
        <ele>303</ele>
        <time>2013-06-22T12:53:05Z</time>
      </trkpt>
      <trkpt lat="45.93594" lon="4.6951">
        <ele>304</ele>
        <time>2013-06-22T12:53:08Z</time>
      </trkpt>
      <trkpt lat="45.93594" lon="4.69516">
        <ele>304</ele>
        <time>2013-06-22T12:53:11Z</time>
      </trkpt>
      <trkpt lat="45.93594" lon="4.69522">
        <ele>305</ele>
        <time>2013-06-22T12:53:14Z</time>
      </trkpt>
      <trkpt lat="45.93595" lon="4.69528">
        <ele>306</ele>
        <time>2013-06-22T12:53:17Z</time>
      </trkpt>
      <trkpt lat="45.93595" lon="4.69532">
        <ele>306</ele>
        <time>2013-06-22T12:53:20Z</time>
      </trkpt>
      <trkpt lat="45.93594" lon="4.69538">
        <ele>306</ele>
        <time>2013-06-22T12:53:23Z</time>
      </trkpt>
      <trkpt lat="45.93594" lon="4.69545">
        <ele>306</ele>
        <time>2013-06-22T12:53:26Z</time>
      </trkpt>
      <trkpt lat="45.93595" lon="4.6955">
        <ele>306</ele>
        <time>2013-06-22T12:53:29Z</time>
      </trkpt>
      <trkpt lat="45.93595" lon="4.69555">
        <ele>307</ele>
        <time>2013-06-22T12:53:32Z</time>
      </trkpt>
      <trkpt lat="45.93596" lon="4.6956">
        <ele>307</ele>
        <time>2013-06-22T12:53:35Z</time>
      </trkpt>
      <trkpt lat="45.93596" lon="4.69565">
        <ele>307</ele>
        <time>2013-06-22T12:53:38Z</time>
      </trkpt>
      <trkpt lat="45.93597" lon="4.69571">
        <ele>306</ele>
        <time>2013-06-22T12:53:41Z</time>
      </trkpt>
      <trkpt lat="45.93597" lon="4.69576">
        <ele>306</ele>
        <time>2013-06-22T12:53:44Z</time>
      </trkpt>
      <trkpt lat="45.93597" lon="4.69581">
        <ele>306</ele>
        <time>2013-06-22T12:53:47Z</time>
      </trkpt>
      <trkpt lat="45.93598" lon="4.69585">
        <ele>308</ele>
        <time>2013-06-22T12:53:50Z</time>
      </trkpt>
      <trkpt lat="45.93598" lon="4.69591">
        <ele>309</ele>
        <time>2013-06-22T12:53:53Z</time>
      </trkpt>
      <trkpt lat="45.936" lon="4.69596">
        <ele>309</ele>
        <time>2013-06-22T12:53:56Z</time>
      </trkpt>
      <trkpt lat="45.93602" lon="4.69601">
        <ele>310</ele>
        <time>2013-06-22T12:53:59Z</time>
      </trkpt>
      <trkpt lat="45.93603" lon="4.69607">
        <ele>310</ele>
        <time>2013-06-22T12:54:02Z</time>
      </trkpt>
      <trkpt lat="45.93604" lon="4.69611">
        <ele>311</ele>
        <time>2013-06-22T12:54:05Z</time>
      </trkpt>
      <trkpt lat="45.93604" lon="4.69615">
        <ele>311</ele>
        <time>2013-06-22T12:54:08Z</time>
      </trkpt>
      <trkpt lat="45.93605" lon="4.69619">
        <ele>311</ele>
        <time>2013-06-22T12:54:11Z</time>
      </trkpt>
      <trkpt lat="45.93606" lon="4.69624">
        <ele>311</ele>
        <time>2013-06-22T12:54:14Z</time>
      </trkpt>
      <trkpt lat="45.93608" lon="4.69629">
        <ele>312</ele>
        <time>2013-06-22T12:54:17Z</time>
      </trkpt>
      <trkpt lat="45.93609" lon="4.69634">
        <ele>312</ele>
        <time>2013-06-22T12:54:20Z</time>
      </trkpt>
      <trkpt lat="45.93611" lon="4.6964">
        <ele>312</ele>
        <time>2013-06-22T12:54:23Z</time>
      </trkpt>
      <trkpt lat="45.93612" lon="4.69646">
        <ele>312</ele>
        <time>2013-06-22T12:54:26Z</time>
      </trkpt>
      <trkpt lat="45.93614" lon="4.6965">
        <ele>313</ele>
        <time>2013-06-22T12:54:29Z</time>
      </trkpt>
      <trkpt lat="45.93616" lon="4.69655">
        <ele>313</ele>
        <time>2013-06-22T12:54:32Z</time>
      </trkpt>
      <trkpt lat="45.93617" lon="4.6966">
        <ele>313</ele>
        <time>2013-06-22T12:54:35Z</time>
      </trkpt>
      <trkpt lat="45.93619" lon="4.69665">
        <ele>313</ele>
        <time>2013-06-22T12:54:38Z</time>
      </trkpt>
      <trkpt lat="45.93621" lon="4.6967">
        <ele>314</ele>
        <time>2013-06-22T12:54:41Z</time>
      </trkpt>
      <trkpt lat="45.93622" lon="4.69675">
        <ele>314</ele>
        <time>2013-06-22T12:54:44Z</time>
      </trkpt>
      <trkpt lat="45.93623" lon="4.69681">
        <ele>314</ele>
        <time>2013-06-22T12:54:47Z</time>
      </trkpt>
      <trkpt lat="45.93621" lon="4.69689">
        <ele>314</ele>
        <time>2013-06-22T12:54:50Z</time>
      </trkpt>
      <trkpt lat="45.93619" lon="4.69696">
        <ele>314</ele>
        <time>2013-06-22T12:54:53Z</time>
      </trkpt>
      <trkpt lat="45.93616" lon="4.69704">
        <ele>314</ele>
        <time>2013-06-22T12:54:56Z</time>
      </trkpt>
      <trkpt lat="45.93611" lon="4.69712">
        <ele>314</ele>
        <time>2013-06-22T12:54:59Z</time>
      </trkpt>
      <trkpt lat="45.93606" lon="4.69721">
        <ele>313</ele>
        <time>2013-06-22T12:55:02Z</time>
      </trkpt>
      <trkpt lat="45.93601" lon="4.69733">
        <ele>313</ele>
        <time>2013-06-22T12:55:05Z</time>
      </trkpt>
      <trkpt lat="45.93596" lon="4.69744">
        <ele>313</ele>
        <time>2013-06-22T12:55:08Z</time>
      </trkpt>
      <trkpt lat="45.9359" lon="4.69756">
        <ele>312</ele>
        <time>2013-06-22T12:55:11Z</time>
      </trkpt>
      <trkpt lat="45.93585" lon="4.69767">
        <ele>312</ele>
        <time>2013-06-22T12:55:14Z</time>
      </trkpt>
      <trkpt lat="45.93579" lon="4.69781">
        <ele>309</ele>
        <time>2013-06-22T12:55:17Z</time>
      </trkpt>
      <trkpt lat="45.93572" lon="4.69797">
        <ele>309</ele>
        <time>2013-06-22T12:55:20Z</time>
      </trkpt>
      <trkpt lat="45.93565" lon="4.69814">
        <ele>309</ele>
        <time>2013-06-22T12:55:23Z</time>
      </trkpt>
      <trkpt lat="45.93558" lon="4.69831">
        <ele>309</ele>
        <time>2013-06-22T12:55:26Z</time>
      </trkpt>
      <trkpt lat="45.9355" lon="4.69849">
        <ele>310</ele>
        <time>2013-06-22T12:55:29Z</time>
      </trkpt>
      <trkpt lat="45.93542" lon="4.69862">
        <ele>310</ele>
        <time>2013-06-22T12:55:32Z</time>
      </trkpt>
      <trkpt lat="45.93534" lon="4.69874">
        <ele>310</ele>
        <time>2013-06-22T12:55:35Z</time>
      </trkpt>
      <trkpt lat="45.93526" lon="4.69885">
        <ele>310</ele>
        <time>2013-06-22T12:55:38Z</time>
      </trkpt>
      <trkpt lat="45.93515" lon="4.69895">
        <ele>310</ele>
        <time>2013-06-22T12:55:41Z</time>
      </trkpt>
      <trkpt lat="45.93504" lon="4.69907">
        <ele>310</ele>
        <time>2013-06-22T12:55:44Z</time>
      </trkpt>
      <trkpt lat="45.93493" lon="4.69918">
        <ele>309</ele>
        <time>2013-06-22T12:55:47Z</time>
      </trkpt>
      <trkpt lat="45.93483" lon="4.6993">
        <ele>308</ele>
        <time>2013-06-22T12:55:50Z</time>
      </trkpt>
      <trkpt lat="45.93472" lon="4.69942">
        <ele>307</ele>
        <time>2013-06-22T12:55:53Z</time>
      </trkpt>
      <trkpt lat="45.9346" lon="4.69955">
        <ele>306</ele>
        <time>2013-06-22T12:55:56Z</time>
      </trkpt>
      <trkpt lat="45.9345" lon="4.69969">
        <ele>306</ele>
        <time>2013-06-22T12:55:59Z</time>
      </trkpt>
      <trkpt lat="45.93438" lon="4.69986">
        <ele>305</ele>
        <time>2013-06-22T12:56:02Z</time>
      </trkpt>
      <trkpt lat="45.93422" lon="4.70004">
        <ele>304</ele>
        <time>2013-06-22T12:56:05Z</time>
      </trkpt>
      <trkpt lat="45.93406" lon="4.70022">
        <ele>300</ele>
        <time>2013-06-22T12:56:08Z</time>
      </trkpt>
      <trkpt lat="45.9339" lon="4.70039">
        <ele>299</ele>
        <time>2013-06-22T12:56:11Z</time>
      </trkpt>
      <trkpt lat="45.93371" lon="4.7005">
        <ele>298</ele>
        <time>2013-06-22T12:56:14Z</time>
      </trkpt>
      <trkpt lat="45.93354" lon="4.70063">
        <ele>297</ele>
        <time>2013-06-22T12:56:17Z</time>
      </trkpt>
      <trkpt lat="45.93342" lon="4.70091">
        <ele>295</ele>
        <time>2013-06-22T12:56:20Z</time>
      </trkpt>
      <trkpt lat="45.93328" lon="4.70124">
        <ele>289</ele>
        <time>2013-06-22T12:56:23Z</time>
      </trkpt>
      <trkpt lat="45.93311" lon="4.70159">
        <ele>287</ele>
        <time>2013-06-22T12:56:26Z</time>
      </trkpt>
      <trkpt lat="45.93292" lon="4.70193">
        <ele>280</ele>
        <time>2013-06-22T12:56:29Z</time>
      </trkpt>
      <trkpt lat="45.93279" lon="4.70224">
        <ele>279</ele>
        <time>2013-06-22T12:56:32Z</time>
      </trkpt>
      <trkpt lat="45.93264" lon="4.70254">
        <ele>275</ele>
        <time>2013-06-22T12:56:35Z</time>
      </trkpt>
      <trkpt lat="45.93248" lon="4.70279">
        <ele>271</ele>
        <time>2013-06-22T12:56:38Z</time>
      </trkpt>
      <trkpt lat="45.93228" lon="4.70302">
        <ele>269</ele>
        <time>2013-06-22T12:56:41Z</time>
      </trkpt>
      <trkpt lat="45.9321" lon="4.70324">
        <ele>267</ele>
        <time>2013-06-22T12:56:44Z</time>
      </trkpt>
      <trkpt lat="45.93195" lon="4.70341">
        <ele>260</ele>
        <time>2013-06-22T12:56:47Z</time>
      </trkpt>
      <trkpt lat="45.93184" lon="4.70363">
        <ele>259</ele>
        <time>2013-06-22T12:56:50Z</time>
      </trkpt>
      <trkpt lat="45.93181" lon="4.70402">
        <ele>255</ele>
        <time>2013-06-22T12:56:53Z</time>
      </trkpt>
      <trkpt lat="45.93178" lon="4.70448">
        <ele>248</ele>
        <time>2013-06-22T12:56:56Z</time>
      </trkpt>
      <trkpt lat="45.9318" lon="4.70483">
        <ele>245</ele>
        <time>2013-06-22T12:56:59Z</time>
      </trkpt>
      <trkpt lat="45.93195" lon="4.7051">
        <ele>240</ele>
        <time>2013-06-22T12:57:02Z</time>
      </trkpt>
      <trkpt lat="45.93213" lon="4.70529">
        <ele>240</ele>
        <time>2013-06-22T12:57:05Z</time>
      </trkpt>
      <trkpt lat="45.93232" lon="4.70549">
        <ele>240</ele>
        <time>2013-06-22T12:57:08Z</time>
      </trkpt>
      <trkpt lat="45.93249" lon="4.70574">
        <ele>239</ele>
        <time>2013-06-22T12:57:11Z</time>
      </trkpt>
      <trkpt lat="45.93266" lon="4.70611">
        <ele>235</ele>
        <time>2013-06-22T12:57:14Z</time>
      </trkpt>
      <trkpt lat="45.93283" lon="4.70644">
        <ele>233</ele>
        <time>2013-06-22T12:57:17Z</time>
      </trkpt>
      <trkpt lat="45.93304" lon="4.70666">
        <ele>233</ele>
        <time>2013-06-22T12:57:20Z</time>
      </trkpt>
      <trkpt lat="45.93322" lon="4.70673">
        <ele>229</ele>
        <time>2013-06-22T12:57:23Z</time>
      </trkpt>
      <trkpt lat="45.93339" lon="4.70676">
        <ele>231</ele>
        <time>2013-06-22T12:57:26Z</time>
      </trkpt>
      <trkpt lat="45.93355" lon="4.70681">
        <ele>230</ele>
        <time>2013-06-22T12:57:29Z</time>
      </trkpt>
      <trkpt lat="45.9337" lon="4.70689">
        <ele>230</ele>
        <time>2013-06-22T12:57:32Z</time>
      </trkpt>
      <trkpt lat="45.93386" lon="4.70701">
        <ele>230</ele>
        <time>2013-06-22T12:57:35Z</time>
      </trkpt>
      <trkpt lat="45.93403" lon="4.70717">
        <ele>229</ele>
        <time>2013-06-22T12:57:38Z</time>
      </trkpt>
      <trkpt lat="45.93421" lon="4.70739">
        <ele>229</ele>
        <time>2013-06-22T12:57:41Z</time>
      </trkpt>
      <trkpt lat="45.93434" lon="4.70766">
        <ele>225</ele>
        <time>2013-06-22T12:57:44Z</time>
      </trkpt>
      <trkpt lat="45.93454" lon="4.70786">
        <ele>224</ele>
        <time>2013-06-22T12:57:47Z</time>
      </trkpt>
      <trkpt lat="45.93473" lon="4.70809">
        <ele>223</ele>
        <time>2013-06-22T12:57:50Z</time>
      </trkpt>
      <trkpt lat="45.93491" lon="4.70839">
        <ele>219</ele>
        <time>2013-06-22T12:57:53Z</time>
      </trkpt>
      <trkpt lat="45.93512" lon="4.70867">
        <ele>218</ele>
        <time>2013-06-22T12:57:56Z</time>
      </trkpt>
      <trkpt lat="45.93534" lon="4.70884">
        <ele>216</ele>
        <time>2013-06-22T12:57:59Z</time>
      </trkpt>
      <trkpt lat="45.93552" lon="4.70899">
        <ele>216</ele>
        <time>2013-06-22T12:58:02Z</time>
      </trkpt>
      <trkpt lat="45.93566" lon="4.70912">
        <ele>215</ele>
        <time>2013-06-22T12:58:05Z</time>
      </trkpt>
      <trkpt lat="45.93576" lon="4.70921">
        <ele>211</ele>
        <time>2013-06-22T12:58:08Z</time>
      </trkpt>
      <trkpt lat="45.93576" lon="4.70932">
        <ele>210</ele>
        <time>2013-06-22T12:58:11Z</time>
      </trkpt>
      <trkpt lat="45.93566" lon="4.70957">
        <ele>207</ele>
        <time>2013-06-22T12:58:14Z</time>
      </trkpt>
      <trkpt lat="45.93557" lon="4.70987">
        <ele>206</ele>
        <time>2013-06-22T12:58:17Z</time>
      </trkpt>
      <trkpt lat="45.93549" lon="4.71018">
        <ele>200</ele>
        <time>2013-06-22T12:58:20Z</time>
      </trkpt>
      <trkpt lat="45.93543" lon="4.71045">
        <ele>198</ele>
        <time>2013-06-22T12:58:23Z</time>
      </trkpt>
      <trkpt lat="45.9354" lon="4.71073">
        <ele>197</ele>
        <time>2013-06-22T12:58:26Z</time>
      </trkpt>
      <trkpt lat="45.93538" lon="4.71097">
        <ele>193</ele>
        <time>2013-06-22T12:58:29Z</time>
      </trkpt>
      <trkpt lat="45.93539" lon="4.71106">
        <ele>193</ele>
        <time>2013-06-22T12:58:32Z</time>
      </trkpt>
      <trkpt lat="45.93543" lon="4.71108">
        <ele>193</ele>
        <time>2013-06-22T12:58:35Z</time>
      </trkpt>
      <trkpt lat="45.93549" lon="4.71107">
        <ele>193</ele>
        <time>2013-06-22T12:58:38Z</time>
      </trkpt>
      <trkpt lat="45.93559" lon="4.71107">
        <ele>193</ele>
        <time>2013-06-22T12:58:41Z</time>
      </trkpt>
      <trkpt lat="45.93571" lon="4.7111">
        <ele>193</ele>
        <time>2013-06-22T12:58:44Z</time>
      </trkpt>
      <trkpt lat="45.93582" lon="4.7111">
        <ele>193</ele>
        <time>2013-06-22T12:58:47Z</time>
      </trkpt>
      <trkpt lat="45.93595" lon="4.7111">
        <ele>193</ele>
        <time>2013-06-22T12:58:50Z</time>
      </trkpt>
      <trkpt lat="45.93608" lon="4.71111">
        <ele>193</ele>
        <time>2013-06-22T12:58:53Z</time>
      </trkpt>
      <trkpt lat="45.93621" lon="4.71112">
        <ele>193</ele>
        <time>2013-06-22T12:58:56Z</time>
      </trkpt>
      <trkpt lat="45.93634" lon="4.71113">
        <ele>193</ele>
        <time>2013-06-22T12:58:59Z</time>
      </trkpt>
      <trkpt lat="45.93645" lon="4.71113">
        <ele>193</ele>
        <time>2013-06-22T12:59:02Z</time>
      </trkpt>
      <trkpt lat="45.93657" lon="4.71114">
        <ele>193</ele>
        <time>2013-06-22T12:59:05Z</time>
      </trkpt>
      <trkpt lat="45.93667" lon="4.71115">
        <ele>192</ele>
        <time>2013-06-22T12:59:08Z</time>
      </trkpt>
      <trkpt lat="45.93673" lon="4.71119">
        <ele>191</ele>
        <time>2013-06-22T12:59:11Z</time>
      </trkpt>
      <trkpt lat="45.93677" lon="4.71125">
        <ele>191</ele>
        <time>2013-06-22T12:59:14Z</time>
      </trkpt>
      <trkpt lat="45.93678" lon="4.71123">
        <ele>191</ele>
        <time>2013-06-22T12:59:18Z</time>
      </trkpt>
      <trkpt lat="45.93679" lon="4.71123">
        <ele>191</ele>
        <time>2013-06-22T12:59:22Z</time>
      </trkpt>
      <trkpt lat="45.93682" lon="4.71123">
        <ele>191</ele>
        <time>2013-06-22T12:59:25Z</time>
      </trkpt>
      <trkpt lat="45.93686" lon="4.71123">
        <ele>191</ele>
        <time>2013-06-22T12:59:28Z</time>
      </trkpt>
      <trkpt lat="45.9369" lon="4.71124">
        <ele>191</ele>
        <time>2013-06-22T12:59:31Z</time>
      </trkpt>
      <trkpt lat="45.93693" lon="4.71124">
        <ele>190</ele>
        <time>2013-06-22T12:59:34Z</time>
      </trkpt>
      <trkpt lat="45.93698" lon="4.71125">
        <ele>190</ele>
        <time>2013-06-22T12:59:37Z</time>
      </trkpt>
      <trkpt lat="45.93702" lon="4.71126">
        <ele>190</ele>
        <time>2013-06-22T12:59:40Z</time>
      </trkpt>
      <trkpt lat="45.93706" lon="4.71126">
        <ele>190</ele>
        <time>2013-06-22T12:59:43Z</time>
      </trkpt>
      <trkpt lat="45.93712" lon="4.71126">
        <ele>190</ele>
        <time>2013-06-22T12:59:46Z</time>
      </trkpt>
      <trkpt lat="45.93716" lon="4.71127">
        <ele>190</ele>
        <time>2013-06-22T12:59:49Z</time>
      </trkpt>
      <trkpt lat="45.93719" lon="4.71129">
        <ele>190</ele>
        <time>2013-06-22T12:59:52Z</time>
      </trkpt>
      <trkpt lat="45.93722" lon="4.71127">
        <ele>190</ele>
        <time>2013-06-22T12:59:55Z</time>
      </trkpt>
      <trkpt lat="45.93726" lon="4.71128">
        <ele>190</ele>
        <time>2013-06-22T12:59:59Z</time>
      </trkpt>
      <trkpt lat="45.93729" lon="4.71127">
        <ele>190</ele>
        <time>2013-06-22T13:00:02Z</time>
      </trkpt>
      <trkpt lat="45.93733" lon="4.71127">
        <ele>190</ele>
        <time>2013-06-22T13:00:05Z</time>
      </trkpt>
      <trkpt lat="45.93735" lon="4.71127">
        <ele>190</ele>
        <time>2013-06-22T13:00:08Z</time>
      </trkpt>
      <trkpt lat="45.93739" lon="4.71129">
        <ele>190</ele>
        <time>2013-06-22T13:00:12Z</time>
      </trkpt>
      <trkpt lat="45.93741" lon="4.71128">
        <ele>190</ele>
        <time>2013-06-22T13:00:15Z</time>
      </trkpt>
      <trkpt lat="45.93745" lon="4.71129">
        <ele>190</ele>
        <time>2013-06-22T13:00:18Z</time>
      </trkpt>
      <trkpt lat="45.93748" lon="4.71129">
        <ele>190</ele>
        <time>2013-06-22T13:00:21Z</time>
      </trkpt>
      <trkpt lat="45.93751" lon="4.71128">
        <ele>189</ele>
        <time>2013-06-22T13:00:24Z</time>
      </trkpt>
      <trkpt lat="45.93755" lon="4.71128">
        <ele>189</ele>
        <time>2013-06-22T13:00:27Z</time>
      </trkpt>
      <trkpt lat="45.93759" lon="4.71129">
        <ele>189</ele>
        <time>2013-06-22T13:00:30Z</time>
      </trkpt>
      <trkpt lat="45.93764" lon="4.71127">
        <ele>189</ele>
        <time>2013-06-22T13:00:34Z</time>
      </trkpt>
      <trkpt lat="45.93767" lon="4.71126">
        <ele>189</ele>
        <time>2013-06-22T13:00:41Z</time>
      </trkpt>
      <trkpt lat="45.93773" lon="4.7113">
        <ele>189</ele>
        <time>2013-06-22T13:00:44Z</time>
      </trkpt>
      <trkpt lat="45.93786" lon="4.71135">
        <ele>188</ele>
        <time>2013-06-22T13:00:47Z</time>
      </trkpt>
      <trkpt lat="45.93801" lon="4.7114">
        <ele>188</ele>
        <time>2013-06-22T13:00:50Z</time>
      </trkpt>
      <trkpt lat="45.93816" lon="4.71142">
        <ele>187</ele>
        <time>2013-06-22T13:00:53Z</time>
      </trkpt>
      <trkpt lat="45.93826" lon="4.7114">
        <ele>187</ele>
        <time>2013-06-22T13:00:56Z</time>
      </trkpt>
      <trkpt lat="45.93835" lon="4.71144">
        <ele>188</ele>
        <time>2013-06-22T13:00:59Z</time>
      </trkpt>
      <trkpt lat="45.93847" lon="4.7116">
        <ele>187</ele>
        <time>2013-06-22T13:01:02Z</time>
      </trkpt>
      <trkpt lat="45.93862" lon="4.71176">
        <ele>184</ele>
        <time>2013-06-22T13:01:05Z</time>
      </trkpt>
      <trkpt lat="45.93881" lon="4.71182">
        <ele>184</ele>
        <time>2013-06-22T13:01:08Z</time>
      </trkpt>
      <trkpt lat="45.93898" lon="4.7118">
        <ele>185</ele>
        <time>2013-06-22T13:01:11Z</time>
      </trkpt>
      <trkpt lat="45.93914" lon="4.71183">
        <ele>186</ele>
        <time>2013-06-22T13:01:14Z</time>
      </trkpt>
      <trkpt lat="45.93931" lon="4.71185">
        <ele>186</ele>
        <time>2013-06-22T13:01:17Z</time>
      </trkpt>
      <trkpt lat="45.93946" lon="4.71187">
        <ele>185</ele>
        <time>2013-06-22T13:01:20Z</time>
      </trkpt>
      <trkpt lat="45.93961" lon="4.71189">
        <ele>185</ele>
        <time>2013-06-22T13:01:23Z</time>
      </trkpt>
      <trkpt lat="45.93975" lon="4.71191">
        <ele>185</ele>
        <time>2013-06-22T13:01:26Z</time>
      </trkpt>
      <trkpt lat="45.93984" lon="4.71201">
        <ele>185</ele>
        <time>2013-06-22T13:01:29Z</time>
      </trkpt>
      <trkpt lat="45.93985" lon="4.71219">
        <ele>183</ele>
        <time>2013-06-22T13:01:32Z</time>
      </trkpt>
      <trkpt lat="45.93982" lon="4.71238">
        <ele>182</ele>
        <time>2013-06-22T13:01:35Z</time>
      </trkpt>
      <trkpt lat="45.93971" lon="4.71258">
        <ele>180</ele>
        <time>2013-06-22T13:01:38Z</time>
      </trkpt>
      <trkpt lat="45.9397" lon="4.71285">
        <ele>180</ele>
        <time>2013-06-22T13:01:41Z</time>
      </trkpt>
      <trkpt lat="45.93976" lon="4.71314">
        <ele>180</ele>
        <time>2013-06-22T13:01:44Z</time>
      </trkpt>
      <trkpt lat="45.93974" lon="4.71345">
        <ele>179</ele>
        <time>2013-06-22T13:01:47Z</time>
      </trkpt>
      <trkpt lat="45.93972" lon="4.71375">
        <ele>178</ele>
        <time>2013-06-22T13:01:50Z</time>
      </trkpt>
      <trkpt lat="45.93966" lon="4.71405">
        <ele>178</ele>
        <time>2013-06-22T13:01:53Z</time>
      </trkpt>
      <trkpt lat="45.93959" lon="4.71434">
        <ele>177</ele>
        <time>2013-06-22T13:01:56Z</time>
      </trkpt>
      <trkpt lat="45.93956" lon="4.7146">
        <ele>177</ele>
        <time>2013-06-22T13:01:59Z</time>
      </trkpt>
      <trkpt lat="45.93952" lon="4.71483">
        <ele>177</ele>
        <time>2013-06-22T13:02:02Z</time>
      </trkpt>
      <trkpt lat="45.9395" lon="4.71504">
        <ele>177</ele>
        <time>2013-06-22T13:02:05Z</time>
      </trkpt>
      <trkpt lat="45.93949" lon="4.71525">
        <ele>177</ele>
        <time>2013-06-22T13:02:08Z</time>
      </trkpt>
      <trkpt lat="45.93947" lon="4.71546">
        <ele>177</ele>
        <time>2013-06-22T13:02:11Z</time>
      </trkpt>
      <trkpt lat="45.93943" lon="4.71565">
        <ele>178</ele>
        <time>2013-06-22T13:02:14Z</time>
      </trkpt>
      <trkpt lat="45.93938" lon="4.71581">
        <ele>178</ele>
        <time>2013-06-22T13:02:17Z</time>
      </trkpt>
      <trkpt lat="45.93929" lon="4.71596">
        <ele>178</ele>
        <time>2013-06-22T13:02:20Z</time>
      </trkpt>
      <trkpt lat="45.93922" lon="4.71614">
        <ele>177</ele>
        <time>2013-06-22T13:02:23Z</time>
      </trkpt>
      <trkpt lat="45.93916" lon="4.71637">
        <ele>176</ele>
        <time>2013-06-22T13:02:26Z</time>
      </trkpt>
      <trkpt lat="45.93914" lon="4.7166">
        <ele>175</ele>
        <time>2013-06-22T13:02:29Z</time>
      </trkpt>
      <trkpt lat="45.93911" lon="4.71676">
        <ele>175</ele>
        <time>2013-06-22T13:02:32Z</time>
      </trkpt>
      <trkpt lat="45.93909" lon="4.71682">
        <ele>175</ele>
        <time>2013-06-22T13:02:35Z</time>
      </trkpt>
      <trkpt lat="45.93901" lon="4.71686">
        <ele>174</ele>
        <time>2013-06-22T13:02:38Z</time>
      </trkpt>
      <trkpt lat="45.93892" lon="4.7169">
        <ele>174</ele>
        <time>2013-06-22T13:02:41Z</time>
      </trkpt>
      <trkpt lat="45.93881" lon="4.71696">
        <ele>174</ele>
        <time>2013-06-22T13:02:44Z</time>
      </trkpt>
      <trkpt lat="45.93868" lon="4.71702">
        <ele>174</ele>
        <time>2013-06-22T13:02:47Z</time>
      </trkpt>
      <trkpt lat="45.93852" lon="4.71708">
        <ele>174</ele>
        <time>2013-06-22T13:02:50Z</time>
      </trkpt>
      <trkpt lat="45.93836" lon="4.71715">
        <ele>175</ele>
        <time>2013-06-22T13:02:53Z</time>
      </trkpt>
      <trkpt lat="45.93819" lon="4.71721">
        <ele>175</ele>
        <time>2013-06-22T13:02:56Z</time>
      </trkpt>
      <trkpt lat="45.93801" lon="4.71729">
        <ele>175</ele>
        <time>2013-06-22T13:02:59Z</time>
      </trkpt>
      <trkpt lat="45.93786" lon="4.71735">
        <ele>175</ele>
        <time>2013-06-22T13:03:02Z</time>
      </trkpt>
      <trkpt lat="45.93769" lon="4.71742">
        <ele>175</ele>
        <time>2013-06-22T13:03:05Z</time>
      </trkpt>
      <trkpt lat="45.93753" lon="4.71747">
        <ele>175</ele>
        <time>2013-06-22T13:03:08Z</time>
      </trkpt>
      <trkpt lat="45.93737" lon="4.71753">
        <ele>176</ele>
        <time>2013-06-22T13:03:11Z</time>
      </trkpt>
      <trkpt lat="45.93722" lon="4.7176">
        <ele>176</ele>
        <time>2013-06-22T13:03:14Z</time>
      </trkpt>
      <trkpt lat="45.93711" lon="4.71774">
        <ele>176</ele>
        <time>2013-06-22T13:03:17Z</time>
      </trkpt>
      <trkpt lat="45.93705" lon="4.71796">
        <ele>176</ele>
        <time>2013-06-22T13:03:20Z</time>
      </trkpt>
      <trkpt lat="45.93698" lon="4.71815">
        <ele>176</ele>
        <time>2013-06-22T13:03:23Z</time>
      </trkpt>
      <trkpt lat="45.9369" lon="4.71835">
        <ele>176</ele>
        <time>2013-06-22T13:03:26Z</time>
      </trkpt>
      <trkpt lat="45.93681" lon="4.71858">
        <ele>175</ele>
        <time>2013-06-22T13:03:29Z</time>
      </trkpt>
      <trkpt lat="45.93674" lon="4.71886">
        <ele>175</ele>
        <time>2013-06-22T13:03:32Z</time>
      </trkpt>
      <trkpt lat="45.93675" lon="4.71906">
        <ele>175</ele>
        <time>2013-06-22T13:03:35Z</time>
      </trkpt>
      <trkpt lat="45.93666" lon="4.71913">
        <ele>175</ele>
        <time>2013-06-22T13:03:38Z</time>
      </trkpt>
      <trkpt lat="45.93661" lon="4.71929">
        <ele>175</ele>
        <time>2013-06-22T13:03:41Z</time>
      </trkpt>
      <trkpt lat="45.93654" lon="4.71948">
        <ele>175</ele>
        <time>2013-06-22T13:03:44Z</time>
      </trkpt>
      <trkpt lat="45.93645" lon="4.71965">
        <ele>175</ele>
        <time>2013-06-22T13:03:47Z</time>
      </trkpt>
      <trkpt lat="45.93638" lon="4.71985">
        <ele>175</ele>
        <time>2013-06-22T13:03:50Z</time>
      </trkpt>
      <trkpt lat="45.9363" lon="4.72006">
        <ele>175</ele>
        <time>2013-06-22T13:03:53Z</time>
      </trkpt>
      <trkpt lat="45.93623" lon="4.72027">
        <ele>175</ele>
        <time>2013-06-22T13:03:56Z</time>
      </trkpt>
      <trkpt lat="45.93615" lon="4.72048">
        <ele>175</ele>
        <time>2013-06-22T13:03:59Z</time>
      </trkpt>
      <trkpt lat="45.93608" lon="4.72067">
        <ele>175</ele>
        <time>2013-06-22T13:04:02Z</time>
      </trkpt>
      <trkpt lat="45.93603" lon="4.7209">
        <ele>174</ele>
        <time>2013-06-22T13:04:05Z</time>
      </trkpt>
      <trkpt lat="45.93591" lon="4.72112">
        <ele>174</ele>
        <time>2013-06-22T13:04:08Z</time>
      </trkpt>
      <trkpt lat="45.93579" lon="4.7213">
        <ele>174</ele>
        <time>2013-06-22T13:04:11Z</time>
      </trkpt>
      <trkpt lat="45.93571" lon="4.72153">
        <ele>174</ele>
        <time>2013-06-22T13:04:14Z</time>
      </trkpt>
      <trkpt lat="45.93561" lon="4.72179">
        <ele>173</ele>
        <time>2013-06-22T13:04:17Z</time>
      </trkpt>
      <trkpt lat="45.93549" lon="4.72205">
        <ele>173</ele>
        <time>2013-06-22T13:04:20Z</time>
      </trkpt>
      <trkpt lat="45.9354" lon="4.72227">
        <ele>172</ele>
        <time>2013-06-22T13:04:23Z</time>
      </trkpt>
      <trkpt lat="45.93533" lon="4.72248">
        <ele>172</ele>
        <time>2013-06-22T13:04:26Z</time>
      </trkpt>
      <trkpt lat="45.93525" lon="4.72271">
        <ele>172</ele>
        <time>2013-06-22T13:04:29Z</time>
      </trkpt>
      <trkpt lat="45.93517" lon="4.72293">
        <ele>172</ele>
        <time>2013-06-22T13:04:32Z</time>
      </trkpt>
      <trkpt lat="45.93504" lon="4.72313">
        <ele>173</ele>
        <time>2013-06-22T13:04:35Z</time>
      </trkpt>
      <trkpt lat="45.93489" lon="4.72333">
        <ele>173</ele>
        <time>2013-06-22T13:04:38Z</time>
      </trkpt>
      <trkpt lat="45.93476" lon="4.72354">
        <ele>173</ele>
        <time>2013-06-22T13:04:41Z</time>
      </trkpt>
      <trkpt lat="45.93463" lon="4.72374">
        <ele>173</ele>
        <time>2013-06-22T13:04:44Z</time>
      </trkpt>
      <trkpt lat="45.9345" lon="4.72388">
        <ele>173</ele>
        <time>2013-06-22T13:04:47Z</time>
      </trkpt>
      <trkpt lat="45.93434" lon="4.72401">
        <ele>174</ele>
        <time>2013-06-22T13:04:50Z</time>
      </trkpt>
      <trkpt lat="45.93417" lon="4.72407">
        <ele>174</ele>
        <time>2013-06-22T13:04:53Z</time>
      </trkpt>
      <trkpt lat="45.93404" lon="4.72409">
        <ele>174</ele>
        <time>2013-06-22T13:04:56Z</time>
      </trkpt>
      <trkpt lat="45.9339" lon="4.7241">
        <ele>174</ele>
        <time>2013-06-22T13:04:59Z</time>
      </trkpt>
      <trkpt lat="45.93385" lon="4.7243">
        <ele>173</ele>
        <time>2013-06-22T13:05:02Z</time>
      </trkpt>
      <trkpt lat="45.9339" lon="4.72454">
        <ele>173</ele>
        <time>2013-06-22T13:05:05Z</time>
      </trkpt>
      <trkpt lat="45.93382" lon="4.72476">
        <ele>173</ele>
        <time>2013-06-22T13:05:08Z</time>
      </trkpt>
      <trkpt lat="45.93368" lon="4.72491">
        <ele>173</ele>
        <time>2013-06-22T13:05:11Z</time>
      </trkpt>
      <trkpt lat="45.93354" lon="4.72508">
        <ele>172</ele>
        <time>2013-06-22T13:05:14Z</time>
      </trkpt>
      <trkpt lat="45.93337" lon="4.72526">
        <ele>172</ele>
        <time>2013-06-22T13:05:17Z</time>
      </trkpt>
      <trkpt lat="45.93322" lon="4.72543">
        <ele>172</ele>
        <time>2013-06-22T13:05:20Z</time>
      </trkpt>
      <trkpt lat="45.93306" lon="4.7256">
        <ele>172</ele>
        <time>2013-06-22T13:05:23Z</time>
      </trkpt>
      <trkpt lat="45.93292" lon="4.72577">
        <ele>171</ele>
        <time>2013-06-22T13:05:26Z</time>
      </trkpt>
      <trkpt lat="45.93278" lon="4.72594">
        <ele>170</ele>
        <time>2013-06-22T13:05:29Z</time>
      </trkpt>
      <trkpt lat="45.93263" lon="4.72611">
        <ele>170</ele>
        <time>2013-06-22T13:05:32Z</time>
      </trkpt>
      <trkpt lat="45.93248" lon="4.72628">
        <ele>170</ele>
        <time>2013-06-22T13:05:35Z</time>
      </trkpt>
      <trkpt lat="45.93234" lon="4.72643">
        <ele>170</ele>
        <time>2013-06-22T13:05:38Z</time>
      </trkpt>
      <trkpt lat="45.93222" lon="4.72659">
        <ele>170</ele>
        <time>2013-06-22T13:05:41Z</time>
      </trkpt>
      <trkpt lat="45.9321" lon="4.72674">
        <ele>169</ele>
        <time>2013-06-22T13:05:44Z</time>
      </trkpt>
      <trkpt lat="45.93197" lon="4.72688">
        <ele>169</ele>
        <time>2013-06-22T13:05:47Z</time>
      </trkpt>
      <trkpt lat="45.93185" lon="4.72703">
        <ele>169</ele>
        <time>2013-06-22T13:05:50Z</time>
      </trkpt>
      <trkpt lat="45.93172" lon="4.72718">
        <ele>170</ele>
        <time>2013-06-22T13:05:53Z</time>
      </trkpt>
      <trkpt lat="45.93159" lon="4.72733">
        <ele>170</ele>
        <time>2013-06-22T13:05:56Z</time>
      </trkpt>
      <trkpt lat="45.93145" lon="4.72748">
        <ele>170</ele>
        <time>2013-06-22T13:05:59Z</time>
      </trkpt>
      <trkpt lat="45.93132" lon="4.72764">
        <ele>171</ele>
        <time>2013-06-22T13:06:02Z</time>
      </trkpt>
      <trkpt lat="45.93119" lon="4.72781">
        <ele>171</ele>
        <time>2013-06-22T13:06:05Z</time>
      </trkpt>
      <trkpt lat="45.93106" lon="4.72796">
        <ele>171</ele>
        <time>2013-06-22T13:06:08Z</time>
      </trkpt>
      <trkpt lat="45.93092" lon="4.7281">
        <ele>172</ele>
        <time>2013-06-22T13:06:11Z</time>
      </trkpt>
      <trkpt lat="45.9308" lon="4.72828">
        <ele>173</ele>
        <time>2013-06-22T13:06:14Z</time>
      </trkpt>
      <trkpt lat="45.93067" lon="4.72843">
        <ele>173</ele>
        <time>2013-06-22T13:06:17Z</time>
      </trkpt>
      <trkpt lat="45.93051" lon="4.72861">
        <ele>172</ele>
        <time>2013-06-22T13:06:20Z</time>
      </trkpt>
      <trkpt lat="45.93035" lon="4.72876">
        <ele>172</ele>
        <time>2013-06-22T13:06:23Z</time>
      </trkpt>
      <trkpt lat="45.93019" lon="4.72893">
        <ele>172</ele>
        <time>2013-06-22T13:06:26Z</time>
      </trkpt>
      <trkpt lat="45.93004" lon="4.72911">
        <ele>171</ele>
        <time>2013-06-22T13:06:29Z</time>
      </trkpt>
      <trkpt lat="45.92989" lon="4.72929">
        <ele>171</ele>
        <time>2013-06-22T13:06:32Z</time>
      </trkpt>
      <trkpt lat="45.92974" lon="4.72946">
        <ele>171</ele>
        <time>2013-06-22T13:06:35Z</time>
      </trkpt>
      <trkpt lat="45.92958" lon="4.72963">
        <ele>171</ele>
        <time>2013-06-22T13:06:38Z</time>
      </trkpt>
      <trkpt lat="45.92945" lon="4.72979">
        <ele>171</ele>
        <time>2013-06-22T13:06:41Z</time>
      </trkpt>
      <trkpt lat="45.92934" lon="4.72995">
        <ele>172</ele>
        <time>2013-06-22T13:06:44Z</time>
      </trkpt>
      <trkpt lat="45.92922" lon="4.7301">
        <ele>172</ele>
        <time>2013-06-22T13:06:47Z</time>
      </trkpt>
      <trkpt lat="45.92911" lon="4.73026">
        <ele>172</ele>
        <time>2013-06-22T13:06:50Z</time>
      </trkpt>
      <trkpt lat="45.92901" lon="4.73041">
        <ele>172</ele>
        <time>2013-06-22T13:06:53Z</time>
      </trkpt>
      <trkpt lat="45.9289" lon="4.73058">
        <ele>172</ele>
        <time>2013-06-22T13:06:56Z</time>
      </trkpt>
      <trkpt lat="45.92881" lon="4.73078">
        <ele>172</ele>
        <time>2013-06-22T13:06:59Z</time>
      </trkpt>
      <trkpt lat="45.92874" lon="4.731">
        <ele>172</ele>
        <time>2013-06-22T13:07:02Z</time>
      </trkpt>
      <trkpt lat="45.92868" lon="4.73124">
        <ele>171</ele>
        <time>2013-06-22T13:07:05Z</time>
      </trkpt>
      <trkpt lat="45.92865" lon="4.73149">
        <ele>171</ele>
        <time>2013-06-22T13:07:08Z</time>
      </trkpt>
      <trkpt lat="45.92863" lon="4.73174">
        <ele>171</ele>
        <time>2013-06-22T13:07:11Z</time>
      </trkpt>
      <trkpt lat="45.92861" lon="4.73199">
        <ele>171</ele>
        <time>2013-06-22T13:07:14Z</time>
      </trkpt>
      <trkpt lat="45.92859" lon="4.73223">
        <ele>171</ele>
        <time>2013-06-22T13:07:17Z</time>
      </trkpt>
      <trkpt lat="45.92858" lon="4.73251">
        <ele>171</ele>
        <time>2013-06-22T13:07:20Z</time>
      </trkpt>
      <trkpt lat="45.92855" lon="4.73276">
        <ele>171</ele>
        <time>2013-06-22T13:07:23Z</time>
      </trkpt>
      <trkpt lat="45.9285" lon="4.73299">
        <ele>171</ele>
        <time>2013-06-22T13:07:26Z</time>
      </trkpt>
      <trkpt lat="45.92847" lon="4.73324">
        <ele>171</ele>
        <time>2013-06-22T13:07:29Z</time>
      </trkpt>
      <trkpt lat="45.92846" lon="4.73347">
        <ele>171</ele>
        <time>2013-06-22T13:07:32Z</time>
      </trkpt>
      <trkpt lat="45.92843" lon="4.73368">
        <ele>171</ele>
        <time>2013-06-22T13:07:35Z</time>
      </trkpt>
      <trkpt lat="45.9284" lon="4.73389">
        <ele>172</ele>
        <time>2013-06-22T13:07:38Z</time>
      </trkpt>
      <trkpt lat="45.92837" lon="4.73411">
        <ele>172</ele>
        <time>2013-06-22T13:07:41Z</time>
      </trkpt>
      <trkpt lat="45.92833" lon="4.73436">
        <ele>172</ele>
        <time>2013-06-22T13:07:44Z</time>
      </trkpt>
      <trkpt lat="45.92829" lon="4.73459">
        <ele>172</ele>
        <time>2013-06-22T13:07:47Z</time>
      </trkpt>
      <trkpt lat="45.92824" lon="4.73483">
        <ele>172</ele>
        <time>2013-06-22T13:07:50Z</time>
      </trkpt>
      <trkpt lat="45.9282" lon="4.73506">
        <ele>172</ele>
        <time>2013-06-22T13:07:53Z</time>
      </trkpt>
      <trkpt lat="45.92817" lon="4.73529">
        <ele>172</ele>
        <time>2013-06-22T13:07:56Z</time>
      </trkpt>
      <trkpt lat="45.92815" lon="4.73552">
        <ele>171</ele>
        <time>2013-06-22T13:07:59Z</time>
      </trkpt>
      <trkpt lat="45.92819" lon="4.73581">
        <ele>171</ele>
        <time>2013-06-22T13:08:02Z</time>
      </trkpt>
      <trkpt lat="45.92818" lon="4.73607">
        <ele>172</ele>
        <time>2013-06-22T13:08:05Z</time>
      </trkpt>
      <trkpt lat="45.92813" lon="4.73629">
        <ele>172</ele>
        <time>2013-06-22T13:08:08Z</time>
      </trkpt>
      <trkpt lat="45.92805" lon="4.73648">
        <ele>172</ele>
        <time>2013-06-22T13:08:11Z</time>
      </trkpt>
      <trkpt lat="45.92799" lon="4.73665">
        <ele>172</ele>
        <time>2013-06-22T13:08:14Z</time>
      </trkpt>
      <trkpt lat="45.92794" lon="4.73682">
        <ele>172</ele>
        <time>2013-06-22T13:08:17Z</time>
      </trkpt>
      <trkpt lat="45.92789" lon="4.73702">
        <ele>172</ele>
        <time>2013-06-22T13:08:20Z</time>
      </trkpt>
      <trkpt lat="45.92784" lon="4.73721">
        <ele>172</ele>
        <time>2013-06-22T13:08:23Z</time>
      </trkpt>
      <trkpt lat="45.92775" lon="4.73733">
        <ele>172</ele>
        <time>2013-06-22T13:08:26Z</time>
      </trkpt>
      <trkpt lat="45.92763" lon="4.73734">
        <ele>172</ele>
        <time>2013-06-22T13:08:29Z</time>
      </trkpt>
      <trkpt lat="45.92748" lon="4.73728">
        <ele>173</ele>
        <time>2013-06-22T13:08:32Z</time>
      </trkpt>
      <trkpt lat="45.92732" lon="4.7372">
        <ele>173</ele>
        <time>2013-06-22T13:08:35Z</time>
      </trkpt>
      <trkpt lat="45.92716" lon="4.7371">
        <ele>173</ele>
        <time>2013-06-22T13:08:38Z</time>
      </trkpt>
      <trkpt lat="45.927" lon="4.73704">
        <ele>173</ele>
        <time>2013-06-22T13:08:41Z</time>
      </trkpt>
      <trkpt lat="45.92682" lon="4.73695">
        <ele>173</ele>
        <time>2013-06-22T13:08:44Z</time>
      </trkpt>
      <trkpt lat="45.92666" lon="4.73687">
        <ele>173</ele>
        <time>2013-06-22T13:08:47Z</time>
      </trkpt>
      <trkpt lat="45.92653" lon="4.73681">
        <ele>173</ele>
        <time>2013-06-22T13:08:50Z</time>
      </trkpt>
      <trkpt lat="45.9264" lon="4.7367">
        <ele>173</ele>
        <time>2013-06-22T13:08:53Z</time>
      </trkpt>
      <trkpt lat="45.9263" lon="4.7365">
        <ele>173</ele>
        <time>2013-06-22T13:08:56Z</time>
      </trkpt>
      <trkpt lat="45.9262" lon="4.7363">
        <ele>173</ele>
        <time>2013-06-22T13:08:59Z</time>
      </trkpt>
      <trkpt lat="45.9261" lon="4.73625">
        <ele>173</ele>
        <time>2013-06-22T13:09:02Z</time>
      </trkpt>
      <trkpt lat="45.92595" lon="4.73624">
        <ele>173</ele>
        <time>2013-06-22T13:09:05Z</time>
      </trkpt>
      <trkpt lat="45.92581" lon="4.73626">
        <ele>173</ele>
        <time>2013-06-22T13:09:08Z</time>
      </trkpt>
      <trkpt lat="45.92567" lon="4.73628">
        <ele>173</ele>
        <time>2013-06-22T13:09:11Z</time>
      </trkpt>
      <trkpt lat="45.92552" lon="4.7363">
        <ele>173</ele>
        <time>2013-06-22T13:09:14Z</time>
      </trkpt>
      <trkpt lat="45.92538" lon="4.7363">
        <ele>173</ele>
        <time>2013-06-22T13:09:17Z</time>
      </trkpt>
      <trkpt lat="45.92521" lon="4.73633">
        <ele>173</ele>
        <time>2013-06-22T13:09:20Z</time>
      </trkpt>
      <trkpt lat="45.92506" lon="4.73634">
        <ele>174</ele>
        <time>2013-06-22T13:09:23Z</time>
      </trkpt>
      <trkpt lat="45.92493" lon="4.73632">
        <ele>174</ele>
        <time>2013-06-22T13:09:26Z</time>
      </trkpt>
      <trkpt lat="45.92482" lon="4.73635">
        <ele>174</ele>
        <time>2013-06-22T13:09:29Z</time>
      </trkpt>
      <trkpt lat="45.92474" lon="4.73645">
        <ele>174</ele>
        <time>2013-06-22T13:09:32Z</time>
      </trkpt>
      <trkpt lat="45.9247" lon="4.73663">
        <ele>174</ele>
        <time>2013-06-22T13:09:35Z</time>
      </trkpt>
      <trkpt lat="45.92468" lon="4.7368">
        <ele>174</ele>
        <time>2013-06-22T13:09:38Z</time>
      </trkpt>
      <trkpt lat="45.92465" lon="4.73696">
        <ele>174</ele>
        <time>2013-06-22T13:09:41Z</time>
      </trkpt>
      <trkpt lat="45.92465" lon="4.73708">
        <ele>174</ele>
        <time>2013-06-22T13:09:44Z</time>
      </trkpt>
      <trkpt lat="45.92464" lon="4.73707">
        <ele>174</ele>
        <time>2013-06-22T13:09:48Z</time>
      </trkpt>
      <trkpt lat="45.92461" lon="4.7371">
        <ele>174</ele>
        <time>2013-06-22T13:09:53Z</time>
      </trkpt>
      <trkpt lat="45.92461" lon="4.73707">
        <ele>174</ele>
        <time>2013-06-22T13:09:56Z</time>
      </trkpt>
      <trkpt lat="45.9246" lon="4.73709">
        <ele>174</ele>
        <time>2013-06-22T13:10:00Z</time>
      </trkpt>
      <trkpt lat="45.9246" lon="4.73706">
        <ele>174</ele>
        <time>2013-06-22T13:10:03Z</time>
      </trkpt>
      <trkpt lat="45.9246" lon="4.73709">
        <ele>174</ele>
        <time>2013-06-22T13:10:06Z</time>
      </trkpt>
    </trkseg>
  </trk>
</gpx>